     2              OBSERVATION DATA    GPS                 RINEX VERSION / TYPE
ASHTORIN MIT 09                                             PGM / RUN BY / DATE
                                                            COMMENT
Original Marker Name: FRIN                                  COMMENT
Campaign Name: STRC/NBC 1997                                COMMENT
4-Character Station Name: FRIN                              COMMENT
6-Character Antenna Code: DMRCHT                            COMMENT
Vertical Measurement Point: BCR                             COMMENT
Vertical Offset to Rinex Ref. Point: 0.0349                 COMMENT
Radial Measurement Point: ECF                               COMMENT
Radial Offset to Rinex Ref. Point: 0.1896                   COMMENT
Antenna Height from Field Measurement: 1.3330 m             COMMENT
Additional Antenna Identification Info.:                    COMMENT
Turborogue and Ashtech Choke Ring                           COMMENT
Original XYZ: 0.0000 0.0000 0.0000                          COMMENT
New XYZ position is based on association with SCEC monument COMMENT
E1D0J4A3+0011. Position of that monument is believed to be  COMMENT
valid to within 1 m horizontally; vertical accuracy         COMMENT
should be no worse than 3-times this value.                 COMMENT
                                                            COMMENT
Revised Rinex header created by UCSD GPS archive for        COMMENT
GSAC on 12-Apr-1999 (1999:102) 06:12:15 GMT                 COMMENT
For assistance contact dagnew@ucsd.edu or hjohnson@ucsd.edu COMMENT
                                                            COMMENT
FRINK 1934                                                  MARKER NAME
                                                            MARKER NUMBER
PTL UNAVCO                                                  OBSERVER / AGENCY
378 ASHTECH Z12-XII3 1E951D0                                REC # / TYPE / VERS
740 DORNE-MARGOL. TYPE T                                    ANT # / TYPE
 -2308056.0000 -4807160.0000  3487357.0000                  APPROX POSITION XYZ
        1.2845        0.0000        0.0000                  ANTENNA: DELTA H/E/N
     1     1     0                                          WAVELENGTH FACT L1/2
     7    L1    L2    C1    P1    P2    D1    D2            # / TYPES OF OBSERV
    30                                                      INTERVAL
  1997     3     6    16    51   30.000000                  TIME OF FIRST OBS
  1997     3     6    23    59   30.000000                  TIME OF LAST OBS
     0                                                      # OF SATELLITES
                                                            END OF HEADER
 97  3  6 16 51 30.0000000  0  8 18  3 31 29 27 14 19 16             0.000000000
   -136567.83119   -101125.15959  20331335.146    20331334.7805   20331339.7025
        -0.000          -0.000
   -139054.51619    -97540.60255  23286124.010    23286122.7035   23286127.6995
        -0.000          -0.000
   -300831.39519   -216850.39757  22643844.789    22643844.6735   22643850.6685
        -0.000          -0.000
    151653.83219    109089.17856  23833784.326    23833784.7845   23833791.5345
        -0.000          -0.000
   -302978.27719   -216904.45256  23442239.635    23442238.4965   23442244.9805
        -0.000          -0.000
    206511.03018    150383.25955         0.000           0.0005   24684904.9105
        -0.000          -0.000
   -181739.26619   -131404.62558  21148727.840    21148727.7005   21148733.0825
        -0.000          -0.000
    163575.38819    116409.18257  22738482.997    22738482.4865   22738490.1715
        -0.000          -0.000
 97  3  6 16 52  0.0000000  0  8 18  3 31 29 27 14 19 16             0.000818385
   -184214.123 9   -138252.15249  20322268.417    20322268.0464   20322272.9564
        -0.000          -0.000
   -181943.746 9   -130960.78746  23277961.709    23277960.7634   23277966.2124
        -0.000          -0.000
   -404130.840 9   -297343.41247  22624187.980    22624187.3414   22624193.4544
        -0.000          -0.000
    204320.255 9    150127.80246  23843806.630    23843806.8954   23843813.8874
        -0.000          -0.000
   -406929.910 9   -297905.67747  23422457.023    23422457.0914   23422463.7184
        -0.000          -0.000
    278497.15518    206476.14645  24698593.444    24698593.1305   24698602.7404
        -0.000          -0.000
   -244483.580 9   -180296.29948  21136788.213    21136787.8764   21136793.2744
        -0.000          -0.000
    216198.491 9    157414.12747  22748496.757    22748496.3734   22748504.1394
        -0.000          -0.000
 97  3  6 16 52 30.0000000  0  8 18  3 31 29 27 14 19 16             0.000794389
   -231386.989 9   -175010.23949  20313291.816    20313291.3414   20313296.2554
        -0.000          -0.000
   -224377.601 9   -164026.11146  23269886.404    23269885.8234   23269891.4834
        -0.000          -0.000
   -507047.098 9   -377537.83647  22604603.685    22604603.0184   22604609.1434
        -0.000          -0.000
    257203.869 9    191335.70146  23853870.844    23853870.7284   23853877.5374
        -0.000          -0.000
   -510834.374 9   -378870.15047  23402684.521    23402684.5994   23402691.2454
        -0.000          -0.000
    350430.020 8    262527.52845  24712281.557    24712281.4444   24712291.8344
        -0.000          -0.000
   -307084.877 9   -229076.52748  21124875.674    21124875.2434   21124880.6254
        -0.000          -0.000
    269054.279 9    198600.37747  22758555.186    22758554.5804   22758562.3374
        -0.000          -0.000
 97  3  6 16 53  0.0000000  0  9 18  2  3 31 29 27 14 19 16          0.000770374
   -278072.140 9   -211388.29149  20304407.870    20304407.4714   20304412.3734
        -0.000          -0.000
   -575497.21118   -434432.14055  25179931.246    25179929.6175   25179940.3385
        -0.000          -0.000
   -266305.552 9   -196697.25346  23261907.575    23261907.0974   23261912.8824
        -0.000          -0.000
   -609569.712 9   -457425.51247  22585094.261    22585093.6554   22585099.7674
        -0.000          -0.000
    310310.794 9    232717.60346  23863977.013    23863976.7224   23863983.5884
        -0.000          -0.000
   -614698.574 9   -459803.25347  23382920.098    23382919.9914   23382926.4054
        -0.000          -0.000
    422322.940 8    318547.78045  24725962.210    24725962.2934   24725972.6724
        -0.000          -0.000
   -369531.785 9   -277736.45048  21112992.356    21112991.9604   21112997.3344
        -0.000          -0.000
    322153.987 9    239976.69747  22768659.921    22768659.2654   22768666.9214
        -0.000          -0.000
 97  3  6 16 53 30.0000000  0  9 18  2  3 31 29 27 14 19 16          0.000746306
   -324289.183 9   -247401.58349  20295613.056    20295612.6604   20295617.5754
        -0.000          -0.000
   -705635.760 8   -535838.77345  25155166.740    25155166.6904   25155175.6974
        -0.000          -0.000
   -307710.440 9   -228960.80346  23254028.437    23254028.0414   23254033.8464
        -0.000          -0.000
   -711731.982 9   -537032.42647  22565653.440    22565652.7844   22565658.8724
        -0.000          -0.000
    363617.257 9    274255.01446  23874120.909    23874120.6594   23874127.6564
        -0.000          -0.000
   -718549.902 9   -540726.31047  23363157.917    23363157.6934   23363164.1234
        -0.000          -0.000
    494144.905 8    374512.74745  24739629.723    24739629.8604   24739640.1004
        -0.000          -0.000
   -431837.203 9   -326286.12748  21101136.023    21101135.6784   21101141.0594
        -0.000          -0.000
    375478.437 9    281528.13747  22778807.466    22778806.8204   22778814.2924
        -0.000          -0.000
 97  3  6 16 54  0.0000000  0  9 18  2  3 31 29 27 14 19 16          0.000722262
   -369995.414 9   -283016.83649  20286915.414    20286915.0514   20286919.9724
        -0.000          -0.000
   -835588.900 8   -637100.94445  25130437.845    25130437.8014   25130446.6944
        -0.000          -0.000
   -348515.184 9   -260756.70146  23246263.784    23246263.3674   23246268.8054
        -0.000          -0.000
   -813499.625 9   -616331.84147  22546287.627    22546287.0104   22546293.1194
        -0.000          -0.000
    417154.393 9    315972.12146  23884308.815    23884308.6074   23884315.4374
        -0.000          -0.000
   -822336.629 9   -621599.05247  23343407.877    23343407.6854   23343414.2134
        -0.000          -0.000
    565935.561 8    430453.32945  24753291.416    24753291.4334   24753301.7444
        -0.000          -0.000
   -493937.799 9   -374676.19848  21089318.689    21089318.3394   21089323.7074
        -0.000          -0.000
    429073.061 9    323290.10847  22789006.372    22789005.6594   22789013.1054
        -0.000          -0.000
 97  3  6 16 54 30.0000000  0  9 18  2  3 31 29 27 14 19 16          0.000698326
   -415117.414 9   -318176.84649  20278329.058    20278328.6454   20278333.5704
        -0.000          -0.000
   -965264.872 8   -738147.09445  25105761.281    25105760.8434   25105770.3584
        -0.000          -0.000
   -388602.243 9   -291993.36146  23238635.527    23238635.1684   23238640.4624
        -0.000          -0.000
   -914781.683 9   -695252.87947  22527014.160    22527013.6034   22527019.7614
        -0.000          -0.000
    471003.693 9    357932.48646  23894556.258    23894556.1224   23894562.6994
        -0.000          -0.000
   -925953.677 9   -702339.56147  23323690.298    23323690.0464   23323696.5984
        -0.000          -0.000
    637803.537 8    486454.15545  24766967.621    24766967.4454   24766977.9374
        -0.000          -0.000
   -555729.846 9   -422825.84448  21077560.093    21077559.7294   21077565.1094
        -0.000          -0.000
    483013.459 9    365321.50747  22799270.873    22799270.1644   22799277.6504
        -0.000          -0.000
 97  3  6 16 55  0.0000000  0  9 18  2  3 31 29 27 14 19 16          0.000674532
   -459591.996 9   -352832.37449  20269865.770    20269865.4244   20269870.3374
        -0.000          -0.000
  -1094595.417 8   -838924.09345  25081150.668    25081150.2904   25081159.9214
        -0.000          -0.000
   -427919.596 9   -322630.25946  23231153.861    23231153.3574   23231158.5674
        -0.000          -0.000
  -1015511.113 9   -773743.28847  22507846.133    22507845.5434   22507851.6044
        -0.000          -0.000
    525215.047 9    400174.95846  23904872.509    23904872.3214   23904879.1584
        -0.000          -0.000
  -1029339.818 9   -782900.14047  23304016.540    23304016.3454   23304022.7644
        -0.000          -0.000
    709796.247 8    542552.15945  24780667.253    24780666.9904   24780677.5424
        -0.000          -0.000
   -617153.584 9   -470688.49749  21065871.586    21065871.2414   21065876.5964
        -0.000          -0.000
    537349.818 9    407661.44847  22809610.713    22809610.0154   22809617.5264
        -0.000          -0.000
 97  3  6 16 55 30.0000000  0  9 18  2  3 31 29 27 14 19 16          0.000651008
   -503217.918 9   -386826.61149  20261564.138    20261563.7614   20261568.6594
        -0.000          -0.000
  -1223385.799 8   -939280.14245  25056642.653    25056642.1184   25056651.8584
        -0.000          -0.000
   -466286.900 9   -352526.86246  23223852.610    23223852.1814   23223857.6354
        -0.000          -0.000
  -1115478.285 9   -851639.72647  22488823.048    22488822.4524   22488828.4564
        -0.000          -0.000
    580006.748 9    442869.67846  23915298.898    23915298.7934   23915306.0434
        -0.000          -0.000
  -1132275.228 9   -863109.51247  23284428.698    23284428.4564   23284434.7294
        -0.000          -0.000
    782116.805 8    598905.69945  24794429.923    24794429.7334   24794439.7764
        -0.000          -0.000
   -678020.467 9   -518117.23349  21054289.092    21054288.7194   21054294.0344
        -0.000          -0.000
    592275.039 9    450460.24847  22820062.671    22820062.0204   22820069.5004
        -0.000          -0.000
 97  3  6 16 56  0.0000000  0  9 18  2  3 31 29 27 14 19 16          0.000627805
   -545900.910 9   -420086.09349  20253441.837    20253441.4944   20253446.3754
        -0.000          -0.000
  -1351572.524 8  -1039165.81445  25032249.349    25032248.9554   25032258.6874
        -0.000          -0.000
   -503628.549 9   -381624.24246  23216746.767    23216746.3514   23216751.8424
        -0.000          -0.000
  -1214571.446 9   -928855.13947  22469966.188    22469965.5974   22469971.5244
        -0.000          -0.000
    635495.189 9    486107.30546  23925857.922    23925857.7644   23925865.0594
        -0.000          -0.000
  -1234650.667 9   -942882.53447  23264947.237    23264946.9634   23264953.3934
        -0.000          -0.000
    854859.296 8    655587.96145  24808272.292    24808272.1114   24808282.5534
        -0.000          -0.000
   -738242.354 9   -565043.38149  21042829.210    21042828.8534   21042834.1734
        -0.000          -0.000
    647892.850 9    493798.72247  22830646.523    22830645.8724   22830653.3114
        -0.000          -0.000
 97  3  6 16 56 30.0000000  0  9 18  2  3 31 29 27 14 19 16          0.000605055
   -587395.279 9   -452419.37249  20245545.820    20245545.4514   20245550.3204
        -0.000          -0.000
  -1478926.901 8  -1138402.89345  25008014.679    25008014.0524   25008023.8084
        -0.000          -0.000
   -539734.245 9   -409758.54346  23209875.960    23209875.6874   23209881.3034
        -0.000          -0.000
  -1312539.123 9  -1005193.56647  22451323.444    22451322.8934   22451328.8834
        -0.000          -0.000
    691930.082 9    530082.38646  23936597.196    23936597.0484   23936604.2014
        -0.000          -0.000
  -1336233.884 9  -1022038.25747  23245616.458    23245616.2544   23245622.6744
        -0.000          -0.000
    928241.816 8    712768.94645  24822236.242    24822236.0734   24822246.9794
        -0.000          -0.000
   -797599.587 9   -611295.76549  21031533.932    21031533.5724   21031538.9154
        -0.000          -0.000
    704435.267 9    537857.66547  22841406.344    22841405.6944   22841413.1394
        -0.000          -0.000
 97  3  6 16 57  0.0000000  0  8 18  2  3 31 29 27 19 16             0.000582908
   -627369.541 9   -483568.15549  20237938.916    20237938.5974   20237943.5244
        -0.000          -0.000
  -1605141.984 8  -1236752.20945  24983996.866    24983996.1694   24984005.7414
        -0.000          -0.000
   -574320.387 9   -436708.78146  23203294.655    23203294.2544   23203299.8654
        -0.000          -0.000
  -1409067.614 9  -1080410.53247  22432954.630    22432954.0894   22432960.1334
        -0.000          -0.000
    749634.829 9    575046.98346  23947578.214    23947578.0764   23947585.1854
        -0.000          -0.000
  -1436725.312 9  -1100343.22247  23226493.647    23226493.4534   23226499.7094
        -0.000          -0.000
   -855787.544 9   -656637.02749  21020461.210    21020460.7884   21020466.1414
        -0.000          -0.000
    762211.882 9    582878.32947  22852401.002    22852400.3324   22852407.8094
        -0.000          -0.000
 97  3  6 16 57 30.0000000  0  8 18  2  3 31 29 27 19 16             0.000561672
   -665449.714 9   -513241.02349  20230692.499    20230692.1634   20230697.0944
        -0.000          -0.000
  -1729836.471 8  -1333916.64745  24960268.133    24960267.5864   24960277.1314
        -0.000          -0.000
   -606985.931 9   -462162.43646  23197078.535    23197078.1774   23197083.6774
        -0.000          -0.000
  -1503771.093 9  -1154205.39647  22414933.155    22414932.6154   22414938.6354
        -0.000          -0.000
    809004.577 9    621309.02646  23958876.041    23958875.8854   23958882.9884
        -0.000          -0.000
  -1535737.022 9  -1177495.16547  23207652.410    23207652.1474   23207658.3104
        -0.000          -0.000
   -912404.517 9   -700754.15049  21009687.278    21009686.9264   21009692.2834
        -0.000          -0.000
    821611.576 9    629163.72847  22863704.448    22863703.8374   22863711.3504
        -0.000          -0.000
 97  3  6 16 58  0.0000000  0  8 18  2  3 31 29 27 19 16             0.000541666
   -701091.424 9   -541013.79249  20223910.058    20223909.7694   20223914.7214
        -0.000          -0.000
  -1852452.592 9  -1429461.59245  24936935.011    24936934.3904   24936944.1454
        -0.000          -0.000
   -637188.904 9   -485697.21546  23191331.020    23191330.7554   23191336.3084
        -0.000          -0.000
  -1596107.481 9  -1226155.77547  22397362.154    22397361.6194   22397367.5834
        -0.000          -0.000
    870573.997 9    669285.10046  23970592.458    23970592.3244   23970599.5054
        -0.000          -0.000
  -1632736.722 9  -1253079.31347  23189194.007    23189193.6864   23189199.8774
        -0.000          -0.000
   -966896.645 9   -743215.53749  20999317.708    20999317.4054   20999322.7674
        -0.000          -0.000
    883172.404 9    677133.12347  22875419.103    22875418.5174   22875426.0524
        -0.000          -0.000
 97  3  6 16 58 30.0000000  0  8 18  2  3 31 29 27 19 16             0.000523345
   -733571.155 9   -566322.68049  20217729.387    20217729.1074   20217734.0374
        -0.000          -0.000
  -1972262.551 8  -1522819.90746  24914135.852    24914135.2044   24914145.1644
        -0.000          -0.000
   -664215.032 9   -506756.52546  23186188.110    23186187.7974   23186193.4254
        -0.000          -0.000
  -1685374.872 9  -1295714.75947  22380375.019    22380374.5194   22380380.5114
        -0.000          -0.000
    935044.306 9    719521.56446  23982860.948    23982860.8814   23982867.8734
        -0.000          -0.000
  -1727009.484 9  -1326538.57347  23171254.386    23171254.1844   23171260.3484
        -0.000          -0.000
  -1018546.379 9   -783462.08049  20989489.071    20989488.7794   20989494.1594
        -0.000          -0.000
    947586.436 9    727325.80147  22887676.776    22887676.1714   22887683.6684
        -0.000          -0.000
 97  3  6 16 59  0.0000000  0  8 18  2  3 31 29 27 19 16             0.000507290
   -761993.532 9   -588469.99549  20212320.785    20212320.5324   20212325.4444
        -0.000          -0.000
  -2088361.308 9  -1613286.35446  24892042.576    24892042.0984   24892052.4204
        -0.000          -0.000
   -687147.564 9   -524626.03046  23181824.275    23181823.9474   23181829.5454
        -0.000          -0.000
  -1770676.820 9  -1362183.78347  22364142.430    22364141.9574   22364148.1324
        -0.000          -0.000
   1003306.594 9    772712.80746  23995850.836    23995850.6694   23995857.8904
        -0.000          -0.000
  -1817650.202 9  -1397167.65347  23154006.146    23154005.8564   23154011.9664
        -0.000          -0.000
  -1066445.004 9   -820785.68249  20980374.239    20980373.9894   20980379.3604
        -0.000          -0.000
   1015756.191 9    780444.99747  22900649.046    22900648.4814   22900655.9794
        -0.000          -0.000
 97  3  6 16 59 30.0000000  0  8 18  2  3 31 29 27 19 16             0.000494133
   -785365.980 9   -606682.29749  20207873.189    20207872.9704   20207877.8934
        -0.000          -0.000
  -2199745.069 9  -1700078.79246  24870846.997    24870846.4114   24870856.8564
        -0.000          -0.000
   -704983.032 9   -538523.78746  23178430.259    23178429.9874   23178435.6314
        -0.000          -0.000
  -1851006.526 9  -1424778.33847  22348856.191    22348855.7894   22348861.8574
        -0.000          -0.000
   1076337.765 9    829620.10046  24009748.049    24009748.0474   24009755.3994
        -0.000          -0.000
  -1903665.976 9  -1464192.90747  23137637.677    23137637.5274   23137643.6804
        -0.000          -0.000
  -1109599.841 9   -854412.81949  20972162.061    20972161.8654   20972167.2714
        -0.000          -0.000
   1088679.865 9    837268.55647  22914525.954    22914525.4544   22914532.9994
        -0.000          -0.000
 97  3  6 17  0  0.0000000  0  8 18  2  3 31 29 27 19 16             0.000484424
   -802779.236 9   -620251.07749  20204559.525    20204559.3354   20204564.2704
        -0.000          -0.000
  -2305518.274 9  -1782499.37046  24850719.137    24850718.5754   24850728.8174
        -0.000          -0.000
   -716851.044 9   -547771.59347  23176171.839    23176171.6404   23176177.3074
        -0.000          -0.000
  -1925471.326 9  -1482802.81547  22334686.063    22334685.6894   22334691.6264
        -0.000          -0.000
   1155008.525 9    890921.86046  24024718.858    24024718.8234   24024726.1784
        -0.000          -0.000
  -1984170.059 9  -1526923.34147  23122318.152    23122318.1524   23122324.2114
        -0.000          -0.000
  -1147127.438 9   -883655.10149  20965020.796    20965020.6084   20965026.0324
        -0.000          -0.000
   1167236.479 9    898481.41047  22929474.789    22929474.2854   22929481.9304
        -0.000          -0.000
 97  3  6 17  0 30.0000000  0  8 18  2  3 31 29 27 19 16             0.000478335
   -813954.308 9   -628958.93849  20202432.987    20202432.8274   20202437.7554
        -0.000          -0.000
  -2405406.130 9  -1860333.94846  24831711.149    24831710.6544   24831720.7994
        -0.000          -0.000
   -722462.583 9   -552144.21647  23175103.989    23175103.8204   23175109.4234
        -0.000          -0.000
  -1993790.681 9  -1536038.62447  22321685.373    22321685.0194   22321690.9214
        -0.000          -0.000
   1239583.765 9    956824.49846  24040813.067    24040813.0914   24040820.5284
        -0.000          -0.000
  -2058892.673 9  -1585148.71547  23108099.159    23108098.9664   23108104.9014
        -0.000          -0.000
  -1178747.732 9   -908294.28749  20959003.578    20959003.4644   20959008.9024
        -0.000          -0.000
   1251705.370 9    964301.22147  22945548.634    22945548.1874   22945555.9174
        -0.000          -0.000
 97  3  6 17  1  0.0000000  0  8 18  2  3 31 29 27 19 16             0.000475407
   -819616.581 9   -633371.11849  20201355.495    20201355.3534   20201360.2754
        -0.000          -0.000
  -2500124.851 8  -1934140.63745  24813686.817    24813686.2834   24813696.2614
        -0.000          -0.000
   -722528.186 9   -552195.33347  23175091.453    23175091.3384   23175096.9384
        -0.000          -0.000
  -2056675.440 9  -1585039.71347  22309718.760    22309718.4334   22309724.3004
        -0.000          -0.000
   1329343.656 8   1026767.14745  24057893.949    24057893.9264   24057901.2204
        -0.000          -0.000
  -2128573.925 9  -1639445.75147  23094839.164    23094839.0164   23094845.0104
        -0.000          -0.000
  -1205191.484 9   -928899.80449  20953971.538    20953971.4174   20953976.8014
        -0.000          -0.000
   1341370.899 9   1034170.37547  22962611.576    22962611.0954   22962618.8324
        -0.000          -0.000
 97  3  6 17  1 30.0000000  0  8 18  2  3 31 29 27 19 16             0.000474433
   -821664.539 9   -634966.93949  20200965.873    20200965.6924   20200970.5684
        -0.000          -0.000
  -2591575.317 8  -2005400.64345  24796284.320    24796283.7004   24796293.7164
        -0.000          -0.000
   -718958.190 9   -549413.50547  23175770.870    23175770.7474   23175776.3504
        -0.000          -0.000
  -2116025.161 9  -1631286.23447  22298424.897    22298424.5424   22298430.4334
        -0.000          -0.000
   1422397.674 9   1099276.61145  24075601.442    24075601.5184   24075608.9274
        -0.000          -0.000
  -2195112.701 9  -1691294.12947  23082177.241    23082177.1304   23082183.0314
        -0.000          -0.000
  -1228358.790 9   -946952.25149  20949563.032    20949562.8694   20949568.2154
        -0.000          -0.000
   1434321.060 9   1106598.97847  22980299.584    22980299.0604   22980306.8704
        -0.000          -0.000
 97  3  6 17  2  0.0000000  0  8 18  2  3 31 29 27 19 16             0.000474038
   -822307.294 9   -635467.80649  20200843.617    20200843.4174   20200848.2574
        -0.000          -0.000
  -2681953.885 8  -2075825.40145  24779085.898    24779085.2464   24779095.1104
        -0.000          -0.000
   -713934.446 9   -545498.91047  23176726.915    23176726.7064   23176732.3864
        -0.000          -0.000
  -2174035.621 9  -1676489.16847  22287385.916    22287385.5444   22287391.4504
        -0.000          -0.000
   1516567.468 9   1172655.53146  24093521.600    24093521.5624   24093529.1354
        -0.000          -0.000
  -2260692.192 9  -1742395.00147  23069698.049    23069697.8404   23069703.6314
        -0.000          -0.000
  -1250445.140 9   -964162.39249  20945360.270    20945360.0394   20945365.3744
        -0.000          -0.000
   1528357.465 9   1179874.00047  22998194.196    22998193.6524   22998201.5244
        -0.000          -0.000
 97  3  6 17  2 30.0000000  0  8 18  2  3 31 29 27 19 16             0.000473112
   -823326.613 9   -636262.09649  20200649.733    20200649.4814   20200654.3274
        -0.000          -0.000
  -2773039.163 8  -2146800.86245  24761752.923    24761752.2564   24761761.9814
        -0.000          -0.000
   -709200.739 9   -541810.29947  23177627.772    23177627.5024   23177633.3044
        -0.000          -0.000
  -2232459.996 9  -1722014.63847  22276268.194    22276267.7714   22276273.5654
        -0.000          -0.000
   1610104.671 8   1245541.53246  24111321.216    24111321.1204   24111328.9084
        -0.000          -0.000
  -2327084.691 9  -1794129.39047  23057063.963    23057063.6874   23057069.5704
        -0.000          -0.000
  -1273239.586 9   -981924.29249  20941022.639    20941022.4124   20941027.7564
        -0.000          -0.000
   1621715.887 9   1252620.72047  23015959.871    23015959.3124   23015967.2004
        -0.000          -0.000
 97  3  6 17  3  0.0000000  0  9 18  2  3 31 29 27 10 19 16          0.000471233
   -825719.133 9   -638126.41149  20200194.573    20200194.2664   20200199.1054
        -0.000          -0.000
  -2865828.505 8  -2219104.15845  24744095.619    24744094.6604   24744104.6154
        -0.000          -0.000
   -705758.581 9   -539128.09347  23178282.827    23178282.5684   23178288.3514
        -0.000          -0.000
  -2292279.240 9  -1768627.00047  22264885.030    22264884.5514   22264890.3714
        -0.000          -0.000
   1702024.857 9   1317167.51545  24128813.048    24128812.8504   24128820.8764
        -0.000          -0.000
  -2395272.098 9  -1847262.41447  23044088.445    23044088.0204   23044093.9204
        -0.000          -0.000
   -547425.10018   -409095.76155  24872059.927    24872059.7315   24872066.9105
        -0.000          -0.000
  -1297747.225 9  -1001021.15049  20936359.016    20936358.7414   20936364.0854
        -0.000          -0.000
   1713401.614 9   1324064.04947  23033407.329    23033406.6744   23033414.5004
        -0.000          -0.000
 97  3  6 17  3 30.0000000  0  9 18  2  3 31 29 27 10 19 16          0.000467698
   -829939.686 9   -641415.16649  20199391.486    20199391.1134   20199395.9914
        -0.000          -0.000
  -2960771.843 8  -2293085.91845  24726028.523    24726027.4684   24726037.2214
        -0.000          -0.000
   -704067.374 9   -537810.26847  23178604.778    23178604.4264   23178610.1894
        -0.000          -0.000
  -2353932.558 9  -1816668.51247  22253152.864    22253152.3134   22253158.1404
        -0.000          -0.000
   1791870.688 9   1387177.07345  24145910.416    24145910.3234   24145918.0494
        -0.000          -0.000
  -2465693.391 9  -1902136.11347  23030687.697    23030687.2874   23030693.2014
        -0.000          -0.000
   -617830.289 8   -463956.93945  24858663.057    24858662.2474   24858669.1634
        -0.000          -0.000
  -1324399.052 9  -1021788.80149  20931287.358    20931287.0814   20931292.4524
        -0.000          -0.000
   1802953.631 9   1393844.74947  23050448.693    23050448.0074   23050455.8184
        -0.000          -0.000
 97  3  6 17  4  0.0000000  0  9 18  2  3 31 29 27 10 19 16          0.000462687
   -836009.469 9   -646144.87949  20198236.483    20198236.1024   20198241.0184
        -0.000          -0.000
  -3057888.305 9  -2368761.02045  24707547.891    24707546.9214   24707556.4334
        -0.000          -0.000
   -704141.270 9   -537867.84347  23178590.798    23178590.3764   23178596.0884
        -0.000          -0.000
  -2417439.780 9  -1866154.62947  22241067.810    22241067.2604   22241073.0854
        -0.000          -0.000
   1879603.748 9   1455540.32746  24162605.844    24162605.5964   24162613.1784
        -0.000          -0.000
  -2538379.507 9  -1958774.60347  23016856.191    23016855.6424   23016861.4874
        -0.000          -0.000
   -690176.209 8   -520330.45945  24844896.144    24844895.2464   24844902.0054
        -0.000          -0.000
  -1353213.756 9  -1044241.80749  20925804.191    20925803.8274   20925809.1844
        -0.000          -0.000
   1890346.450 9   1461942.94147  23067079.075    23067078.3544   23067086.1934
        -0.000          -0.000
 97  3  6 17  4 30.0000000  0  9 18  2  3 31 29 27 10 19 16          0.000456256
   -843824.123 9   -652234.23549  20196749.433    20196749.0124   20196753.9374
        -0.000          -0.000
  -3157082.771 9  -2446055.34145  24688671.919    24688670.9194   24688680.2524
        -0.000          -0.000
   -705897.729 9   -539236.50547  23178256.581    23178256.1274   23178261.9304
        -0.000          -0.000
  -2482714.606 9  -1917018.11047  22228646.464    22228645.8784   22228651.6834
        -0.000          -0.000
   1965303.731 9   1522319.41546  24178914.233    24178913.9764   24178921.6164
        -0.000          -0.000
  -2613243.015 9  -2017109.76547  23002610.014    23002609.4454   23002615.4214
        -0.000          -0.000
   -764354.929 8   -578132.03745  24830780.846    24830779.8174   24830786.4984
        -0.000          -0.000
  -1384082.976 9  -1068295.74049  20919929.998    20919929.6544   20919934.9724
        -0.000          -0.000
   1975667.322 9   1528426.65347  23083315.151    23083314.3644   23083322.2434
        -0.000          -0.000
 97  3  6 17  5  0.0000000  0  9 18  2  3 31 29 27 10 19 16          0.000448492
   -853218.526 9   -659554.55949  20194961.757    20194961.3194   20194966.2764
        -0.000          -0.000
  -3258206.922 9  -2524853.30345  24669428.552    24669427.6214   24669436.9954
        -0.000          -0.000
   -709211.294 9   -541818.50847  23177626.066    23177625.6044   23177631.3634
        -0.000          -0.000
  -2549625.767 9  -1969156.64447  22215913.745    22215913.1444   22215918.9554
        -0.000          -0.000
   2049102.987 9   1587617.39446  24194860.652    24194860.4264   24194868.4674
        -0.000          -0.000
  -2690121.604 9  -2077015.14047  22987980.528    22987980.0024   22987985.9214
        -0.000          -0.000
   -840192.145 8   -637225.96145  24816349.598    24816348.6004   24816355.3234
        -0.000          -0.000
  -1416832.140 9  -1093814.55749  20913698.108    20913697.7084   20913703.0194
        -0.000          -0.000
   2059056.336 9   1593405.01647  23099183.536    23099182.7694   23099190.5954
        -0.000          -0.000
 97  3  6 17  5 30.0000000  0  9 18  2  3 31 29 27 10 19 16          0.000439519
   -863998.373 9   -667954.45349  20192910.442    20192910.0094   20192914.9624
        -0.000          -0.000
  -3361074.692 9  -2605009.95446  24649853.436    24649852.5924   24649861.8484
        -0.000          -0.000
   -713888.914 9   -545463.39846  23176735.954    23176735.4504   23176741.2094
        -0.000          -0.000
  -2618004.331 9  -2022438.61447  22202901.797    22202901.1914   22202906.9444
        -0.000          -0.000
   2131183.655 9   1651576.19546  24210480.359    24210480.0434   24210488.1104
        -0.000          -0.000
  -2768828.612 9  -2138345.22947  22973003.086    22973002.5524   22973008.4744
        -0.000          -0.000
   -917474.197 8   -697445.74545  24801643.113    24801642.1114   24801648.8654
        -0.000          -0.000
  -1451265.440 9  -1120645.69749  20907145.609    20907145.2344   20907150.6074
        -0.000          -0.000
   2140694.421 9   1657019.01847  23114718.905    23114718.0734   23114725.8644
        -0.000          -0.000
 97  3  6 17  6  0.0000000  0  9 18  2  3 31 29 27 10 19 16          0.000429424
   -876020.749 9   -677322.54749  20190622.689    20190622.2534   20190627.1544
        -0.000          -0.000
  -3465563.656 9  -2686429.86846  24629969.803    24629969.0174   24629978.2084
        -0.000          -0.000
   -719787.045 9   -550059.33346  23175613.535    23175613.0774   23175618.8184
        -0.000          -0.000
  -2687725.873 9  -2076767.05847  22189634.216    22189633.6074   22189639.4354
        -0.000          -0.000
   2211672.765 9   1714294.79646  24225797.134    24225796.8894   24225804.6364
        -0.000          -0.000
  -2849229.902 9  -2200995.55347  22957703.188    22957702.6234   22957708.6384
        -0.000          -0.000
   -996054.096 8   -758676.90045  24786689.782    24786688.7234   24786695.3924
        -0.000          -0.000
  -1487262.087 9  -1148695.02249  20900295.739    20900295.3574   20900300.6824
        -0.000          -0.000
   2220723.522 9   1719379.23347  23129948.037    23129947.2204   23129955.0804
        -0.000          -0.000
 97  3  6 17  6 30.0000000  0  9 18  2  3 31 29 27 10 19 16          0.000418294
   -889141.171 9   -687546.26449  20188125.993    20188125.5614   20188130.4584
        -0.000          -0.000
  -3571531.322 9  -2769001.99946  24609804.695    24609803.9084   24609813.2634
        -0.000          -0.000
   -726774.637 9   -555504.19146  23174283.776    23174283.3084   23174289.0154
        -0.000          -0.000
  -2758640.769 9  -2132025.38747  22176139.505    22176138.8994   22176144.7334
        -0.000          -0.000
   2290717.799 9   1775888.18746  24240839.196    24240838.8664   24240846.5384
        -0.000          -0.000
  -2931179.494 9  -2264852.34847  22942108.743    22942108.1994   22942114.1844
        -0.000          -0.000
  -1075793.997 8   -820811.86045  24771515.807    24771514.8664   24771521.5724
        -0.000          -0.000
  -1524684.738 9  -1177855.52249  20893174.483    20893174.0674   20893179.3794
        -0.000          -0.000
   2299289.348 9   1780599.25647  23144898.743    23144897.9404   23144905.7714
        -0.000          -0.000
 97  3  6 17  7  0.0000000  0  9 18  2  3 31 29 27 10 19 16          0.000406189
   -903262.346 9   -698549.79249  20185438.868    20185438.4424   20185443.3114
        -0.000          -0.000
  -3678881.505 9  -2852651.41646  24589376.588    24589375.7404   24589385.1884
        -0.000          -0.000
   -734752.395 9   -561720.62046  23172765.529    23172765.0684   23172770.8274
        -0.000          -0.000
  -2830641.901 9  -2188130.15147  22162438.128    22162437.5244   22162443.2724
        -0.000          -0.000
   2368421.374 9   1836436.27446  24255625.768    24255625.5404   24255633.3874
        -0.000          -0.000
  -3014585.348 9  -2329843.88547  22926237.192    22926236.5374   22926242.5344
        -0.000          -0.000
  -1156612.256 9   -883787.15445  24756136.433    24756135.8234   24756142.4704
        -0.000          -0.000
  -1563450.674 9  -1208062.74649  20885797.588    20885797.1634   20885802.4974
        -0.000          -0.000
   2376487.825 9   1840753.80947  23159589.174    23159588.4114   23159596.2404
        -0.000          -0.000
 97  3  6 17  7 30.0000000  0  9 18  2  3 31 29 27 10 19 16          0.000393177
   -918301.674 9   -710268.76049  20182577.020    20182576.5834   20182581.4444
        -0.000          -0.000
  -3787496.010 9  -2937286.01646  24568707.968    24568707.0684   24568716.5684
        -0.000          -0.000
   -743602.813 9   -568617.04446  23171081.351    23171080.9144   23171086.6434
        -0.000          -0.000
  -2903614.266 9  -2244991.70347  22148551.954    22148551.3574   22148557.0414
        -0.000          -0.000
   2444891.303 9   1896023.07646  24270177.563    24270177.2854   24270185.2154
        -0.000          -0.000
  -3099358.326 9  -2395900.72047  22910105.389    22910104.7654   22910110.7374
        -0.000          -0.000
  -1238433.863 8   -947544.24045  24740566.434    24740565.5944   24740572.4754
        -0.000          -0.000
  -1603470.761 9  -1239247.21849  20878182.061    20878181.6154   20878186.9124
        -0.000          -0.000
   2452416.999 9   1899919.28046  23174038.114    23174037.3584   23174045.1614
        -0.000          -0.000
 97  3  6 17  8  0.0000000  0  9 18  2  3 31 29 27 10 19 16          0.000379350
   -934115.324 9   -722591.09949  20179567.825    20179567.3764   20179572.2274
        -0.000          -0.000
  -3897213.155 8  -3022779.80246  24547829.579    24547828.5724   24547838.1664
        -0.000          -0.000
   -753186.304 9   -576084.67946  23169257.597    23169257.2374   23169262.8104
        -0.000          -0.000
  -2977383.470 9  -2302474.17147  22134514.110    22134513.5054   22134519.2394
        -0.000          -0.000
   2520274.919 9   1954763.41545  24284522.784    24284522.4054   24284530.2714
        -0.000          -0.000
  -3185350.076 9  -2462907.25347  22893741.599    22893741.0734   22893746.9884
        -0.000          -0.000
  -1321124.817 8  -1011978.77745  24724830.675    24724830.0064   24724836.7404
        -0.000          -0.000
  -1644601.251 9  -1271296.94649  20870355.104    20870354.6944   20870360.0104
        -0.000          -0.000
   2527217.512 9   1958205.29846  23188272.285    23188271.4644   23188279.2954
        -0.000          -0.000
 97  3  6 17  8 30.0000000  0  9 18  2  3 31 29 27 10 19 16          0.000364739
   -950657.394 9   -735481.03749  20176419.947    20176419.5154   20176424.3754
        -0.000          -0.000
  -4007970.930 8  -3109084.45346  24526752.937    24526751.9034   24526761.6044
        -0.000          -0.000
   -763470.737 9   -584098.52246  23167300.791    23167300.2524   23167305.7244
        -0.000          -0.000
  -3051885.503 9  -2360527.68647  22120336.814    22120336.2104   22120341.9294
        -0.000          -0.000
   2594627.542 8   2012700.34745  24298671.532    24298671.1314   24298679.0434
        -0.000          -0.000
  -3272507.479 9  -2530822.07047  22877156.028    22877155.4754   22877161.4774
        -0.000          -0.000
  -1404641.256 9  -1077056.51845  24708938.137    24708937.4194   24708943.9444
        -0.000          -0.000
  -1686803.328 9  -1304181.67549  20862324.270    20862323.9144   20862329.2464
        -0.000          -0.000
   2600935.528 9   2015647.79347  23202300.394    23202299.6324   23202307.5384
        -0.000          -0.000
 97  3  6 17  9  0.0000000  0  9 18  2  3 31 29 27 10 19 16          0.000349401
   -967844.007 9   -748873.21849  20173149.470    20173149.0794   20173153.9414
        -0.000          -0.000
  -4119689.265 8  -3196137.60345  24505493.584    24505492.4714   24505502.2774
        -0.000          -0.000
   -774367.557 9   -592589.54946  23165227.123    23165226.6174   23165232.0554
        -0.000          -0.000
  -3127034.268 9  -2419085.15447  22106036.415    22106035.8104   22106041.5134
        -0.000          -0.000
   2668028.373 8   2069895.68045  24312639.350    24312639.0714   24312646.9174
        -0.000          -0.000
  -3360737.606 9  -2599572.78647  22860366.412    22860365.8784   22860371.8484
        -0.000          -0.000
  -1488891.356 8  -1142706.00345  24692905.887    24692905.1284   24692911.7854
        -0.000          -0.000
  -1730004.168 9  -1337844.65949  20854103.414    20854103.0754   20854108.3834
        -0.000          -0.000
   2673659.442 9   2072315.67447  23216139.347    23216138.5924   23216146.6214
        -0.000          -0.000
 97  3  6 17  9 30.0000000  0  9 18  2  3 31 29 27 10 19 16          0.000333386
   -985607.905 9   -762715.23349  20169769.057    20169768.6704   20169773.5354
        -0.000          -0.000
  -4232295.842 9  -3283882.90845  24484064.991    24484064.0564   24484073.7764
        -0.000          -0.000
   -785802.402 9   -601499.82946  23163051.080    23163050.6344   23163056.1414
        -0.000          -0.000
  -3202763.369 9  -2478094.82247  22091625.551    22091624.9864   22091630.6904
        -0.000          -0.000
   2740534.564 8   2126393.82045  24326436.893    24326436.7084   24326444.8744
        -0.000          -0.000
  -3449963.527 9  -2669099.44147  22843387.286    22843386.7234   22843392.7264
        -0.000          -0.000
  -1573781.138 9  -1208853.87045  24676752.098    24676751.2304   24676757.8504
        -0.000          -0.000
  -1774127.100 9  -1372226.15849  20845707.176    20845706.8074   20845712.1174
        -0.000          -0.000
   2745463.251 9   2128266.58747  23229803.257    23229802.4824   23229810.6524
        -0.000          -0.000
 97  3  6 17 10  0.0000000  0  9 18  2  3 31 29 27 10 19 16          0.000316783
  -1003798.328 9   -776889.60049  20166307.523    20166307.1464   20166312.0004
        -0.000          -0.000
  -4345651.147 8  -3372211.63045  24462494.125    24462493.1894   24462502.7934
        -0.000          -0.000
   -797640.306 9   -610724.19046  23160798.522    23160798.0734   23160803.5114
        -0.000          -0.000
  -3278931.807 9  -2537446.82247  22077131.178    22077130.6304   22077136.3364
        -0.000          -0.000
   2812275.488 8   2182295.69245  24340088.750    24340088.5384   24340096.6714
        -0.000          -0.000
  -3540032.279 9  -2739282.85247  22826247.684    22826247.1984   22826253.1724
        -0.000          -0.000
  -1659147.254 9  -1275372.93945  24660507.616    24660506.4574   24660512.9934
        -0.000          -0.000
  -1819023.353 9  -1407210.24749  20837163.678    20837163.3124   20837168.6024
        -0.000          -0.000
   2816493.925 9   2183615.03047  23243319.984    23243319.2644   23243327.5114
        -0.000          -0.000
 97  3  6 17 10 30.0000000  0  9 18  2  3 31 29 27 10 19 16          0.000299629
  -1022355.625 9   -791349.84849  20162776.216    20162775.8514   20162780.7074
        -0.000          -0.000
  -4459716.470 8  -3461093.61445  24440788.047    24440787.1764   24440796.5934
        -0.000          -0.000
   -809824.020 9   -620218.00246  23158480.133    23158479.7084   23158485.1664
        -0.000          -0.000
  -3355505.939 9  -2597114.94747  22062559.618    22062559.0784   22062564.6994
        -0.000          -0.000
   2883306.806 8   2237644.63545  24353605.444    24353605.2014   24353613.6014
        -0.000          -0.000
  -3630896.079 9  -2810085.78047  22808956.954    22808956.4184   22808962.2964
        -0.000          -0.000
  -1744921.471 9  -1342210.04945  24644185.388    24644184.4464   24644190.7214
        -0.000          -0.000
  -1864637.689 9  -1442753.87749  20828483.583    20828483.1914   20828488.4664
        -0.000          -0.000
   2886811.163 9   2238407.57247  23256701.061    23256700.2914   23256708.6004
        -0.000          -0.000
 97  3  6 17 11  0.0000000  0  9 18  2  3 31 29 27 10 19 16          0.000281944
  -1041251.481 9   -806073.90749  20159180.531    20159180.1304   20159184.9914
        -0.000          -0.000
  -4574465.452 8  -3550508.29545  24418951.945    24418951.1624   24418960.5184
        -0.000          -0.000
   -822301.441 9   -629940.68147  23156105.742    23156105.3424   23156110.8254
        -0.000          -0.000
  -3432467.992 9  -2657085.35747  22047914.278    22047913.7174   22047919.2754
        -0.000          -0.000
   2953659.349 8   2292464.58845  24366993.141    24366992.9914   24367001.2884
        -0.000          -0.000
  -3722543.350 9  -2881499.21047  22791516.879    22791516.4514   22791522.4524
        -0.000          -0.000
  -1831067.245 8  -1409336.65945  24627792.604    24627791.5254   24627797.8324
        -0.000          -0.000
  -1910920.802 9  -1478818.63449  20819676.182    20819675.8184   20819681.1254
        -0.000          -0.000
   2956422.772 9   2292650.25846  23269947.727    23269947.0414   23269955.3734
        -0.000          -0.000
 97  3  6 17 11 30.0000000  0  9 18  2  3 31 29 27 10 19 16          0.000263757
  -1060435.941 9   -821022.85549  20155529.859    20155529.4674   20155534.3374
        -0.000          -0.000
  -4689841.189 9  -3640411.36745  24396996.475    24396995.6924   24397005.1214
        -0.000          -0.000
   -835019.119 9   -639850.57847  23153685.661    23153685.2674   23153690.7994
        -0.000          -0.000
  -3509770.814 9  -2717321.30047  22033203.952    22033203.4614   22033209.0394
        -0.000          -0.000
   3023389.381 9   2346799.51545  24380262.704    24380262.5254   24380270.7864
        -0.000          -0.000
  -3814939.746 9  -2953496.38247  22773934.411    22773934.0334   22773939.9754
        -0.000          -0.000
  -1917540.766 9  -1476718.61345  24611337.092    24611336.1064   24611342.5964
        -0.000          -0.000
  -1957810.012 9  -1515355.67849  20810753.415    20810753.0954   20810758.4274
        -0.000          -0.000
   3025344.862 9   2346355.67146  23283063.226    23283062.5214   23283070.8604
        -0.000          -0.000
 97  3  6 17 12  0.0000000  0  9 18  2  3 31 29 27 10 19 16          0.000245119
  -1079807.823 9   -836117.84849  20151843.503    20151843.1094   20151848.0424
        -0.000          -0.000
  -4805754.009 9  -3730732.96645  24374938.913    24374938.2024   24374947.6454
        -0.000          -0.000
   -847898.512 9   -649886.47347  23151234.858    23151234.4144   23151239.9344
        -0.000          -0.000
  -3587299.479 9  -2777733.24247  22018450.725    22018450.1744   22018455.8044
        -0.000          -0.000
   3092611.081 9   2400738.34046  24393435.435    24393435.2064   24393443.5404
        -0.000          -0.000
  -3907996.762 9  -3026008.30347  22756226.342    22756225.8634   22756231.7084
        -0.000          -0.000
  -2004275.056 8  -1544303.79345  24594831.967    24594831.0634   24594837.7294
        -0.000          -0.000
  -2005213.229 9  -1552293.24449  20801732.901    20801732.5804   20801737.9044
        -0.000          -0.000
   3093654.192 9   2399583.61446  23296062.127    23296061.4624   23296069.7654
        -0.000          -0.000
 97  3  6 17 12 30.0000000  0  9 18  2  3 31 29 27 10 19 16          0.000226060
  -1099305.263 9   -851310.67649  20148133.239    20148132.8584   20148137.7924
        -0.000          -0.000
  -4922153.179 9  -3821433.58146  24352788.929    24352788.1864   24352797.4804
        -0.000          -0.000
   -860885.142 9   -660005.91647  23148763.648    23148763.2154   23148768.6784
        -0.000          -0.000
  -3664983.498 9  -2838266.22047  22003667.885    22003667.3984   22003673.0454
        -0.000          -0.000
   3161393.036 9   2454334.48246  24406524.359    24406524.2344   24406532.6094
        -0.000          -0.000
  -4001676.333 9  -3099005.35147  22738399.558    22738399.1344   22738405.0954
        -0.000          -0.000
  -2091235.467 8  -1612065.22345  24578283.788    24578283.0184   24578289.6954
        -0.000          -0.000
  -2053076.029 9  -1589588.93049  20792624.899    20792624.6054   20792629.9274
        -0.000          -0.000
   3161395.590 9   2452368.99446  23308952.971    23308952.2984   23308960.6284
        -0.000          -0.000
 97  3  6 17 13  0.0000000  0  9 18  2  3 31 29 27 10 19 16          0.000206621
  -1118868.592 9   -866554.84549  20144410.472    20144410.0954   20144415.0974
        -0.000          -0.000
  -5038954.471 9  -3912447.52946  24330562.351    24330561.7134   24330570.7604
        -0.000          -0.000
   -873909.949 9   -670155.11646  23146284.932    23146284.5514   23146290.1694
        -0.000          -0.000
  -3742738.578 9  -2898854.57947  21988871.619    21988871.0914   21988876.7044
        -0.000          -0.000
   3229797.911 9   2507636.77446  24419541.548    24419541.3934   24419549.6164
        -0.000          -0.000
  -4095910.792 9  -3172434.76647  22720467.433    22720466.9784   22720472.9544
        -0.000          -0.000
  -2178367.688 8  -1679960.41545  24561703.268    24561702.3474   24561709.1034
        -0.000          -0.000
  -2101324.057 9  -1627184.79249  20783443.645    20783443.3224   20783448.6464
        -0.000          -0.000
   3228630.451 9   2504759.67846  23321747.535    23321746.8414   23321755.0924
        -0.000          -0.000
 97  3  6 17 13 30.0000000  0  9 18  2  3 31 29 27 10 19 16          0.000186815
  -1138452.003 9   -881814.66049  20140683.872    20140683.5154   20140688.5064
        -0.000          -0.000
  -5156122.029 9  -4003746.85746  24308266.222    24308265.4384   24308274.5184
        -0.000          -0.000
   -886961.311 9   -680325.00246  23143801.249    23143800.8904   23143806.6294
        -0.000          -0.000
  -3820513.596 9  -2959458.46347  21974071.533    21974071.0074   21974076.5924
        -0.000          -0.000
   3297845.831 9   2560660.93446  24432490.875    24432490.7094   24432499.0244
        -0.000          -0.000
  -4190650.464 9  -3246257.84447  22702439.051    22702438.5694   22702444.5634
        -0.000          -0.000
  -2265640.291 8  -1747965.05945  24545095.361    24545094.8344   24545101.7054
        -0.000          -0.000
  -2149938.133 9  -1665065.88749  20774192.711    20774192.3764   20774197.7124
        -0.000          -0.000
   3295409.833 9   2556795.44246  23334455.328    23334454.5934   23334462.9064
        -0.000          -0.000
 97  3  6 17 14  0.0000000  0  9 18  2  3 31 29 27 10 19 16          0.000166656
  -1158026.738 9   -897067.71849  20136958.978    20136958.6044   20136963.5984
        -0.000          -0.000
  -5273626.895 9  -4095309.02846  24285905.795    24285905.0874   24285914.1024
        -0.000          -0.000
   -900020.336 9   -690500.82546  23141316.259    23141315.8504   23141321.5614
        -0.000          -0.000
  -3898274.149 9  -3020051.06747  21959274.166    21959273.6514   21959279.2434
        -0.000          -0.000
   3365538.150 9   2613408.03246  24445372.154    24445372.0614   24445380.6594
        -0.000          -0.000
  -4285863.557 9  -3320449.84847  22684320.440    22684320.0524   22684325.9754
        -0.000          -0.000
  -2353025.028 8  -1816057.07945  24528466.830    24528466.1774   24528472.7604
        -0.000          -0.000
  -2198901.183 9  -1703218.91049  20764875.269    20764874.9964   20764880.3374
        -0.000          -0.000
   3361783.777 9   2608515.27746  23347085.993    23347085.2494   23347093.5244
        -0.000          -0.000
 97  3  6 17 14 30.0000000  0  9 18  2  3 31 29 27 10 19 16          0.000146167
  -1177578.907 9   -912303.18649  20133238.362    20133237.9994   20133242.9884
        -0.000          -0.000
  -5391437.510 9  -4187109.43246  24263487.127    24263486.4684   24263495.5214
        -0.000          -0.000
   -913050.223 9   -700653.93146  23138836.586    23138836.1874   23138841.9694
        -0.000          -0.000
  -3976022.037 9  -3080633.82147  21944479.242    21944478.7244   21944484.2934
        -0.000          -0.000
   3432866.498 9   2665871.47946  24458184.366    24458184.3114   24458193.1324
        -0.000          -0.000
  -4381526.956 9  -3394992.71747  22666116.287    22666115.9344   22666121.8274
        -0.000          -0.000
  -2440471.191 8  -1884196.95845  24511826.618    24511825.7964   24511832.6834
        -0.000          -0.000
  -2248212.454 9  -1741643.26949  20755491.701    20755491.3924   20755496.7174
        -0.000          -0.000
   3427780.376 9   2659941.07146  23359644.795    23359644.0944   23359652.3194
        -0.000          -0.000
 97  3  6 17 15  0.0000000  0  9 18  2  3 31 29 27 10 19 16          0.000125419
  -1197021.692 9   -927453.42649  20129538.515    20129538.1614   20129543.1424
        -0.000          -0.000
  -5509448.503 9  -4279065.98046  24241030.346    24241029.6454   24241038.7894
        -0.000          -0.000
   -925943.332 9   -710700.47646  23136383.033    23136382.7454   23136388.4974
        -0.000          -0.000
  -4053673.381 9  -3141141.34247  21929702.678    21929702.1634   21929707.7004
        -0.000          -0.000
   3499910.652 9   2718113.44246  24470942.850    24470942.7484   24470951.3304
        -0.000          -0.000
  -4477529.276 9  -3469799.68947  22647847.702    22647847.2824   22647853.2024
        -0.000          -0.000
  -2527856.643 8  -1952289.54945  24495197.943    24495197.1374   24495203.7024
        -0.000          -0.000
  -2297781.030 9  -1780268.13749  20746059.149    20746058.8324   20746064.1584
        -0.000          -0.000
   3493498.910 9   2711150.19946  23372150.785    23372150.0874   23372158.3144
        -0.000          -0.000
 97  3  6 17 15 30.0000000  0  9 18  2  3 31 29 27 10 19 16          0.000104406
  -1216364.886 9   -942526.06249  20125857.683    20125857.3394   20125862.3224
        -0.000          -0.000
  -5627689.967 9  -4371202.11346  24218529.699    24218528.9624   24218538.2114
        -0.000          -0.000
   -938708.328 9   -720647.20846  23133954.023    23133953.6374   23133959.3934
        -0.000          -0.000
  -4131243.458 9  -3201585.54947  21914941.651    21914941.1224   21914946.6364
        -0.000          -0.000
   3566655.484 9   2770122.21746  24483644.259    24483644.2154   24483652.5184
        -0.000          -0.000
  -4573880.018 9  -3544878.16647  22629512.551    22629512.2944   22629518.1994
        -0.000          -0.000
  -2615182.737 8  -2020335.86045  24478580.555    24478579.6234   24478585.9354
        -0.000          -0.000
  -2347631.891 9  -1819112.96049  20736572.893    20736572.5594   20736577.8744
        -0.000          -0.000
   3558910.694 9   2762120.29446  23384598.460    23384597.6604   23384605.8834
        -0.000          -0.000
 97  3  6 17 16  0.0000000  0  9 18  2  3 31 29 27 10 19 16          0.000083141
  -1235614.293 9   -957525.61349  20122194.650    20122194.2854   20122199.2914
        -0.000          -0.000
  -5746154.162 8  -4463511.77746  24195986.468    24195985.7784   24195995.2354
        -0.000          -0.000
   -951324.860 9   -730478.25946  23131553.294    23131552.9294   23131558.4734
        -0.000          -0.000
  -4208731.266 9  -3261965.63147  21900196.091    21900195.5704   21900201.3044
        -0.000          -0.000
   3633130.971 9   2821921.14046  24496294.396    24496294.2984   24496302.5064
        -0.000          -0.000
  -4670572.461 9  -3620222.89347  22611112.718    22611112.3934   22611118.1704
        -0.000          -0.000
  -2702429.616 8  -2088320.43345  24461977.620    24461976.7764   24461983.2894
        -0.000          -0.000
  -2397736.354 9  -1858155.38849  20727038.375    20727038.0004   20727043.3084
        -0.000          -0.000
   3624014.436 9   2812850.36146  23396987.326    23396986.6634   23396994.8964
        -0.000          -0.000
 97  3  6 17 16 30.0000000  0  9 18  2  3 31 29 27 10 19 16          0.000061688
  -1254690.155 9   -972389.94149  20118564.670    20118564.3284   20118569.3014
        -0.000          -0.000
  -5864766.234 8  -4555936.67346  24173415.256    24173414.4444   24173424.1144
        -0.000          -0.000
   -963699.181 9   -740120.56946  23129198.531    23129198.2494   23129203.7634
        -0.000          -0.000
  -4286063.383 9  -3322224.41447  21885480.330    21885479.7674   21885485.4704
        -0.000          -0.000
   3699444.794 8   2873594.03045  24508913.652    24508913.6924   24508921.9384
        -0.000          -0.000
  -4767516.171 9  -3695763.42047  22592664.984    22592664.6244   22592670.4644
        -0.000          -0.000
  -2789506.874 8  -2156172.87645  24445407.300    24445406.6284   24445413.0854
        -0.000          -0.000
  -2447997.009 9  -1897319.54149  20717474.105    20717473.7314   20717479.0374
        -0.000          -0.000
   3688886.320 9   2863399.76246  23409332.185    23409331.4974   23409339.7214
        -0.000          -0.000
 97  3  6 17 17  0.0000000  0  9 18  2  3 31 29 27 10 19 16          0.000040035
  -1273596.303 9   -987122.02549  20114966.946    20114966.5984   20114971.5844
        -0.000          -0.000
  -5983548.043 9  -4648493.84446  24150811.627    24150810.9024   24150820.6254
        -0.000          -0.000
   -975852.436 9   -749590.64846  23126885.923    23126885.6004   23126891.0144
        -0.000          -0.000
  -4363236.308 9  -3382359.15247  21870794.879    21870794.3144   21870799.9984
        -0.000          -0.000
   3765608.524 8   2925149.98145  24521504.118    24521504.1274   24521512.6414
        -0.000          -0.000
  -4864719.988 9  -3771506.63947  22574167.659    22574167.2894   22574173.1344
        -0.000          -0.000
  -2876432.639 8  -2223907.24245  24428865.839    24428865.0394   24428871.6334
        -0.000          -0.000
  -2498405.541 9  -1936598.91849  20707881.681    20707881.3324   20707886.5904
        -0.000          -0.000
   3753499.095 9   2913747.25546  23421627.746    23421626.9954   23421635.2314
        -0.000          -0.000
 97  3  6 17 17 30.0000000  0  9 18  2  3 31 29 27 10 19 16          0.000018170
  -1292335.992 9  -1001724.40049  20111400.953    20111400.6174   20111405.5804
        -0.000          -0.000
  -6102510.536 9  -4741191.80346  24128173.604    24128173.0344   24128182.7654
        -0.000          -0.000
   -987812.157 9   -758909.91346  23124610.191    23124609.7764   23124615.2354
        -0.000          -0.000
  -4440251.713 9  -3442371.12947  21856139.324    21856138.7504   21856144.4184
        -0.000          -0.000
   3831620.075 8   2976587.36645  24534065.590    24534065.6004   24534074.1894
        -0.000          -0.000
  -4962187.099 9  -3847455.00447  22555620.334    22555619.9094   22555625.7144
        -0.000          -0.000
  -2963221.080 8  -2291534.58745  24412350.268    24412349.5834   24412356.3744
        -0.000          -0.000
  -2548956.011 9  -1975988.89049  20698262.231    20698261.8814   20698267.1514
        -0.000          -0.000
   3817835.578 9   2963879.45846  23433870.695    23433869.9204   23433878.1524
        -0.000          -0.000
 97  3  6 17 18  0.0000000  0  9 18  2  3 31 29 27 10 19 16         -0.000003931
  -1310948.846 9  -1016227.94349  20107859.082    20107858.7394   20107863.6794
        -0.000          -0.000
  -6221670.826 9  -4834043.91246  24105498.375    24105497.6514   24105507.2554
        -0.000          -0.000
   -999622.081 9   -768112.45646  23122362.808    23122362.4014   23122367.8824
        -0.000          -0.000
  -4517151.625 9  -3502293.11147  21841505.725    21841505.1314   21841510.8224
        -0.000          -0.000
   3897434.684 8   3027871.26645  24546589.911    24546589.8584   24546598.6494
        -0.000          -0.000
  -5059952.190 9  -3923635.56547  22537016.377    22537015.8394   22537021.5934
        -0.000          -0.000
  -3049918.629 8  -2359091.17445  24395852.370    24395851.7034   24395858.6144
        -0.000          -0.000
  -2599680.972 9  -2015514.83549  20688609.607    20688609.2344   20688614.5374
        -0.000          -0.000
   3881876.592 9   3013781.40746  23446057.400    23446056.6324   23446064.9614
        -0.000          -0.000
 97  3  6 17 18 29.9990000  0  9 18  2  3 31 29 27 10 19 16         -0.000026223
  -1329342.805 9  -1030560.91949  20104358.869    20104358.5324   20104363.4614
        -0.000          -0.000
  -6340940.367 9  -4926981.12446  24082802.076    24082801.3534   24082810.8984
        -0.000          -0.000
  -1011190.427 9   -777126.77246  23120161.457    23120161.0754   23120166.6054
        -0.000          -0.000
  -4593846.117 9  -3562055.03447  21826911.241    21826910.6844   21826916.3554
        -0.000          -0.000
   3963111.394 8   3079047.79745  24559088.322    24559088.2364   24559096.9514
        -0.000          -0.000
  -5157931.530 9  -3999983.07847  22518371.473    22518370.9664   22518376.7514
        -0.000          -0.000
  -3136453.209 8  -2426520.73145  24379385.474    24379384.6434   24379391.5864
        -0.000          -0.000
  -2650521.575 9  -2055130.89149  20678934.910    20678934.5614   20678939.8324
        -0.000          -0.000
   3945698.757 9   3063512.83946  23458202.395    23458201.7144   23458210.1054
        -0.000          -0.000
 97  3  6 17 18 59.9990000  0  9 18  2  3 31 29 27 10 19 16         -0.000048699
  -1347491.515 9  -1044702.78649  20100905.287    20100904.9334   20100909.8874
        -0.000          -0.000
  -6460301.771 9  -5019989.93546  24060088.401    24060087.6584   24060097.0914
        -0.000          -0.000
  -1022500.360 9   -785939.72346  23118009.231    23118008.8064   23118014.4704
        -0.000          -0.000
  -4670300.947 9  -3621630.19847  21812362.406    21812361.8364   21812367.4864
        -0.000          -0.000
   4028664.396 8   3130127.74044  24571562.345    24571562.4784   24571570.9924
        -0.000          -0.000
  -5256116.634 9  -4076490.92447  22499687.480    22499687.0214   22499692.7314
        -0.000          -0.000
  -3222813.300 9  -2493814.29245  24362952.139    24362951.1394   24362957.8934
        -0.000          -0.000
  -2701466.707 9  -2094828.39449  20669240.373    20669240.0234   20669245.2764
        -0.000          -0.000
   4009320.183 9   3113087.85946  23470309.186    23470308.5234   23470317.0144
        -0.000          -0.000
 97  3  6 17 19 29.9990000  0  8 18  2  3 31 27 10 19 16            -0.000071370
  -1365408.298 9  -1058663.93349  20097495.843    20097495.5034   20097500.4734
        -0.000          -0.000
  -6579760.720 9  -5113074.76246  24037356.226    24037355.4354   24037364.6624
        -0.000          -0.000
  -1033554.490 9   -794553.31146  23115905.764    23115905.3624   23115910.8914
        -0.000          -0.000
  -4746520.451 9  -3681021.99347  21797858.279    21797857.7174   21797863.4224
        -0.000          -0.000
  -5354535.607 9  -4153181.00147  22480958.939    22480958.4664   22480964.1694
        -0.000          -0.000
  -3309027.897 8  -2560994.53745  24346546.140    24346545.2274   24346551.9944
        -0.000          -0.000
  -2752522.232 9  -2134611.92349  20659524.780    20659524.4494   20659529.7384
        -0.000          -0.000
   4072741.314 9   3162506.77946  23482377.810    23482377.1894   23482385.7904
        -0.000          -0.000
 97  3  6 17 19 59.9990000  0  8 18  2  3 31 27 10 19 16            -0.000094180
  -1382993.533 9  -1072366.74049  20094149.470    20094149.1304   20094154.1224
        -0.000          -0.000
  -6699230.241 9  -5206167.82046  24014621.901    24014621.0944   24014630.2054
        -0.000          -0.000
  -1044251.051 9   -802888.28046  23113870.189    23113869.7314   23113875.4084
        -0.000          -0.000
  -4822407.193 9  -3740154.49647  21783417.413    21783416.8544   21783422.6344
        -0.000          -0.000
  -5453116.373 9  -4229997.16347  22462199.614    22462199.1734   22462204.9124
        -0.000          -0.000
  -3395002.515 9  -2627987.78745  24330185.912    24330184.9634   24330191.5144
        -0.000          -0.000
  -2803614.834 9  -2174424.34449  20649802.257    20649801.8894   20649807.1614
        -0.000          -0.000
   4136051.007 9   3211838.87446  23494425.258    23494424.6984   23494433.3574
        -0.000          -0.000
 97  3  6 17 20 29.9990000  0  8 18  2  3 31 27 10 19 16            -0.000117110
  -1400227.065 9  -1085795.48149  20090870.092    20090869.7504   20090874.6974
        -0.000          -0.000
  -6818707.748 9  -5299267.11846  23991886.047    23991885.2244   23991894.2184
        -0.000          -0.000
  -1054584.000 9   -810939.89446  23111903.851    23111903.4724   23111909.1104
        -0.000          -0.000
  -4897928.439 9  -3799002.19847  21769046.140    21769045.6234   21769051.3934
        -0.000          -0.000
  -5551857.455 9  -4306938.23647  22443409.815    22443409.3814   22443415.0544
        -0.000          -0.000
  -3480709.899 9  -2694772.77146  24313876.554    24313875.3654   24313882.0074
        -0.000          -0.000
  -2854731.422 9  -2214255.45449  20640075.210    20640074.7934   20640080.0454
        -0.000          -0.000
   4199248.292 9   3261083.37146  23506451.458    23506450.8734   23506459.5654
        -0.000          -0.000
 97  3  6 17 20 59.9990000  0  8 18  2  3 31 27 10 19 16            -0.000140176
  -1417125.900 9  -1098963.42549  20087654.336    20087654.0064   20087658.9734
        -0.000          -0.000
  -6938192.970 9  -5392372.42346  23969148.829    23969148.0044   23969156.8264
        -0.000          -0.000
  -1064589.036 9   -818736.01046  23110000.000    23109999.6304   23110005.2894
        -0.000          -0.000
  -4973099.651 9  -3857577.15548  21754741.579    21754741.0664   21754746.7714
        -0.000          -0.000
  -5650765.988 9  -4384009.79847  22424588.093    22424587.6714   22424593.2874
        -0.000          -0.000
  -3566149.785 9  -2761349.32946  24297617.732    24297616.6604   24297623.3234
        -0.000          -0.000
  -2905854.712 9  -2254091.79249  20630346.674    20630346.3184   20630351.5944
        -0.000          -0.000
   4262319.901 9   3310229.93046  23518453.632    23518453.0334   23518461.8214
        -0.000          -0.000
 97  3  6 17 21 29.9990000  0  8 18  2  3 31 27 10 19 16            -0.000163378
  -1433687.393 9  -1111868.50049  20084502.876    20084502.5484   20084507.4914
        -0.000          -0.000
  -7057672.690 9  -5485473.44246  23946412.580    23946411.7044   23946420.5264
        -0.000          -0.000
  -1074273.620 9   -826282.42647  23108157.187    23108156.6864   23108162.3174
        -0.000          -0.000
  -5047931.611 9  -3915887.75048  21740501.585    21740501.0344   21740506.7104
        -0.000          -0.000
  -5749832.619 9  -4461204.54347  22405736.393    22405735.9724   22405741.5684
        -0.000          -0.000
  -3651308.634 9  -2827706.89346  24281412.334    24281411.4394   24281418.0764
        -0.000          -0.000
  -2956974.609 9  -2293925.47849  20620618.878    20620618.5534   20620623.8214
        -0.000          -0.000
   4325262.753 9   3359276.16946  23530431.328    23530430.7414   23530439.5434
        -0.000          -0.000
 97  3  6 17 21 59.9990000  0  8 18  2  3 31 27 10 19 16            -0.000186724
  -1449939.465 9  -1124532.46849  20081410.242    20081409.8994   20081414.8224
        -0.000          -0.000
  -7177158.389 9  -5578579.12846  23923675.054    23923674.3054   23923683.0004
        -0.000          -0.000
  -1083666.834 9   -833601.80147  23106369.524    23106369.1634   23106374.9174
        -0.000          -0.000
  -5122451.020 9  -3973954.78748  21726320.936    21726320.4414   21726326.1164
        -0.000          -0.000
  -5849049.226 9  -4538516.15247  22386856.052    22386855.5924   22386861.2934
        -0.000          -0.000
  -3736185.007 8  -2893844.36446  24265260.703    24265259.9904   24265266.8874
        -0.000          -0.000
  -3008125.449 9  -2333783.27549  20610885.145    20610884.8614   20610890.1394
        -0.000          -0.000
   4388046.689 9   3408198.56146  23542378.814    23542378.1804   23542386.9774
        -0.000          -0.000
 97  3  6 17 22 29.9990000  0  8 18  2  3 31 27 10 19 16            -0.000210171
  -1465833.117 9  -1136917.15049  20078385.809    20078385.4734   20078390.3814
        -0.000          -0.000
  -7296577.074 9  -5671632.57346  23900950.288    23900949.6074   23900958.4304
        -0.000          -0.000
  -1092702.559 9   -840642.61547  23104650.118    23104649.7434   23104655.4674
        -0.000          -0.000
  -5196597.243 9  -4031731.03348  21712211.413    21712210.8794   21712216.5364
        -0.000          -0.000
  -5948324.837 9  -4615873.75947  22367964.525    22367964.0914   22367969.7344
        -0.000          -0.000
  -3820723.769 9  -2959718.72246  24249173.568    24249172.7674   24249179.5814
        -0.000          -0.000
  -3059234.511 9  -2373608.52449  20601159.387    20601159.1244   20601164.4514
        -0.000          -0.000
   4450731.912 9   3457044.04646  23554307.329    23554306.7534   23554315.6734
        -0.000          -0.000
 97  3  6 17 22 59.9990000  0  8 18  2  3 31 27 10 19 16            -0.000233711
  -1481346.035 9  -1149005.15049  20075433.791    20075433.4674   20075438.3724
        -0.000          -0.000
  -7415907.882 9  -5764617.54346  23878242.230    23878241.6484   23878250.5494
        -0.000          -0.000
  -1101350.539 9   -847381.29347  23103004.504    23103004.1434   23103009.8754
        -0.000          -0.000
  -5270369.436 9  -4089215.82948  21698173.072    21698172.5584   21698178.1874
        -0.000          -0.000
  -6047626.728 9  -4693251.82047  22349067.962    22349067.5434   22349073.1824
        -0.000          -0.000
  -3904914.410 9  -3025321.85946  24233152.835    24233152.0174   24233158.6994
        -0.000          -0.000
  -3110291.734 9  -2413393.37149  20591443.533    20591443.2604   20591448.6024
        -0.000          -0.000
   4513323.904 9   3505816.86946  23566218.169    23566217.6864   23566226.6394
        -0.000          -0.000
 97  3  6 17 23 29.9990000  0  8 18  2  3 31 27 10 19 16            -0.000257333
  -1496481.042 9  -1160798.67649  20072553.742    20072553.3904   20072558.2914
        -0.000          -0.000
  -7535161.793 9  -5857542.59346  23855548.879    23855548.2584   23855557.2204
        -0.000          -0.000
  -1109590.715 9   -853802.21846  23101436.429    23101436.0294   23101441.8584
        -0.000          -0.000
  -5343748.042 9  -4146393.93647  21684209.564    21684209.0154   21684214.6114
        -0.000          -0.000
  -6146959.583 9  -4770654.02547  22330165.498    22330165.0984   22330170.7524
        -0.000          -0.000
  -3988759.126 9  -3090655.42246  24217197.737    24217196.8934   24217203.5784
        -0.000          -0.000
  -3161319.234 9  -2453155.06049  20581733.337    20581733.0734   20581738.3804
        -0.000          -0.000
   4575820.859 9   3554515.64646  23578111.053    23578110.5034   23578119.5614
        -0.000          -0.000
 97  3  6 17 23 59.9990000  0  8 18  2  3 31 27 10 19 16            -0.000281049
  -1511278.106 9  -1172328.87149  20069737.968    20069737.6204   20069742.5494
        -0.000          -0.000
  -7654377.142 9  -5950437.58646  23832862.841    23832862.2134   23832871.1724
        -0.000          -0.000
  -1117441.200 9   -859919.46346  23099942.532    23099942.1424   23099947.9684
        -0.000          -0.000
  -5416748.712 9  -4203277.54348  21670317.940    21670317.4314   21670323.1204
        -0.000          -0.000
  -6246352.058 9  -4848102.68047  22311251.797    22311251.3234   22311256.9664
        -0.000          -0.000
  -4072291.589 9  -3155745.65546  24201302.150    24201301.2574   24201307.9214
        -0.000          -0.000
  -3212355.958 9  -2492923.93549  20572021.425    20572021.1564   20572026.4414
        -0.000          -0.000
   4638196.378 9   3603119.82546  23589980.962    23589980.3764   23589989.3594
        -0.000          -0.000
 97  3  6 17 24 29.9990000  0  8 18  2  3 31 27 10 19 16            -0.000304814
  -1525645.849 9  -1183524.52949  20067003.864    20067003.5524   20067008.4804
        -0.000          -0.000
  -7773478.562 9  -6043243.82146  23810198.540    23810197.8944   23810206.8764
        -0.000          -0.000
  -1124817.612 9   -865667.32946  23098538.677    23098538.3754   23098544.2294
        -0.000          -0.000
  -5489287.721 9  -4259801.42348  21656514.186    21656513.6584   21656519.3944
        -0.000          -0.000
  -6345741.912 9  -4925549.29647  22292338.334    22292338.0154   22292343.7034
        -0.000          -0.000
  -4155437.797 9  -3220534.94346  24185480.025    24185479.1414   24185485.6544
        -0.000          -0.000
  -3263310.751 9  -2532628.97049  20562325.085    20562324.7994   20562330.0524
        -0.000          -0.000
   4700520.914 9   3651684.25546  23601841.170    23601840.5954   23601849.5154
        -0.000          -0.000
 97  3  6 17 24 59.9990000  0  8 18  2  3 31 27 10 19 16            -0.000328603
  -1539546.320 9  -1194356.08549  20064358.734    20064358.4144   20064363.3604
        -0.000          -0.000
  -7892434.339 9  -6135936.53246  23787561.899    23787561.1444   23787570.2994
        -0.000          -0.000
  -1131690.014 9   -871022.42246  23097231.090    23097230.6804   23097236.2614
        -0.000          -0.000
  -5561323.281 9  -4315933.01048  21642806.275    21642805.7674   21642811.5004
        -0.000          -0.000
  -6445113.986 9  -5002982.05547  22273428.514    22273428.1864   22273433.8234
        -0.000          -0.000
  -4238150.492 9  -3284986.42246  24169740.192    24169739.4074   24169746.0314
        -0.000          -0.000
  -3314140.582 9  -2572236.63249  20552652.571    20552652.2554   20552657.4704
        -0.000          -0.000
   4762841.685 9   3700245.74646  23613700.697    23613700.0354   23613708.9324
        -0.000          -0.000
 97  3  6 17 25 29.9990000  0  8 18  2  3 31 27 10 19 16            -0.000352434
  -1553017.988 9  -1204853.50449  20061795.210    20061794.8784   20061799.8144
        -0.000          -0.000
  -8011283.769 9  -6228546.38946  23764945.531    23764944.8214   23764953.9914
        -0.000          -0.000
  -1138099.616 9   -876016.92646  23096011.243    23096010.8844   23096016.5474
        -0.000          -0.000
  -5632882.254 9  -4371693.22448  21629189.020    21629188.4944   21629194.2424
        -0.000          -0.000
  -6544509.598 9  -5080433.16647  22254514.174    22254513.8114   22254519.4274
        -0.000          -0.000
  -4320454.913 9  -3349119.71446  24154078.552    24154077.4904   24154084.1664
        -0.000          -0.000
  -3364867.831 9  -2611764.35749  20542999.554    20542999.1974   20543004.4004
        -0.000          -0.000
   4825140.498 9   3748790.14146  23625555.996    23625555.3584   23625564.1314
        -0.000          -0.000
 97  3  6 17 25 59.9990000  0  8 18  2  3 31 27 10 19 16            -0.000376364
  -1566099.803 9  -1215047.13849  20059305.809    20059305.5024   20059310.4524
        -0.000          -0.000
  -8130093.470 9  -6321125.28046  23742336.885    23742336.0434   23742345.1414
        -0.000          -0.000
  -1144119.743 9   -880707.93446  23094865.590    23094865.2284   23094870.9744
        -0.000          -0.000
  -5704050.358 9  -4427148.86248  21615646.106    21615645.6004   21615651.3244
        -0.000          -0.000
  -6643996.054 9  -5157955.04847  22235582.492    22235582.1574   22235587.7704
        -0.000          -0.000
  -4402417.673 9  -3412986.83646  24138481.261    24138480.3584   24138487.2214
        -0.000          -0.000
  -3415552.748 9  -2651259.09249  20533354.496    20533354.1454   20533359.3594
        -0.000          -0.000
   4887347.399 9   3797262.91846  23637393.795    23637393.1334   23637401.9264
        -0.000          -0.000
 97  3  6 17 26 29.9990000  0  8 18  2  3 31 27 10 19 16            -0.000400367
  -1578730.229 9  -1224889.04649  20056902.367    20056902.0564   20056906.9844
        -0.000          -0.000
  -8248810.019 9  -6413631.59146  23719745.878    23719745.0924   23719754.1724
        -0.000          -0.000
  -1149712.381 9   -885065.83746  23093801.289    23093801.0044   23093806.7684
        -0.000          -0.000
  -5774781.886 9  -4482264.31548  21602186.430    21602185.9084   21602191.5434
        -0.000          -0.000
  -6743527.953 9  -5235512.35347  22216642.179    22216641.8194   22216647.4914
        -0.000          -0.000
  -4483990.934 9  -3476550.42346  24122958.528    24122957.5534   24122964.2464
        -0.000          -0.000
  -3466149.946 9  -2690685.48149  20523726.152    20523725.8504   20523731.0754
        -0.000          -0.000
   4949498.993 9   3845692.60646  23649220.957    23649220.2854   23649229.0364
        -0.000          -0.000
 97  3  6 17 26 59.9990000  0  8 18  2  3 31 27 10 19 16            -0.000424392
  -1590848.580 9  -1234331.93749  20054596.373    20054596.0524   20054600.9744
        -0.000          -0.000
  -8367353.876 9  -6506003.34646  23697187.867    23697187.0384   23697195.9464
        -0.000          -0.000
  -1154803.043 9   -889032.58646  23092832.636    23092832.2954   23092838.1654
        -0.000          -0.000
  -5845002.220 9  -4536981.43648  21588824.006    21588823.4694   21588829.0584
        -0.000          -0.000
  -6843029.183 9  -5313045.75547  22197707.743    22197707.3174   22197713.0064
        -0.000          -0.000
  -4565095.539 8  -3539748.82246  24107524.592    24107523.6394   24107530.6134
        -0.000          -0.000
  -3516589.769 9  -2729989.23849  20514127.762    20514127.4754   20514132.6964
        -0.000          -0.000
   5011669.164 9   3894136.74846  23661051.607    23661050.9954   23661059.8874
        -0.000          -0.000
 97  3  6 17 27 29.9990000  0  8 18  2  3 31 27 10 19 16            -0.000448454
  -1602465.892 9  -1243384.40449  20052385.700    20052385.3824   20052390.2914
        -0.000          -0.000
  -8485729.137 9  -6598243.73446  23674661.732    23674660.9134   23674669.7154
        -0.000          -0.000
  -1159407.296 9   -892620.30446  23091956.559    23091956.1524   23091961.9904
        -0.000          -0.000
  -5914731.936 9  -4591316.24848  21575554.783    21575554.2854   21575559.8924
        -0.000          -0.000
  -6942508.340 9  -5390561.96047  22178777.496    22178777.1324   22178782.7674
        -0.000          -0.000
  -4645752.173 9  -3602598.14346  24092175.803    24092175.1134   24092182.2024
        -0.000          -0.000
  -3566891.661 9  -2769185.51349  20504555.587    20504555.3124   20504560.5404
        -0.000          -0.000
   5073814.264 9   3942561.32246  23672877.379    23672876.7594   23672886.0014
        -0.000          -0.000
 97  3  6 17 27 59.9990000  0  8 18  2  3 31 27 10 19 16            -0.000472555
  -1613592.582 9  -1252054.57049  20050268.350    20050268.0184   20050272.9404
        -0.000          -0.000
  -8603919.442 9  -6690339.97946  23652170.687    23652169.8944   23652178.7154
        -0.000          -0.000
  -1163532.512 9   -895834.76947  23091171.498    23091171.1254   23091177.0374
        -0.000          -0.000
  -5983957.705 9  -4645258.38048  21562381.613    21562381.0844   21562386.6454
        -0.000          -0.000
  -7041960.274 9  -5468056.94847  22159852.550    22159852.0844   22159857.7514
        -0.000          -0.000
  -4725968.587 9  -3665104.46246  24076911.402    24076910.6114   24076917.5394
        -0.000          -0.000
  -3617053.672 9  -2808272.79149  20495010.066    20495009.8004   20495015.0564
        -0.000          -0.000
   5135920.550 9   3990955.66746  23684695.771    23684695.2374   23684704.6234
        -0.000          -0.000
 97  3  6 17 28 29.9990000  0  8 18  2  3 31 27 10 19 16            -0.000496678
  -1624253.544 9  -1260361.83249  20048239.666    20048239.3334   20048244.2614
        -0.000          -0.000
  -8721909.178 9  -6782279.96346  23629717.987    23629717.2574   23629725.9514
        -0.000          -0.000
  -1167174.623 9   -898672.76547  23090478.449    23090478.1154   23090483.9974
        -0.000          -0.000
  -6052648.065 9  -4698783.31648  21549310.269    21549309.7534   21549315.3054
        -0.000          -0.000
  -7141374.083 9  -5545522.23947  22140934.465    22140934.1804   22140939.9244
        -0.000          -0.000
  -4805728.448 9  -3727255.01446  24061733.816    24061732.9384   24061739.6354
        -0.000          -0.000
  -3667069.219 9  -2847245.94349  20485492.434    20485492.1694   20485497.4694
        -0.000          -0.000
   5197996.496 9   4039326.34346  23696508.379    23696507.8494   23696517.4814
        -0.000          -0.000
 97  3  6 17 28 59.9990000  0  8 18  2  3 31 27 10 19 16            -0.000520766
  -1634380.188 9  -1268252.74149  20046312.653    20046312.3374   20046317.2864
        -0.000          -0.000
  -8839619.150 9  -6874001.94246  23607318.558    23607317.8244   23607326.4164
        -0.000          -0.000
  -1170249.789 9   -901068.99346  23089893.253    23089892.9604   23089898.8544
        -0.000          -0.000
  -6120718.497 9  -4751825.18348  21536356.920    21536356.3914   21536361.8924
        -0.000          -0.000
  -7240681.884 9  -5622904.92547  22122037.105    22122036.6924   22122042.2234
        -0.000          -0.000
  -4884949.179 8  -3788985.48746  24046658.793    24046657.8654   24046664.3634
        -0.000          -0.000
  -3716849.697 9  -2886035.91949  20476019.463    20476019.2274   20476024.5294
        -0.000          -0.000
   5260125.073 9   4087738.05246  23708331.023    23708330.6744   23708340.3344
        -0.000          -0.000
 97  3  6 17 29 29.9990000  0  8 18  2  3 31 27 10 19 16            -0.000544816
  -1643939.496 9  -1275701.57549  20044493.600    20044493.2864   20044498.2084
        -0.000          -0.000
  -8957042.879 9  -6965500.87446  23584973.436    23584972.7534   23584981.2744
        -0.000          -0.000
  -1172752.587 9   -903019.21946  23089417.075    23089416.7104   23089422.5334
        -0.000          -0.000
  -6188146.347 9  -4804366.34848  21523525.775    21523525.2734   21523530.7684
        -0.000          -0.000
  -7339872.162 9  -5700196.02747  22103161.771    22103161.3104   22103166.9734
        -0.000          -0.000
  -4963607.741 9  -3850277.88846  24031690.334    24031689.6174   24031696.2664
        -0.000          -0.000
  -3766376.302 9  -2924628.07949  20466594.864    20466594.6614   20466599.9424
        -0.000          -0.000
   5322323.197 9   4136203.95146  23720167.358    23720166.7504   23720176.4544
        -0.000          -0.000
 97  3  6 17 29 59.9990000  0  8 18  2  3 31 27 10 19 16            -0.000568844
  -1652976.290 9  -1282743.24849  20042774.009    20042773.6764   20042778.5734
        -0.000          -0.000
  -9074242.149 9  -7056824.90046  23562671.158    23562670.4324   23562678.8904
        -0.000          -0.000
  -1174713.394 9   -904547.11846  23089043.683    23089043.4374   23089049.3114
        -0.000          -0.000
  -6254961.657 9  -4856430.20348  21510811.333    21510810.7864   21510816.2174
        -0.000          -0.000
  -7438990.434 9  -5777431.02747  22084300.067    22084299.6974   22084305.3734
        -0.000          -0.000
  -5041741.721 8  -3911161.51045  24016822.272    24016821.2214   24016828.1064
        -0.000          -0.000
  -3815690.743 9  -2963054.90949  20457210.675    20457210.4284   20457215.7044
        -0.000          -0.000
   5384570.396 9   4184708.08846  23732012.723    23732012.1204   23732021.8824
        -0.000          -0.000
 97  3  6 17 30 29.9990000  0  8 18  2  3 31 27 10 19 16            -0.000592874
  -1661522.047 9  -1289402.30549  20041147.813    20041147.4924   20041152.3834
        -0.000          -0.000
  -9191271.235 9  -7148016.33846  23540401.223    23540400.4904   23540408.9364
        -0.000          -0.000
  -1176157.944 9   -905672.74846  23088768.855    23088768.5084   23088774.3944
        -0.000          -0.000
  -6321216.129 9  -4908057.04248  21498203.507    21498202.9644   21498208.3704
        -0.000          -0.000
  -7538080.254 9  -5854643.84647  22065443.933    22065443.5414   22065449.0854
        -0.000          -0.000
  -5119387.489 8  -3971664.74045  24002046.453    24002045.5894   24002052.5494
        -0.000          -0.000
  -3864844.474 9  -3001356.52249  20447856.988    20447856.7734   20447862.0684
        -0.000          -0.000
   5446824.248 9   4233217.40846  23743859.447    23743858.9184   23743868.5214
        -0.000          -0.000
 97  3  6 17 30 59.9990000  0  8 18  2  3 31 27 10 19 16            -0.000616890
  -1669530.027 9  -1295642.30449  20039623.995    20039623.6474   20039628.5214
        -0.000          -0.000
  -9308090.828 9  -7239044.50646  23518171.153    23518170.4504   23518178.8114
        -0.000          -0.000
  -1177048.400 9   -906366.62446  23088599.395    23088599.0264   23088604.9614
        -0.000          -0.000
  -6386887.798 9  -4959229.75348  21485706.594    21485706.0454   21485711.5034
        -0.000          -0.000
  -7637099.498 9  -5931801.68147  22046601.190    22046600.7664   22046606.3644
        -0.000          -0.000
  -5196526.417 8  -4031773.01945  23987367.513    23987366.5724   23987373.4934
        -0.000          -0.000
  -3913794.449 9  -3039499.35649  20438542.097    20438541.9124   20438547.2024
        -0.000          -0.000
   5509115.209 9   4281755.65446  23755713.428    23755712.6914   23755722.3324
        -0.000          -0.000
 97  3  6 17 31 29.9990000  0  8 18  2  3 31 27 10 19 16            -0.000640887
  -1676985.082 9  -1301451.46149  20038205.360    20038205.0094   20038209.8834
        -0.000          -0.000
  -9424682.773 9  -7329895.30246  23495984.417    23495983.6794   23495992.1024
        -0.000          -0.000
  -1177371.163 9   -906618.16046  23088537.970    23088537.6184   23088543.6024
        -0.000          -0.000
  -6451960.330 9  -5009935.60148  21473323.687    21473323.1284   21473328.6104
        -0.000          -0.000
  -7736006.397 9  -6008871.97447  22027779.762    22027779.3854   22027784.9954
        -0.000          -0.000
  -5273152.019 9  -4091481.31145  23972786.006    23972785.1774   23972792.2454
        -0.000          -0.000
  -3962530.734 9  -3077475.68349  20429267.931    20429267.7424   20429272.9934
        -0.000          -0.000
   5571459.683 9   4330335.58946  23767577.262    23767576.6094   23767586.2344
        -0.000          -0.000
 97  3  6 17 31 59.9990000  0  8 18  2  3 31 27 10 19 16            -0.000664880
  -1683940.387 9  -1306871.19849  20036881.831    20036881.5054   20036886.3904
        -0.000          -0.000
  -9541067.173 9  -7420584.36346  23473837.096    23473836.3514   23473844.7674
        -0.000          -0.000
  -1177153.050 9   -906448.21746  23088579.575    23088579.2394   23088585.1534
        -0.000          -0.000
  -6516465.780 9  -5060199.56248  21461048.655    21461048.1164   21461053.6204
        -0.000          -0.000
  -7834815.424 9  -6085865.99547  22008977.180    22008976.7124   22008982.2644
        -0.000          -0.000
  -5349313.345 8  -4150827.83445  23958293.099    23958292.2894   23958299.2764
        -0.000          -0.000
  -4011085.711 9  -3115310.72349  20420028.290    20420028.0594   20420033.3124
        -0.000          -0.000
   5633823.113 9   4378930.32046  23779444.756    23779444.1344   23779453.7214
        -0.000          -0.000
 97  3  6 17 32 29.9990000  0  8 18  2  3 31 27 10 19 16            -0.000688850
  -1690338.320 9  -1311856.62349  20035664.337    20035663.9884   20035668.9044
        -0.000          -0.000
  -9657173.072 9  -7511056.42046  23451742.911    23451742.1374   23451750.4674
        -0.000          -0.000
  -1176365.103 9   -905834.25546  23088729.570    23088729.2654   23088735.1114
        -0.000          -0.000
  -6580356.321 9  -5109984.37748  21448890.688    21448890.1324   21448895.6214
        -0.000          -0.000
  -7933476.415 9  -6162744.66647  21990202.517    21990202.0704   21990207.6484
        -0.000          -0.000
  -5424957.313 8  -4209771.21345  23943898.536    23943897.6454   23943904.4524
        -0.000          -0.000
  -4059401.953 9  -3152959.74249  20410834.028    20410833.8144   20410839.0814
        -0.000          -0.000
   5696231.366 9   4427559.95246  23791320.740    23791320.2024   23791329.7774
        -0.000          -0.000
 97  3  6 17 32 59.9990000  0  8 18  2  3 31 27 10 19 16            -0.000712817
  -1696200.322 9  -1316424.43849  20034548.845    20034548.5014   20034553.4204
        -0.000          -0.000
  -9773024.742 9  -7601330.36946  23429696.892    23429696.1894   23429704.6574
        -0.000          -0.000
  -1175045.494 9   -904805.99546  23088980.893    23088980.5014   23088986.1614
        -0.000          -0.000
  -6643653.882 9  -5159307.12848  21436845.503    21436844.9614   21436850.4444
        -0.000          -0.000
  -8032019.156 9  -6239531.19247  21971450.391    21971450.0224   21971455.6074
        -0.000          -0.000
  -5500104.311 8  -4268327.33245  23929598.424    23929597.6944   23929604.4114
        -0.000          -0.000
  -4107489.964 9  -3190430.92249  20401683.204    20401682.9694   20401688.2054
        -0.000          -0.000
   5758662.992 9   4476207.81646  23803201.220    23803200.6474   23803210.1814
        -0.000          -0.000
 97  3  6 17 33 29.9990000  0  8 18  2  3 31 27 10 19 16            -0.000736761
  -1701480.612 9  -1320538.96749  20033544.050    20033543.7064   20033548.6524
        -0.000          -0.000
  -9888603.684 9  -7691391.81546  23407702.831    23407702.0854   23407710.7214
        -0.000          -0.000
  -1173163.639 9   -903339.62246  23089339.043    23089338.6334   23089344.3194
        -0.000          -0.000
  -6706319.372 9  -5208137.35448  21424920.675    21424920.1164   21424925.5644
        -0.000          -0.000
  -8130411.876 9  -6316200.82247  21952726.968    21952726.5244   21952732.1174
        -0.000          -0.000
  -5574698.237 9  -4326452.48845  23915403.826    23915403.0614   23915409.6694
        -0.000          -0.000
  -4155312.607 9  -3227695.31349  20392582.871    20392582.6194   20392587.8174
        -0.000          -0.000
   5821146.393 9   4524896.01445  23815091.524    23815091.0454   23815100.4814
        -0.000          -0.000
 97  3  6 17 33 59.9990000  0  8 18  2  3 31 27 10 19 16            -0.000760687
  -1706175.661 9  -1324197.46749  20032650.644    20032650.3154   20032655.2514
        -0.000          -0.000
 -10003922.775 9  -7781250.76346  23385758.155    23385757.4474   23385766.2864
        -0.000          -0.000
  -1170725.829 9   -901440.03246  23089802.813    23089802.4624   23089808.3104
        -0.000          -0.000
  -6768356.082 9  -5256477.61648  21413115.450    21413114.8894   21413120.3144
        -0.000          -0.000
  -8228696.057 9  -6392785.87247  21934024.032    21934023.6414   21934029.2344
        -0.000          -0.000
  -5648728.963 8  -4384138.79545  23901316.408    23901315.4444   23901322.0494
        -0.000          -0.000
  -4202877.997 9  -3264759.25249  20383531.487    20383531.2254   20383536.4424
        -0.000          -0.000
   5883657.767 9   4573606.01845  23826987.250    23826986.7294   23826995.9904
        -0.000          -0.000
 97  3  6 17 34 29.9990000  0  8 18  2  3 31 27 10 19 16            -0.000784588
  -1710258.880 9  -1327379.21849  20031873.682    20031873.3434   20031878.2694
        -0.000          -0.000
 -10118974.108 9  -7870901.07846  23363864.443    23363863.8144   23363872.7534
        -0.000          -0.000
  -1167728.516 9   -899104.45346  23090373.099    23090372.8074   23090378.7244
        -0.000          -0.000
  -6829747.660 9  -5304315.18648  21401432.927    21401432.4074   21401437.8114
        -0.000          -0.000
  -8326874.544 9  -6469288.56547  21915341.433    21915340.9154   21915346.4504
        -0.000          -0.000
  -5722178.235 8  -4441372.00345  23887339.176    23887338.3004   23887345.2354
        -0.000          -0.000
  -4250194.291 9  -3301629.09149  20374527.538    20374527.2784   20374532.5074
        -0.000          -0.000
   5946204.783 9   4622343.77045  23838889.804    23838889.4404   23838898.4794
        -0.000          -0.000
 97  3  6 17 34 59.9990000  0  8 18  2  3 31 27 10 19 16            -0.000808469
  -1713766.495 9  -1330112.44449  20031206.205    20031205.8654   20031210.8054
        -0.000          -0.000
 -10233782.696 9  -7960362.23846  23342016.897    23342016.3194   23342025.2884
        -0.000          -0.000
  -1164189.856 9   -896347.04346  23091046.598    23091046.2114   23091052.1214
        -0.000          -0.000
  -6890513.572 9  -5351665.21848  21389869.539    21389869.0524   21389874.4494
        -0.000          -0.000
  -8424957.318 9  -6545716.67147  21896676.788    21896676.3074   21896681.9274
        -0.000          -0.000
  -5795071.844 8  -4498172.22945  23873467.956    23873467.1134   23873474.0804
        -0.000          -0.000
  -4297299.921 9  -3338334.78049  20365563.646    20365563.3544   20365568.5914
        -0.000          -0.000
   6008770.582 8   4671096.15745  23850795.833    23850795.3074   23850804.4524
        -0.000          -0.000
 97  3  6 17 35 29.9990000  0  8 18  2  3 31 27 10 19 16            -0.000832355
  -1716748.941 9  -1332436.44949  20030638.704    20030638.3584   20030643.2994
        -0.000          -0.000
 -10348375.073 9  -8049654.92746  23320210.843    23320210.1354   23320218.9824
        -0.000          -0.000
  -1160147.428 9   -893197.09246  23091815.733    23091815.4484   23091821.2904
        -0.000          -0.000
  -6950694.573 9  -5398559.47848  21378417.540    21378417.0204   21378422.3894
        -0.000          -0.000
  -8522981.693 9  -6622099.28747  21878023.432    21878022.9404   21878028.4364
        -0.000          -0.000
  -5867451.978 8  -4554572.35745  23859694.636    23859693.6584   23859700.6144
        -0.000          -0.000
  -4344248.794 9  -3374918.31149  20356629.542    20356629.2794   20356634.5064
        -0.000          -0.000
   6071300.622 8   4719820.65645  23862694.953    23862694.3914   23862703.6904
        -0.000          -0.000
 97  3  6 17 35 59.9990000  0  8 18  2  3 31 27 10 19 16            -0.000856211
  -1719175.271 9  -1334327.11349  20030177.002    20030176.6574   20030181.6084
        -0.000          -0.000
 -10462694.819 9  -8138735.17846  23298456.660    23298455.8854   23298464.6244
        -0.000          -0.000
  -1155557.775 9   -889620.76046  23092689.145    23092688.8544   23092694.6174
        -0.000          -0.000
  -7010251.030 9  -5444967.07348  21367084.294    21367083.7664   21367089.1674
        -0.000          -0.000
  -8620904.075 9  -6698402.41247  21859389.318    21859388.8504   21859394.3834
        -0.000          -0.000
  -5939285.871 8  -4610546.82745  23846025.109    23846024.2314   23846031.2554
        -0.000          -0.000
  -4391011.360 9  -3411356.66949  20347730.938    20347730.6794   20347735.8664
        -0.000          -0.000
   6133840.333 8   4768552.68545  23874595.783    23874595.2324   23874604.7314
        -0.000          -0.000
 97  3  6 17 36 29.9990000  0  8 18  2  3 31 27 10 19 16            -0.000880020
  -1721021.353 9  -1335765.63549  20029825.708    20029825.3504   20029830.3084
        -0.000          -0.000
 -10576711.524 9  -8227579.28546  23276759.955    23276759.1554   23276767.8464
        -0.000          -0.000
  -1150395.176 9   -885597.99346  23093671.627    23093671.3544   23093676.9614
        -0.000          -0.000
  -7069161.977 9  -5490871.67948  21355873.942    21355873.4374   21355878.8204
        -0.000          -0.000
  -8718661.075 9  -6774576.67747  21840786.745    21840786.3084   21840791.8534
        -0.000          -0.000
  -6010543.802 8  -4666072.52645  23832465.459    23832464.3774   23832471.2324
        -0.000          -0.000
  -4437542.688 9  -3447614.85049  20338876.366    20338876.0494   20338881.2554
        -0.000          -0.000
   6196435.446 9   4817327.91145  23886507.381    23886506.8354   23886516.4614
        -0.000          -0.000
 97  3  6 17 36 59.9990000  0  8 18  2  3 31 27 10 19 16            -0.000903788
  -1722303.870 9  -1336765.01649  20029581.652    20029581.3094   20029586.2504
        -0.000          -0.000
 -10690446.279 9  -8316203.69246  23255116.914    23255116.1484   23255124.7234
        -0.000          -0.000
  -1144662.488 9   -881130.99546  23094762.548    23094762.2794   23094767.8864
        -0.000          -0.000
  -7127456.907 9  -5536296.27148  21344780.798    21344780.2564   21344785.6504
        -0.000          -0.000
  -8816264.116 9  -6850630.98447  21822213.626    21822213.1074   21822218.5164
        -0.000          -0.000
  -6081230.025 9  -4721152.71245  23819014.354    23819013.3604   23819020.2684
        -0.000          -0.000
  -4483828.003 9  -3483681.33049  20330068.602    20330068.2674   20330073.4824
        -0.000          -0.000
   6259075.088 9   4866137.79846  23898427.376    23898426.7734   23898436.7794
        -0.000          -0.000
 97  3  6 17 37 29.9990000  0  8 18  2  3 31 27 10 19 16            -0.000927595
  -1723132.346 9  -1337410.59949  20029424.045    20029423.6884   20029428.6464
        -0.000          -0.000
 -10804028.024 9  -8404708.87347  23233503.007    23233502.2414   23233510.7194
        -0.000          -0.000
  -1138478.163 9   -876312.05746  23095939.540    23095939.1944   23095944.6604
        -0.000          -0.000
  -7185262.052 9  -5581339.20848  21333780.825    21333780.2814   21333785.6774
        -0.000          -0.000
  -8913847.924 9  -6926670.29147  21803643.846    21803643.4224   21803648.9084
        -0.000          -0.000
  -6151470.164 8  -4775885.32345  23805648.089    23805647.1244   23805653.7414
        -0.000          -0.000
  -4529978.132 9  -3519642.46049  20321286.517    20321286.1764   20321291.3614
        -0.000          -0.000
   6321645.434 9   4914893.71846  23910334.367    23910333.6894   23910343.7874
        -0.000          -0.000
 97  3  6 17 37 59.9990000  0  8 18  2  3 31 27 10 19 16            -0.000951371
  -1723388.110 9  -1337609.91749  20029375.433    20029375.0624   20029380.0114
        -0.000          -0.000
 -10917348.382 9  -8493010.36346  23211938.744    23211938.0204   23211946.4814
        -0.000          -0.000
  -1131737.110 9   -871059.30646  23097222.437    23097222.0864   23097227.5164
        -0.000          -0.000
  -7242447.259 9  -5625899.08148  21322898.854    21322898.3054   21322903.6604
        -0.000          -0.000
  -9011294.988 9  -7002603.05648  21785100.419    21785099.9294   21785105.4034
        -0.000          -0.000
  -6221151.600 9  -4830182.56245  23792387.905    23792387.0634   23792393.6814
        -0.000          -0.000
  -4575869.031 9  -3555401.60649  20312553.801    20312553.4424   20312558.6064
        -0.000          -0.000
   6384266.913 9   4963689.49446  23922251.184    23922250.4504   23922260.4444
        -0.000          -0.000
 97  3  6 17 38 29.9990000  0  8 18  2  3 31 27 10 19 16            -0.000975166
  -1723137.104 9  -1337414.34849  20029423.205    20029422.8594   20029427.8084
        -0.000          -0.000
 -11030474.795 9  -8581160.74546  23190411.493    23190410.7034   23190419.1474
        -0.000          -0.000
  -1124512.549 9   -865429.76446  23098597.101    23098596.7644   23098602.3754
        -0.000          -0.000
  -7299069.218 9  -5670020.05248  21312124.021    21312123.4744   21312128.8524
        -0.000          -0.000
  -9108680.910 9  -7078488.16447  21766568.353    21766567.9194   21766573.3644
        -0.000          -0.000
  -6290357.601 9  -4884109.33745  23779218.445    23779217.6304   23779224.2844
        -0.000          -0.000
  -4621562.185 9  -3591006.66049  20303858.698    20303858.3314   20303863.5184
        -0.000          -0.000
   6446863.629 9   5012465.97146  23934163.181    23934162.4044   23934172.4774
        -0.000          -0.000
 97  3  6 17 38 59.9990000  0  8 18  2  3 31 27 10 19 16            -0.000998978
  -1722376.532 9  -1336821.71349  20029567.968    20029567.5994   20029572.5734
        -0.000          -0.000
 -11143395.615 9  -8669150.92047  23168923.284    23168922.5294   23168930.9544
        -0.000          -0.000
  -1116792.119 9   -859413.81646  23100066.204    23100065.9274   23100071.6544
        -0.000          -0.000
  -7355113.122 9  -5713690.59048  21301459.164    21301458.6174   21301463.9974
        -0.000          -0.000
  -9206007.322 9  -7154326.91648  21748047.791    21748047.3604   21748052.7814
        -0.000          -0.000
  -6359093.248 9  -4937669.61145  23766138.405    23766137.7554   23766144.1974
        -0.000          -0.000
  -4667070.594 9  -3626467.75849  20295198.732    20295198.3474   20295203.5404
        -0.000          -0.000
   6509414.821 9   5061206.96346  23946066.298    23946065.5944   23946075.6654
        -0.000          -0.000
 97  3  6 17 39 29.9990000  0  8 18  2  3 31 27 10 19 16            -0.001022782
  -1721083.246 9  -1335813.97549  20029814.054    20029813.7094   20029818.6934
        -0.000          -0.000
 -11256060.106 9  -8756941.35747  23147483.888    23147483.1514   23147491.5924
        -0.000          -0.000
  -1108545.388 9   -852987.80046  23101635.511    23101635.1714   23101640.9924
        -0.000          -0.000
  -7410515.572 9  -5756861.30248  21290916.424    21290915.8764   21290921.2324
        -0.000          -0.000
  -9303228.822 9  -7230083.91348  21729547.151    21729546.7184   21729552.2254
        -0.000          -0.000
  -6427315.887 9  -4990830.12545  23753156.318    23753155.5324   23753162.0294
        -0.000          -0.000
  -4712373.207 9  -3661768.49749  20286577.897    20286577.5544   20286582.7254
        -0.000          -0.000
   6571927.183 9   5109917.70246  23957962.113    23957961.4684   23957971.5464
        -0.000          -0.000
 97  3  6 17 39 59.9980000  0  8 18  2  3 31 27 10 19 16            -0.001046571
  -1719266.462 9  -1334398.31949  20030159.776    20030159.4494   20030164.4384
        -0.000          -0.000
 -11368461.098 9  -8844526.45847  23126094.559    23126093.8584   23126102.2894
        -0.000          -0.000
  -1099763.383 9   -846144.66846  23103306.637    23103306.3444   23103312.1314
        -0.000          -0.000
  -7465262.410 9  -5799521.13748  21280498.366    21280497.8184   21280503.1944
        -0.000          -0.000
  -9400332.179 9  -7305748.85148  21711068.892    21711068.5404   21711074.0054
        -0.000          -0.000
  -6495009.176 9  -5043578.16745  23740274.926    23740274.0104   23740280.5464
        -0.000          -0.000
  -4757474.193 9  -3696912.12149  20277995.448    20277995.1164   20278000.2854
        -0.000          -0.000
   6634385.054 9   5158585.99145  23969847.548    23969846.8704   23969856.9914
        -0.000          -0.000
 97  3  6 17 40 29.9980000  0  8 18  2  3 31 27 10 19 16            -0.001070388
  -1717006.110 9  -1332637.02849  20030589.953    20030589.5914   20030594.6224
        -0.000          -0.000
 -11480682.336 9  -8931971.50447  23104739.532    23104738.8324   23104747.2424
        -0.000          -0.000
  -1090507.906 9   -838932.63646  23105068.037    23105067.6044   23105073.3854
        -0.000          -0.000
  -7519447.881 9  -5841743.55248  21270187.230    21270186.6764   21270192.0494
        -0.000          -0.000
  -9497401.268 9  -7381387.08348  21692597.485    21692596.9584   21692602.3184
        -0.000          -0.000
  -6562233.107 9  -5095960.48545  23727482.603    23727481.7364   23727488.2264
        -0.000          -0.000
  -4802456.939 9  -3731963.61049  20269435.447    20269435.1424   20269440.3344
        -0.000          -0.000
   6696700.446 8   5207143.28145  23981705.957    23981705.3514   23981715.2994
        -0.000          -0.000
 97  3  6 17 40 59.9980000  0  8 18  2  3 31 27 10 19 16            -0.001094188
  -1714256.643 9  -1330494.60349  20031113.149    20031112.7994   20031117.8464
        -0.000          -0.000
 -11592666.461 9  -9019231.79547  23083429.743    23083428.9854   23083437.3164
        -0.000          -0.000
  -1080725.688 9   -831310.13746  23106929.680    23106929.2064   23106934.7294
        -0.000          -0.000
  -7573019.189 9  -5883487.40248  21259992.894    21259992.3344   21259997.7244
        -0.000          -0.000
  -9594375.655 9  -7456951.51748  21674143.689    21674143.2634   21674148.7534
        -0.000          -0.000
  -6628898.883 9  -5147907.87845  23714796.426    23714795.6494   23714802.1954
        -0.000          -0.000
  -4847261.145 9  -3766875.97949  20260909.435    20260909.1844   20260914.3864
        -0.000          -0.000
   6758927.018 8   5255631.31645  23993547.393    23993546.7824   23993556.6894
        -0.000          -0.000
 97  3  6 17 41 29.9980000  0  8 18  2  3 31 27 10 19 16            -0.001117995
  -1711046.467 9  -1327993.18849  20031724.034    20031723.6764   20031728.7594
        -0.000          -0.000
 -11704448.243 9  -9106334.40547  23062158.295    23062157.5314   23062165.8854
        -0.000          -0.000
  -1070463.935 9   -823313.98146  23108882.443    23108881.9934   23108887.5034
        -0.000          -0.000
  -7626012.947 9  -5924781.21148  21249908.558    21249907.9754   21249913.3414
        -0.000          -0.000
  -9691301.509 9  -7532478.15548  21655699.377    21655698.9414   21655704.3524
        -0.000          -0.000
  -6695047.931 9  -5199452.59945  23702208.722    23702207.8734   23702214.6704
        -0.000          -0.000
  -4891905.849 9  -3801664.06149  20252413.856    20252413.6064   20252418.7814
        -0.000          -0.000
   6821061.402 8   5304047.54345  24005371.546    24005371.0674   24005380.7364
        -0.000          -0.000
 97  3  6 17 41 59.9980000  0  8 18  2  3 31 27 10 19 16            -0.001141817
  -1707354.550 9  -1325116.39449  20032426.588    20032426.2204   20032431.3164
        -0.000          -0.000
 -11816029.854 9  -9193281.04447  23040924.891    23040924.1104   23040932.5134
        -0.000          -0.000
  -1059732.546 9   -814951.87946  23110924.560    23110924.1004   23110929.5354
        -0.000          -0.000
  -7678445.341 9  -5965637.59848  21239930.938    21239930.3624   21239935.7054
        -0.000          -0.000
  -9788182.014 9  -7607969.42948  21637263.563    21637263.1254   21637268.5474
        -0.000          -0.000
  -6760696.941 9  -5250607.70045  23689716.122    23689715.2514   23689722.1534
        -0.000          -0.000
  -4936371.298 9  -3836312.46549  20243952.425    20243952.1344   20243957.3214
        -0.000          -0.000
   6883128.180 8   5352411.06545  24017182.739    24017182.1014   24017192.1314
        -0.000          -0.000
 97  3  6 17 42 29.9980000  0  8 18  2  3 31 27 10 19 16            -0.001165683
  -1703201.049 9  -1321879.92149  20033217.017    20033216.6634   20033221.7494
        -0.000          -0.000
 -11927441.373 9  -9280095.14947  23019723.907    23019723.1874   23019731.5584
        -0.000          -0.000
  -1048578.259 9   -806260.24646  23113047.175    23113046.6914   23113052.1144
        -0.000          -0.000
  -7730355.882 9  -6006087.34048  21230052.716    21230052.1414   21230057.4684
        -0.000          -0.000
  -9885047.286 9  -7683448.84948  21618830.691    21618830.3054   21618835.6964
        -0.000          -0.000
  -6825885.827 9  -5301404.25545  23677311.073    23677310.2094   23677317.0164
        -0.000          -0.000
  -4980674.228 9  -3870834.23249  20235521.874    20235521.5704   20235526.7894
        -0.000          -0.000
   6945103.558 8   5400703.33845  24028976.309    24028975.5964   24028985.8084
        -0.000          -0.000
 97  3  6 17 42 59.9980000  0  8 18  2  3 31 27 10 19 16            -0.001189590
  -1698566.822 9  -1318268.85249  20034098.896    20034098.5224   20034103.6044
        -0.000          -0.000
 -12038661.895 9  -9366760.40847  22998559.289    22998558.5694   22998566.9714
        -0.000          -0.000
  -1036995.044 9   -797234.38246  23115251.220    23115250.8044   23115256.3444
        -0.000          -0.000
  -7781729.747 9  -6046118.90148  21220276.602    21220275.9984   21220281.2544
        -0.000          -0.000
  -9981877.735 9  -7758901.13048  21600404.630    21600404.1324   21600409.4814
        -0.000          -0.000
  -6890632.770 9  -5351856.43846  23664990.316    23664989.3384   23664995.9974
        -0.000          -0.000
  -5024796.658 9  -3905215.34849  20227125.573    20227125.3034   20227130.5234
        -0.000          -0.000
   7007015.465 8   5448946.16745  24040757.762    24040757.1904   24040767.3334
        -0.000          -0.000
 97  3  6 17 43 29.9980000  0  8 18  2  3 31 27 10 19 16            -0.001213559
  -1693459.701 9  -1314289.29749  20035070.776    20035070.4294   20035075.4894
        -0.000          -0.000
 -12149704.568 9  -9453287.09947  22977428.561    22977427.8284   22977436.2014
        -0.000          -0.000
  -1025001.975 9   -787889.13046  23117533.481    23117533.0464   23117538.6014
        -0.000          -0.000
  -7832584.593 9  -6085746.02948  21210599.233    21210598.6584   21210603.9224
        -0.000          -0.000
 -10078691.490 9  -7834340.40748  21581981.465    21581981.0354   21581986.4274
        -0.000          -0.000
  -6954973.502 9  -5401992.11246  23652746.702    23652745.8254   23652752.4594
        -0.000          -0.000
  -5068757.647 9  -3939470.66949  20218760.094    20218759.8044   20218765.0384
        -0.000          -0.000
   7068834.067 8   5497116.32045  24052521.484    24052520.9074   24052531.2914
        -0.000          -0.000
 97  3  6 17 43 59.9980000  0  8 18  2  3 31 27 10 19 16            -0.001237547
  -1687830.879 9  -1309903.22749  20036141.947    20036141.5584   20036146.6334
        -0.000          -0.000
 -12260516.616 9  -9539634.07347  22956341.617    22956340.8774   22956349.2714
        -0.000          -0.000
  -1012534.559 9   -778174.28846  23119906.004    23119905.5224   23119911.1334
        -0.000          -0.000
  -7882854.635 9  -6124917.47048  21201033.183    21201032.5804   21201037.8234
        -0.000          -0.000
 -10175423.080 9  -7909715.65648  21563574.048    21563573.6494   21563578.9934
        -0.000          -0.000
  -7018822.355 9  -5451744.49046  23640596.797    23640595.8364   23640602.4954
        -0.000          -0.000
  -5112501.336 9  -3973556.67249  20210435.974    20210435.6864   20210440.9214
        -0.000          -0.000
   7130591.605 8   5545238.86045  24064273.631    24064273.1404   24064283.4194
        -0.000          -0.000
 97  3  6 17 44 29.9980000  0  8 18  2  3 31 27 10 19 16            -0.001261573
  -1681746.319 9  -1305162.03149  20037299.863    20037299.4964   20037304.5544
        -0.000          -0.000
 -12371150.165 9  -9625841.95547  22935288.615    22935287.9714   22935296.3154
        -0.000          -0.000
   -999629.122 9   -768118.09346  23122361.841    23122361.3434   23122367.0464
        -0.000          -0.000
  -7932581.792 9  -6163665.87748  21191570.349    21191569.8014   21191575.0394
        -0.000          -0.000
 -10272130.443 9  -7985072.01648  21545171.228    21545170.7994   21545176.1854
        -0.000          -0.000
  -7082216.667 9  -5501142.69746  23628533.386    23628532.3774   23628539.1114
        -0.000          -0.000
  -5156095.951 9  -4007526.50649  20202140.250    20202139.9304   20202145.1794
        -0.000          -0.000
   7192228.207 9   5593267.18145  24076002.825    24076002.2114   24076012.8734
        -0.000          -0.000
 97  3  6 17 44 59.9980000  0  8 18  2  3 31 27 10 19 16            -0.001285603
  -1675180.430 9  -1300045.77749  20038549.305    20038548.9414   20038554.0114
        -0.000          -0.000
 -12481567.464 9  -9711881.33247  22914276.810    22914276.1474   22914284.3994
        -0.000          -0.000
   -986237.093 9   -757682.76246  23124910.276    23124909.8284   23124915.5124
        -0.000          -0.000
  -7981718.527 9  -6201954.23248  21182219.983    21182219.4154   21182224.6204
        -0.000          -0.000
 -10368786.241 9  -8060388.21348  21526778.205    21526777.7924   21526783.2004
        -0.000          -0.000
  -7145106.555 9  -5550147.83146  23616566.020    23616564.9924   23616571.6494
        -0.000          -0.000
  -5199510.863 9  -4041356.31149  20193878.669    20193878.3494   20193883.5934
        -0.000          -0.000
   7253774.866 9   5641225.41945  24087714.943    24087714.3224   24087725.0344
        -0.000          -0.000
 97  3  6 17 45 29.9980000  0  8 18  2  3 31 27 10 19 16            -0.001309635
  -1668135.631 9  -1294556.34949  20039889.929    20039889.5434   20039894.6404
        -0.000          -0.000
 -12591779.296 9  -9797760.60947  22893304.058    22893303.4164   22893311.5594
        -0.000          -0.000
   -972357.432 9   -746867.45946  23127551.578    23127551.0704   23127556.7294
        -0.000          -0.000
  -8030255.258 9  -6239775.03648  21172983.671    21172983.1094   21172988.3704
        -0.000          -0.000
 -10465399.386 9  -8135671.16148  21508393.407    21508392.9204   21508398.2924
        -0.000          -0.000
  -7207472.438 9  -5598744.66646  23604697.915    23604696.9894   23604703.8514
        -0.000          -0.000
  -5242747.607 9  -4075047.28849  20185650.985    20185650.6754   20185655.9034
        -0.000          -0.000
   7315216.939 9   5689102.15845  24099407.219    24099406.5484   24099417.2374
        -0.000          -0.000
 97  3  6 17 45 59.9980000  0  8 18  2  3 31 27 10 19 16            -0.001333674
  -1660626.783 9  -1288705.32149  20041318.836    20041318.4444   20041323.5344
        -0.000          -0.000
 -12701805.411 9  -9883495.15747  22872366.816    22872366.1904   22872374.2764
        -0.000          -0.000
   -957998.765 9   -735678.90946  23130283.877    23130283.3984   23130289.1034
        -0.000          -0.000
  -8078215.355 9  -6277146.52648  21163857.109    21163856.5474   21163861.7874
        -0.000          -0.000
 -10561982.586 9  -8210930.77748  21490014.079    21490013.6834   21490019.1264
        -0.000          -0.000
  -7269326.958 9  -5646943.02546  23592927.218    23592926.5374   23592933.4554
        -0.000          -0.000
  -5285827.791 9  -4108616.27249  20177453.136    20177452.8204   20177458.0654
        -0.000          -0.000
   7376537.808 9   5736884.47545  24111076.613    24111075.8294   24111086.4744
        -0.000          -0.000
 97  3  6 17 46 29.9980000  0  8 18  2  3 31 27 10 19 16            -0.001357731
  -1652666.901 9  -1282502.84349  20042833.572    20042833.1854   20042838.2584
        -0.000          -0.000
 -12811652.222 9  -9969090.00047  22851463.774    22851463.0114   22851471.1484
        -0.000          -0.000
   -943174.848 9   -724127.82646  23133104.829    23133104.3354   23133109.9594
        -0.000          -0.000
  -8125620.895 9  -6314085.89448  21154836.093    21154835.5224   21154840.7694
        -0.000          -0.000
 -10658545.818 9  -8286174.84448  21471638.807    21471638.3644   21471643.7404
        -0.000          -0.000
  -7330697.542 9  -5694764.30146  23581248.895    23581248.1114   23581255.1134
        -0.000          -0.000
  -5328780.973 9  -4142086.29449  20169279.470    20169279.1194   20169284.3614
        -0.000          -0.000
   7437719.049 8   5784557.96645  24122719.207    24122718.3794   24122729.1994
        -0.000          -0.000
 97  3  6 17 46 59.9980000  0  8 18  2  3 31 27 10 19 16            -0.001381798
  -1644215.377 9  -1275917.26249  20044441.871    20044441.4724   20044446.5684
        -0.000          -0.000
 -12921286.089 9 -10054518.90447  22830600.946    22830600.2844   22830608.4674
        -0.000          -0.000
   -927874.698 9   -712205.64946  23136016.382    23136015.9194   23136021.4234
        -0.000          -0.000
  -8172435.957 9  -6350565.14048  21145927.485    21145926.9494   21145932.1834
        -0.000          -0.000
 -10755044.059 9  -8361368.24948  21453275.774    21453275.3174   21453280.7564
        -0.000          -0.000
  -7391559.766 9  -5742189.42446  23569667.450    23569666.4794   23569673.4114
        -0.000          -0.000
  -5371569.538 9  -4175428.03349  20161137.080    20161136.7654   20161141.9454
        -0.000          -0.000
   7498791.820 8   5832146.90645  24134341.055    24134340.3734   24134351.3204
        -0.000          -0.000
 97  3  6 17 47 29.9980000  0  8 18  2  3 31 27 10 19 16            -0.001405886
  -1635254.845 9  -1268935.05849  20046147.010    20046146.6224   20046151.7204
        -0.000          -0.000
 -13030704.503 9 -10139779.93847  22809779.306    22809778.6794   22809786.7704
        -0.000          -0.000
   -912120.747 9   -699929.86046  23139014.091    23139013.6744   23139019.2514
        -0.000          -0.000
  -8218659.924 9  -6386583.81348  21137131.458    21137130.8994   21137136.0984
        -0.000          -0.000
 -10851454.552 9  -8436493.30148  21434929.426    21434929.0274   21434934.4304
        -0.000          -0.000
  -7451921.626 9  -5789224.69146  23558181.016    23558180.0914   23558186.8804
        -0.000          -0.000
  -5414194.055 9  -4208641.94649  20153025.937    20153025.5714   20153030.7314
        -0.000          -0.000
   7559754.764 8   5879650.28945  24145942.096    24145941.3134   24145952.4914
        -0.000          -0.000
 97  3  6 17 47 59.9980000  0  8 18  2  3 31 27 10 19 16            -0.001429998
  -1625798.180 9  -1261566.25249  20047946.573    20047946.1964   20047951.2894
        -0.000          -0.000
 -13139912.892 9 -10224877.29547  22788997.659    22788996.9664   22789005.1224
        -0.000          -0.000
   -895929.956 9   -687313.68146  23142095.014    23142094.6614   23142100.3094
        -0.000          -0.000
  -8264300.808 9  -6422148.11748  21128446.277    21128445.7114   21128450.9304
        -0.000          -0.000
 -10947774.980 9  -8511548.16448  21416600.200    21416599.7874   21416605.2424
        -0.000          -0.000
  -7511789.411 9  -5835874.94546  23546788.670    23546787.6894   23546794.3854
        -0.000          -0.000
  -5456661.212 9  -4241733.24249  20144944.708    20144944.3454   20144949.5134
        -0.000          -0.000
   7620610.613 8   5927070.22445  24157522.788    24157522.0054   24157533.0894
        -0.000          -0.000
 97  3  6 17 48 29.9980000  0  8 18  2  3 31 27 10 19 16            -0.001454117
  -1615826.619 9  -1253796.22849  20049844.112    20049843.7324   20049848.8334
        -0.000          -0.000
 -13248878.862 9 -10309785.76447  22768262.131    22768261.4204   22768269.4654
        -0.000          -0.000
   -879288.295 9   -674346.19146  23145261.986    23145261.5194   23145267.2164
        -0.000          -0.000
  -8309316.111 9  -6457224.96548  21119880.152    21119879.5914   21119884.7734
        -0.000          -0.000
 -11043970.403 9  -8586505.62648  21398294.827    21398294.4394   21398299.8764
        -0.000          -0.000
  -7571140.820 9  -5882122.84646  23535494.293    23535493.4374   23535500.2244
        -0.000          -0.000
  -5498934.799 9  -4274673.71249  20136900.344    20136899.9644   20136905.1574
        -0.000          -0.000
   7681397.751 8   5974436.62245  24169090.363    24169089.6884   24169100.4654
        -0.000          -0.000
 97  3  6 17 48 59.9980000  0  8 18  2  3 31 27 10 19 16            -0.001478253
  -1605355.203 9  -1245636.70849  20051836.719    20051836.3724   20051841.4744
        -0.000          -0.000
 -13357617.235 9 -10394516.88847  22747569.991    22747569.2454   22747577.1904
        -0.000          -0.000
   -862214.301 9   -661041.79646  23148511.065    23148510.6104   23148516.4094
        -0.000          -0.000
  -8353718.171 9  -6491823.95448  21111430.727    21111430.1614   21111435.3444
        -0.000          -0.000
 -11140054.043 9  -8661375.97848  21380010.812    21380010.3674   21380015.7324
        -0.000          -0.000
  -7629994.076 9  -5927982.54946  23524294.897    23524293.9804   23524301.0124
        -0.000          -0.000
  -5541009.824 9  -4307459.44349  20128893.745    20128893.4074   20128898.5904
        -0.000          -0.000
   7742109.579 8   6021744.31645  24180643.574    24180642.9294   24180653.5854
        -0.000          -0.000
 97  3  6 17 49 29.9980000  0  8 18  2  3 31 27 10 19 16            -0.001502391
  -1594384.948 9  -1237088.47949  20053924.387    20053924.0074   20053929.0874
        -0.000          -0.000
 -13466114.684 9 -10479060.27147  22726923.629    22726922.8094   22726930.8004
        -0.000          -0.000
   -844675.967 9   -647375.59646  23151848.566    23151848.1194   23151853.8444
        -0.000          -0.000
  -8397510.958 9  -6525948.18948  21103097.276    21103096.7104   21103101.8614
        -0.000          -0.000
 -11236025.553 9  -8736158.95648  21361747.955    21361747.5504   21361752.9594
        -0.000          -0.000
  -7688339.237 9  -5973446.34746  23513192.121    23513191.1774   23513198.4304
        -0.000          -0.000
  -5582880.838 9  -4340086.20749  20120925.945    20120925.6034   20120930.7824
        -0.000          -0.000
   7802747.346 8   6068994.32245  24192182.905    24192182.1714   24192192.6414
        -0.000          -0.000
 97  3  6 17 49 59.9980000  0  8 18  2  3 31 27 10 19 16            -0.001526516
  -1582933.651 9  -1228165.42049  20056103.528    20056103.1594   20056108.2284
        -0.000          -0.000
 -13574357.576 9 -10563405.29747  22706325.675    22706324.8484   22706332.8774
        -0.000          -0.000
   -826643.241 9   -633324.11546  23155280.174    23155279.6644   23155285.4004
        -0.000          -0.000
  -8440691.345 9  -6559595.23448  21094880.299    21094879.7194   21094884.8314
        -0.000          -0.000
 -11331894.512 9  -8810862.02748  21343504.822    21343504.3694   21343509.6844
        -0.000          -0.000
  -7746172.537 9  -6018511.27746  23502186.883    23502185.9554   23502193.0944
        -0.000          -0.000
  -5624540.087 9  -4372547.95949  20112998.471    20112998.1514   20113003.3104
        -0.000          -0.000
   7863311.179 8   6116186.70445  24203708.093    24203707.1624   24203717.8614
        -0.000          -0.000
 97  3  6 17 50 29.9980000  0  8 18  2  3 31 27 10 19 16            -0.001550635
  -1571000.795 9  -1218867.11649  20058374.319    20058373.9074   20058378.9994
        -0.000          -0.000
 -13682345.571 9 -10647551.71747  22685776.132    22685775.3544   22685783.4014
        -0.000          -0.000
   -808115.793 9   -618887.15146  23158805.714    23158805.2434   23158811.1054
        -0.000          -0.000
  -8483258.818 9  -6592764.68448  21086779.938    21086779.3564   21086784.4204
        -0.000          -0.000
 -11427671.082 9  -8885493.10248  21325279.079    21325278.6374   21325283.9964
        -0.000          -0.000
  -7803502.954 9  -6063184.38346  23491277.496    23491276.4274   23491283.5254
        -0.000          -0.000
  -5665994.660 9  -4404850.22449  20105109.980    20105109.6324   20105114.7974
        -0.000          -0.000
   7923776.478 8   6163302.28845  24215214.200    24215213.4364   24215224.3534
        -0.000          -0.000
 97  3  6 17 50 59.9980000  0  8 18  2  3 31 27 10 19 16            -0.001574742
  -1558559.539 9  -1209172.65549  20060741.858    20060741.4384   20060746.5414
        -0.000          -0.000
 -13790074.398 9 -10731496.18447  22665275.983    22665275.2074   22665283.2344
        -0.000          -0.000
   -789078.027 9   -604052.52946  23162428.428    23162427.9254   23162433.9124
        -0.000          -0.000
  -8525192.497 9  -6625440.26548  21078800.230    21078799.6314   21078804.6934
        -0.000          -0.000
 -11523360.103 9  -8960055.96448  21307070.034    21307069.6034   21307074.9754
        -0.000          -0.000
  -7860312.329 9  -6107451.45246  23480467.223    23480466.1014   23480473.0634
        -0.000          -0.000
  -5707224.339 9  -4436977.24849  20097264.191    20097263.8744   20097269.0254
        -0.000          -0.000
   7984151.255 8   6210347.34045  24226703.098    24226702.5224   24226713.5294
        -0.000          -0.000
 97  3  6 17 51 29.9980000  0  8 18  2  3 31 27 10 19 16            -0.001598843
  -1545613.968 9  -1199085.22749  20063205.320    20063204.9324   20063210.0484
        -0.000          -0.000
 -13897551.940 9 -10815244.84747  22644823.674    22644822.8854   22644830.8134
        -0.000          -0.000
   -769543.701 9   -588830.99646  23166145.806    23166145.2714   23166151.0864
        -0.000          -0.000
  -8566493.317 9  -6657622.70748  21070940.961    21070940.3424   21070945.3784
        -0.000          -0.000
 -11618976.572 9  -9034562.29548  21288874.898    21288874.4394   21288879.7474
        -0.000          -0.000
  -7916610.144 9  -6151319.90746  23469754.027    23469752.9384   23469759.9594
        -0.000          -0.000
  -5748231.339 9  -4468930.75549  20089460.792    20089460.4764   20089465.6214
        -0.000          -0.000
   8044423.829 8   6257312.76445  24238172.582    24238172.1424   24238183.3754
        -0.000          -0.000
 97  3  6 17 51 59.9980000  0  7 18  2  3 31 27 10 19               -0.001622988
  -1532172.766 9  -1188611.58949  20065763.120    20065762.7124   20065767.8364
        -0.000          -0.000
 -14004798.504 9 -10898813.53247  22624415.176    22624414.4354   22624422.3444
        -0.000          -0.000
   -749553.427 9   -573254.18246  23169949.883    23169949.3884   23169955.1104
        -0.000          -0.000
  -8607169.695 9  -6689318.57348  21063200.486    21063199.8704   21063204.9184
        -0.000          -0.000
 -11714537.012 9  -9109024.95748  21270690.259    21270689.8284   21270695.1684
        -0.000          -0.000
  -7972406.757 9  -6194797.83146  23459136.174    23459135.1384   23459142.3034
        -0.000          -0.000
  -5789024.143 9  -4500717.35149  20081698.227    20081697.8904   20081703.0254
        -0.000          -0.000
 97  3  6 17 52 29.9980000  0  7 18  2  3 31 27 10 19               -0.001647107
  -1518211.050 9  -1177732.35849  20068419.926    20068419.5124   20068424.6404
        -0.000          -0.000
 -14111805.113 9 -10982195.22847  22604052.388    22604051.6714   22604059.5194
        -0.000          -0.000
   -729111.308 9   -557325.27146  23173839.969    23173839.5154   23173845.1324
        -0.000          -0.000
  -8647209.577 9  -6720518.46648  21055581.102    21055580.4954   21055585.5514
        -0.000          -0.000
 -11810021.942 9  -9183428.78148  21252520.144    21252519.6774   21252525.0064
        -0.000          -0.000
  -8027679.807 9  -6237867.77446  23448618.190    23448617.0904   23448624.1974
        -0.000          -0.000
  -5829578.720 9  -4532318.31649  20073981.000    20073980.6124   20073985.7864
        -0.000          -0.000
 97  3  6 17 52 59.9980000  0  7 18  2  3 31 27 10 19               -0.001671268
  -1503768.178 9  -1166478.19249  20071168.348    20071167.9504   20071173.0624
        -0.000          -0.000
 -14218612.705 9 -11065421.85547  22583727.598    22583726.8414   22583734.6674
        -0.000          -0.000
   -708259.605 9   -541077.24046  23177808.001    23177807.4684   23177813.1214
        -0.000          -0.000
  -8686667.139 9  -6751264.60548  21048072.580    21048071.9934   21048077.0124
        -0.000          -0.000
 -11905459.829 9  -9257795.94648  21234358.835    21234358.4004   21234363.7274
        -0.000          -0.000
  -8082474.901 9  -6280565.27846  23438190.987    23438189.9194   23438197.0674
        -0.000          -0.000
  -5869941.754 9  -4563770.03149  20066300.154    20066299.7804   20066304.9574
        -0.000          -0.000
 97  3  6 17 53 29.9980000  0  7 18  2  3 31 27 10 19               -0.001695432
  -1488815.726 9  -1154826.96049  20074013.746    20074013.3404   20074018.4534
        -0.000          -0.000
 -14325168.342 9 -11148452.15347  22563450.584    22563449.8594   22563457.7484
        -0.000          -0.000
   -686954.627 9   -524475.98346  23181862.257    23181861.7314   23181867.3144
        -0.000          -0.000
  -8725522.270 9  -6781541.32248  21040678.663    21040678.0724   21040683.0874
        -0.000          -0.000
 -12000792.341 9  -9332081.00248  21216217.653    21216217.1984   21216222.5294
        -0.000          -0.000
  -8136747.096 9  -6322855.34946  23427863.332    23427862.3884   23427869.5444
        -0.000          -0.000
  -5910105.053 9  -4595066.11149  20058657.326    20058656.9914   20058662.1504
        -0.000          -0.000
 97  3  6 17 53 59.9980000  0  7 18  2  3 31 27 10 19               -0.001719594
  -1473361.901 9  -1142785.04349  20076954.555    20076954.1444   20076959.2624
        -0.000          -0.000
 -14431480.980 9 -11231293.11047  22543220.003    22543219.2544   22543227.0694
        -0.000          -0.000
   -665192.745 9   -507518.69146  23186003.404    23186002.8544   23186008.4804
        -0.000          -0.000
  -8763786.031 9  -6811357.23048  21033397.289    21033396.7324   21033401.7184
        -0.000          -0.000
 -12096009.569 9  -9406276.23948  21198098.467    21198098.0024   21198103.2754
        -0.000          -0.000
  -8190490.440 9  -6364733.31046  23417636.337    23417635.3784   23417642.6734
        -0.000          -0.000
  -5950084.836 9  -4626219.19049  20051049.407    20051049.0584   20051054.2514
        -0.000          -0.000
 97  3  6 17 54 29.9980000  0  7 18  2  3 31 27 10 19               -0.001743739
  -1457396.511 9  -1130344.50749  20079992.642    20079992.2314   20079997.3794
        -0.000          -0.000
 -14537536.467 9 -11313933.67347  22523038.269    22523037.4664   22523045.3574
        -0.000          -0.000
   -642944.103 9   -490182.11046  23190237.121    23190236.7024   23190242.3094
        -0.000          -0.000
  -8801434.632 9  -6840693.79848  21026232.972    21026232.4224   21026237.4144
        -0.000          -0.000
 -12191088.613 9  -9480363.78548  21180005.524    21180004.9984   21180010.2824
        -0.000          -0.000
  -8243693.911 9  -6406190.61446  23407512.180    23407511.1374   23407518.3824
        -0.000          -0.000
  -5989867.001 9  -4657218.28449  20043479.151    20043478.7784   20043483.9604
        -0.000          -0.000
 97  3  6 17 54 59.9980000  0  7 18  2  3 31 27 10 19               -0.001767852
  -1440921.178 9  -1117506.61749  20083127.805    20083127.4304   20083132.5624
        -0.000          -0.000
 -14643327.268 9 -11396368.01047  22502906.805    22502906.0424   22502913.8554
        -0.000          -0.000
   -620195.329 9   -472455.80246  23194565.961    23194565.6764   23194571.3074
        -0.000          -0.000
  -8838459.094 9  -6869544.01548  21019187.407    21019186.8604   21019191.8284
        -0.000          -0.000
 -12286030.359 9  -9554344.35448  21161938.654    21161938.1654   21161943.4624
        -0.000          -0.000
  -8296357.746 9  -6447227.40646  23397490.500    23397489.5654   23397496.7664
        -0.000          -0.000
  -6029458.707 9  -4688068.96449  20035945.111    20035944.7444   20035949.9064
        -0.000          -0.000
 97  3  6 17 55 29.9980000  0  7 18  2  3 31 27 10 19               -0.001791946
  -1423964.063 9  -1104293.30149  20086354.673    20086354.2664   20086359.4314
        -0.000          -0.000
 -14748866.801 9 -11478606.54347  22482823.286    22482822.5064   22482830.2044
        -0.000          -0.000
   -596966.079 9   -454355.09046  23198986.398    23198986.0264   23198991.8574
        -0.000          -0.000
  -8874865.796 9  -6897912.86548  21012259.482    21012258.9364   21012263.8834
        -0.000          -0.000
 -12380866.282 9  -9628242.45748  21143892.044    21143891.5194   21143896.7954
        -0.000          -0.000
  -8348491.948 9  -6487851.50446  23387569.736    23387568.8624   23387575.9524
        -0.000          -0.000
  -6068847.122 9  -4718761.23649  20028449.820    20028449.3834   20028454.5334
        -0.000          -0.000
 97  3  6 17 55 59.9980000  0  7 18  2  3 31 27 10 19               -0.001816018
  -1406490.617 9  -1090677.65449  20089679.799    20089679.4144   20089684.5584
        -0.000          -0.000
 -14854125.775 9 -11560626.45647  22462793.101    22462792.3624   22462800.0264
        -0.000          -0.000
   -573234.388 9   -435862.86446  23203502.399    23203502.0404   23203507.9554
        -0.000          -0.000
  -8910607.766 9  -6925763.73848  21005458.025    21005457.4444   21005462.3984
        -0.000          -0.000
 -12475569.666 9  -9702037.29448  21125870.519    21125870.0054   21125875.3314
        -0.000          -0.000
  -8400069.409 9  -6528041.79146  23377755.019    23377754.0984   23377761.1974
        -0.000          -0.000
  -6107965.986 9  -4749243.47749  20021005.704    20021005.3064   20021010.4714
        -0.000          -0.000
 97  3  6 17 56 29.9980000  0  7 18  2  3 31 27 10 19               -0.001840066
  -1388506.525 9  -1076664.10149  20093102.110    20093101.7054   20093106.8444
        -0.000          -0.000
 -14959102.036 9 -11642426.07947  22442816.779    22442816.0224   22442823.7104
        -0.000          -0.000
   -549015.797 9   -416991.24446  23208111.106    23208110.7494   23208116.5984
        -0.000          -0.000
  -8945681.394 9  -6953093.82948  20998783.737    20998783.1654   20998788.1004
        -0.000          -0.000
 -12570157.113 9  -9775741.78148  21107871.103    21107870.6154   21107875.9314
        -0.000          -0.000
  -8451100.656 9  -6567806.42546  23368044.115    23368043.2014   23368050.2874
        -0.000          -0.000
  -6146825.819 9  -4779523.87349  20013610.976    20013610.5664   20013615.7204
        -0.000          -0.000
 97  3  6 17 56 59.9980000  0  7 18  2  3 31 27 10 19               -0.001864109
  -1370036.111 9  -1062271.59849  20096616.941    20096616.5424   20096621.6984
        -0.000          -0.000
 -15063812.695 9 -11724018.73247  22422890.993    22422890.1864   22422897.9154
        -0.000          -0.000
   -524339.154 9   -397762.71046  23212806.941    23212806.6284   23212812.3754
        -0.000          -0.000
  -8980111.633 9  -6979922.58148  20992231.922    20992231.3304   20992236.2484
        -0.000          -0.000
 -12664648.122 9  -9849371.12448  21089890.219    21089889.6434   21089894.8984
        -0.000          -0.000
  -8501605.299 9  -6607160.73546  23358433.258    23358432.4644   23358439.6174
        -0.000          -0.000
  -6185441.853 9  -4809614.29449  20006262.582    20006262.2034   20006267.3234
        -0.000          -0.000
 97  3  6 17 57 29.9980000  0  7 18  2  3 31 27 10 19               -0.001888155
  -1351082.424 9  -1047502.51949  20100223.759    20100223.3354   20100228.4894
        -0.000          -0.000
 -15168264.107 9 -11805409.38547  22403014.513    22403013.7564   22403021.4134
        -0.000          -0.000
   -499217.056 9   -378187.07846  23217587.662    23217587.1894   23217592.9034
        -0.000          -0.000
  -9013904.004 9  -7006254.29348  20985801.481    20985800.8924   20985805.7994
        -0.000          -0.000
 -12759031.940 9  -9922916.94348  21071929.521    21071928.9474   21071934.2294
        -0.000          -0.000
  -8551573.944 9  -6646097.40046  23348924.612    23348923.8464   23348930.8794
        -0.000          -0.000
  -6223812.338 9  -4839513.37949  19998960.989    19998960.5584   19998965.6964
        -0.000          -0.000
 97  3  6 17 57 59.9980000  0  7 18  2  3 31 27 10 19               -0.001912188
  -1331621.212 9  -1032337.96849  20103927.124    20103926.7014   20103931.8464
        -0.000          -0.000
 -15272443.510 9 -11886588.08247  22383189.894    22383189.0414   22383196.6684
        -0.000          -0.000
   -473634.526 9   -358252.67346  23222455.882    23222455.4384   23222461.0754
        -0.000          -0.000
  -9047043.833 9  -7032077.53348  20979495.163    20979494.5484   20979499.4664
        -0.000          -0.000
 -12853273.558 9  -9996351.95548  21053995.881    21053995.3624   21054000.6174
        -0.000          -0.000
  -8600981.958 9  -6684597.19046  23339522.723    23339521.8264   23339528.8204
        -0.000          -0.000
  -6261943.961 9  -4869226.34149  19991704.786    19991704.3714   19991709.5314
        -0.000          -0.000
 97  3  6 17 58 29.9980000  0  7 18  2  3 31 27 10 19               -0.001936190
  -1311632.504 9  -1016762.38349  20107730.872    20107730.4484   20107735.6114
        -0.000          -0.000
 -15376328.396 9 -11967537.27947  22363421.213    22363420.3864   22363427.9134
        -0.000          -0.000
   -447562.889 9   -337937.14446  23227417.061    23227416.7244   23227422.3654
        -0.000          -0.000
  -9079507.829 9  -7057374.15048  20973317.478    20973316.8754   20973321.7904
        -0.000          -0.000
 -12947340.827 9 -10069651.12048  21036095.569    21036094.9744   21036100.2174
        -0.000          -0.000
  -8649805.240 9  -6722641.35046  23330232.028    23330231.0974   23330238.2304
        -0.000          -0.000
  -6299821.150 9  -4898741.04249  19984496.997    19984496.5814   19984501.7364
        -0.000          -0.000
 97  3  6 17 58 59.9980000  0  7 18  2  3 31 27 10 19               -0.001960164
  -1291116.627 9  -1000776.01249  20111634.973    20111634.5454   20111639.6974
        -0.000          -0.000
 -15479918.424 9 -12048256.72047  22343708.617    22343707.8134   22343715.3234
        -0.000          -0.000
   -421001.689 9   -317240.11246  23232471.430    23232471.2054   23232476.8574
        -0.000          -0.000
  -9111304.236 9  -7082150.56648  20967266.766    20967266.2144   20967271.1414
        -0.000          -0.000
 -13041221.763 9 -10142805.07748  21018230.522    21018229.9724   21018235.2394
        -0.000          -0.000
  -8698041.083 9  -6760227.77046  23321053.287    23321052.2414   23321059.3214
        -0.000          -0.000
  -6337437.876 9  -4928052.78249  19977338.760    19977338.3864   19977343.5054
        -0.000          -0.000
 97  3  6 17 59 29.9980000  0  7 18  2  3 31 27 10 19               -0.001984091
  -1270045.085 9   -984356.65949  20115644.764    20115644.3194   20115649.4494
        -0.000          -0.000
 -15583189.338 9 -12128727.49547  22324056.719    22324055.9184   22324063.5044
        -0.000          -0.000
   -393933.001 9   -296147.64246  23237622.399    23237622.1894   23237627.9784
        -0.000          -0.000
  -9142408.766 9  -7106387.85948  20961347.770    20961347.2014   20961352.1394
        -0.000          -0.000
 -13134901.149 9 -10215801.98448  21000403.978    21000403.4534   21000408.6404
        -0.000          -0.000
  -8745666.231 9  -6797338.32546  23311990.445    23311989.4754   23311996.6024
        -0.000          -0.000
  -6374783.375 9  -4957153.17849  19970232.090    19970231.7464   19970236.8794
        -0.000          -0.000
 97  3  6 17 59 59.9980000  0  7 18  2  3 31 27 10 19               -0.002007966
  -1248412.390 9   -967500.04749  20119761.351    20119760.9194   20119766.0474
        -0.000          -0.000
 -15686131.910 9 -12208942.43247  22304467.359    22304466.5894   22304474.1714
        -0.000          -0.000
   -366353.465 9   -274657.10046  23242870.596    23242870.2764   23242876.1734
        -0.000          -0.000
  -9172807.182 9  -7130074.93448  20955563.146    20955562.5964   20955567.5074
        -0.000          -0.000
 -13228388.369 9 -10288649.16248  20982613.944    20982613.4194   20982618.5824
        -0.000          -0.000
  -8792705.275 9  -6833992.15446  23303039.225    23303038.2934   23303045.4344
        -0.000          -0.000
  -6411856.543 9  -4986041.36749  19963177.314    19963176.9404   19963182.0534
        -0.000          -0.000
 97  3  6 18  0 29.9970000  0  7 18  2  3 31 27 10 19               -0.002031815
  -1226268.661 9   -950245.22149  20123975.202    20123974.7724   20123979.8944
        -0.000          -0.000
 -15788779.374 9 -12288927.40247  22284934.211    22284933.4114   22284940.9374
        -0.000          -0.000
   -338302.719 9   -252799.39646  23248208.652    23248208.1814   23248214.0364
        -0.000          -0.000
  -9202533.258 9  -7153238.10448  20949906.531    20949905.9424   20949910.8544
        -0.000          -0.000
 -13321729.269 9 -10361382.31648  20964851.731    20964851.1964   20964856.4164
        -0.000          -0.000
  -8839201.355 9  -6870222.93346  23294191.086    23294190.2874   23294197.6244
        -0.000          -0.000
  -6448682.655 9  -5014737.04249  19956169.582    19956169.2014   19956174.2934
        -0.000          -0.000
 97  3  6 18  0 59.9970000  0  7 18  2  3 31 27 10 19               -0.002055622
  -1203575.013 9   -932561.89249  20128293.681    20128293.2734   20128298.4124
        -0.000          -0.000
 -15891112.489 9 -12368667.42047  22265461.000    22265460.1134   22265467.5724
        -0.000          -0.000
   -309749.628 9   -230550.24246  23253642.144    23253641.7094   23253647.5414
        -0.000          -0.000
  -9231564.584 9  -7175859.91448  20944382.074    20944381.4664   20944386.3934
        -0.000          -0.000
 -13414902.295 9 -10433984.66448  20947121.416    20947120.9204   20947126.1794
        -0.000          -0.000
  -8885121.699 9  -6906005.06546  23285453.028    23285452.0274   23285459.3804
        -0.000          -0.000
  -6485224.662 9  -5043211.34349  19949215.918    19949215.5164   19949220.6124
        -0.000          -0.000
 97  3  6 18  1 29.9970000  0  7 18  2  3 31 27 10 19               -0.002079393
  -1180334.124 9   -914452.14349  20132716.312    20132715.8814   20132721.0564
        -0.000          -0.000
 -15993135.783 9 -12448166.02047  22246046.496    22246045.6034   22246053.0284
        -0.000          -0.000
   -280701.952 9   -207915.70546  23259169.686    23259169.3624   23259175.1894
        -0.000          -0.000
  -9259895.257 9  -7197935.76548  20938990.969    20938990.3094   20938995.2274
        -0.000          -0.000
 -13507918.517 9 -10506464.82848  20929420.930    20929420.5344   20929425.7184
        -0.000          -0.000
  -8930476.069 9  -6941346.18246  23276822.321    23276821.4214   23276828.7394
        -0.000          -0.000
  -6521471.611 9  -5071455.72649  19942318.299    19942317.9314   19942323.0444
        -0.000          -0.000
 97  3  6 18  1 59.9970000  0  7 18  2  3 31 27 10 19               -0.002103140
  -1156547.795 9   -895917.37549  20137242.761    20137242.3174   20137247.5304
        -0.000          -0.000
 -16094861.033 9 -12527432.38847  22226688.704    22226687.8544   22226695.2284
        -0.000          -0.000
   -251155.607 9   -184892.58246  23264792.127    23264791.8394   23264797.5354
        -0.000          -0.000
  -9287531.763 9  -7219470.70948  20933731.917    20933731.3094   20933736.2134
        -0.000          -0.000
 -13600772.599 9 -10578818.64048  20911751.474    20911751.0364   20911756.1784
        -0.000          -0.000
  -8975262.670 9  -6976244.88946  23268299.911    23268298.8824   23268306.1894
        -0.000          -0.000
  -6557407.054 9  -5099457.38049  19935480.045    19935479.6654   19935484.7794
        -0.000          -0.000
 97  3  6 18  2 29.9970000  0  7 18  2  3 31 27 10 19               -0.002126851
  -1132198.150 9   -876943.66249  20141876.354    20141875.9294   20141881.1514
        -0.000          -0.000
 -16196276.101 9 -12606457.04447  22207390.006    22207389.1654   22207396.5574
        -0.000          -0.000
   -221093.274 9   -161467.40246  23270512.929    23270512.5304   23270518.0944
        -0.000          -0.000
  -9314477.433 9  -7240467.33348  20928604.318    20928603.7094   20928608.6014
        -0.000          -0.000
 -13693451.768 9 -10651036.16348  20894115.233    20894114.7554   20894119.9554
        -0.000          -0.000
  -9019448.158 9  -7010675.18746  23259891.666    23259890.6834   23259897.9424
        -0.000          -0.000
  -6593002.412 9  -5127194.02549  19928706.495    19928706.1244   19928711.2044
        -0.000          -0.000
 97  3  6 18  2 59.9970000  0  7 18  2  3 31 27 10 19               -0.002150522
  -1107277.849 9   -857525.28148  20146618.578    20146618.1264   20146623.3434
        -0.000          -0.000
 -16297384.312 9 -12685242.60247  22188149.649    22188148.8844   22188156.2574
        -0.000          -0.000
   -190520.889 9   -137644.78645  23276330.668    23276330.2724   23276335.8714
        -0.000          -0.000
  -9340749.223 9  -7260938.85848  20923604.955    20923604.3404   20923609.2304
        -0.000          -0.000
 -13785971.527 9 -10723129.47548  20876509.338    20876508.8734   20876513.9874
        -0.000          -0.000
  -9063046.427 9  -7044647.90646  23251595.056    23251594.1464   23251601.5624
        -0.000          -0.000
  -6628275.464 9  -5154679.52449  19921994.253    19921993.8414   19921998.9514
        -0.000          -0.000
 97  3  6 18  3 29.9970000  0  7 18  2  3 31 27 10 19               -0.002174131
  -1081781.991 9   -837658.41348  20151470.296    20151469.8284   20151475.0464
        -0.000          -0.000
 -16398160.025 9 -12763769.05747  22168972.743    22168971.8904   22168979.2314
        -0.000          -0.000
   -159419.315 9   -113409.77745  23282249.014    23282248.5954   23282254.2424
        -0.000          -0.000
  -9366328.916 9  -7280871.08948  20918737.260    20918736.6504   20918741.5334
        -0.000          -0.000
 -13878313.721 9 -10795084.41848  20858937.262    20858936.7694   20858941.8034
        -0.000          -0.000
  -9106038.861 9  -7078148.55246  23243413.756    23243413.0404   23243420.4614
        -0.000          -0.000
  -6663220.820 9  -5181909.68049  19915344.372    19915343.9944   19915349.1094
        -0.000          -0.000
 97  3  6 18  3 59.9970000  0  7 18  2  3 31 27 10 19               -0.002197683
  -1055734.610 9   -817361.78748  20156426.950    20156426.4964   20156431.7424
        -0.000          -0.000
 -16498611.303 9 -12842042.70647  22149857.442    22149856.5844   22149863.9484
        -0.000          -0.000
   -127805.282 9    -88775.48245  23288265.182    23288264.6414   23288270.0604
        -0.000          -0.000
  -9391246.233 9  -7300287.18548  20913995.596    20913995.0424   20913999.9444
        -0.000          -0.000
 -13970479.997 9 -10866902.28348  20841398.531    20841398.0514   20841403.1814
        -0.000          -0.000
  -9148438.086 9  -7111186.96646  23235345.549    23235344.7764   23235352.2124
        -0.000          -0.000
  -6697867.334 9  -5208906.97349  19908751.449    19908751.0284   19908756.1204
        -0.000          -0.000
 97  3  6 18  4 29.9970000  0  7 18  2  3 31 27 10 19               -0.002221130
  -1029071.805 9   -796585.61148  20161500.722    20161500.2944   20161505.5464
        -0.000          -0.000
 -16598643.948 9 -12919990.15947  22130821.733    22130820.9224   22130828.2474
        -0.000          -0.000
    -95615.659 9    -63692.70945  23294390.509    23294390.0004   23294395.5124
        -0.000          -0.000
  -9415414.675 9  -7319119.74148  20909396.488    20909395.9074   20909400.8234
        -0.000          -0.000
 -14062389.495 9 -10938520.06848  20823908.834    20823908.2984   20823913.3914
        -0.000          -0.000
  -9190182.953 9  -7143715.48346  23227401.877    23227400.9964   23227408.4274
        -0.000          -0.000
  -6732157.696 9  -5235626.74449  19902226.259    19902225.7964   19902230.8794
        -0.000          -0.000
 97  3  6 18  4 59.9970000  0  7 18  2  3 31 27 10 19               -0.002244484
  -1001825.863 9   -775355.04148  20166685.428    20166685.0144   20166690.3064
        -0.000          -0.000
 -16698279.523 9 -12997628.21247  22111861.614    22111860.8274   22111868.1544
        -0.000          -0.000
    -62880.622 9    -38184.88545  23300619.655    23300619.2364   23300624.8184
        -0.000          -0.000
  -9438842.799 9  -7337375.42348  20904938.314    20904937.7334   20904942.6234
        -0.000          -0.000
 -14154041.868 9 -11009937.48948  20806467.994    20806467.4234   20806472.5104
        -0.000          -0.000
  -9231294.173 9  -7175750.24746  23219578.832    23219577.8504   23219585.2994
        -0.000          -0.000
  -6766128.814 9  -5262097.75549  19895761.748    19895761.2814   19895766.3944
        -0.000          -0.000
 97  3  6 18  5 29.9970000  0  7 18  2  3 31 27 10 19               -0.002267748
   -974001.426 9   -753673.69448  20171980.259    20171979.7994   20171985.1214
        -0.000          -0.000
 -16797507.025 9 -13074948.28447  22092979.338    22092978.4794   22092985.7594
        -0.000          -0.000
    -29595.708 9    -12248.59045  23306953.598    23306953.2324   23306958.8914
        -0.000          -0.000
  -9461496.010 9  -7355027.27948  20900627.576    20900626.9574   20900631.8304
        -0.000          -0.000
 -14245404.917 9 -11081129.46348  20789082.018    20789081.5394   20789086.7044
        -0.000          -0.000
  -9271752.172 9  -7207276.02346  23211880.042    23211879.0304   23211886.4984
        -0.000          -0.000
  -6799759.359 9  -5288303.38049  19889362.025    19889361.6114   19889366.7114
        -0.000          -0.000
 97  3  6 18  5 59.9970000  0  7 18  2  3 31 27 10 19               -0.002290938
   -945599.798 9   -731542.59248  20177384.914    20177384.4974   20177389.8504
        -0.000          -0.000
 -16896341.111 9 -13151961.79147  22074171.865    22074171.0094   22074178.2254
        -0.000          -0.000
      4212.024 9     14095.08245  23313387.072    23313386.6484   23313392.3414
        -0.000          -0.000
  -9483389.809 9  -7372087.38448  20896461.316    20896460.6914   20896465.5504
        -0.000          -0.000
 -14336502.529 9 -11152114.60448  20771746.687    20771746.2394   20771751.3984
        -0.000          -0.000
  -9311590.202 9  -7238318.70746  23204299.328    23204298.2784   23204305.5764
        -0.000          -0.000
  -6833062.975 9  -5314254.25649  19883024.619    19883024.1894   19883029.2714
        -0.000          -0.000
 97  3  6 18  6 29.9970000  0  7 18  2  3 31 27 10 19               -0.002314060
   -916630.781 9   -708969.37048  20182897.639    20182897.2114   20182902.5404
        -0.000          -0.000
 -16994806.935 9 -13228688.33847  22055434.451    22055433.5514   22055440.8394
        -0.000          -0.000
     38528.760 8     40835.40445  23319917.395    23319916.9284   23319922.6364
        -0.000          -0.000
  -9504538.880 9  -7388567.17548  20892436.774    20892436.1574   20892441.0164
        -0.000          -0.000
 -14427363.787 9 -11222915.57348  20754456.379    20754455.8894   20754461.0334
        -0.000          -0.000
  -9350820.499 9  -7268887.81446  23196834.005    23196832.9174   23196840.3034
        -0.000          -0.000
  -6866058.995 9  -5339965.44649  19876745.694    19876745.2564   19876750.3674
        -0.000          -0.000
 97  3  6 18  6 59.9970000  0  7 18  2  3 31 27 10 19               -0.002337114
   -887094.144 9   -685953.85348  20188518.329    20188517.8704   20188523.1754
        -0.000          -0.000
 -17092921.953 9 -13305141.54147  22036763.598    22036762.7474   22036770.0794
        -0.000          -0.000
     73355.385 8     67973.01945  23326544.677    23326544.2194   23326550.1594
        -0.000          -0.000
  -9524963.208 9  -7404482.24248  20888550.203    20888549.5784   20888554.4084
        -0.000          -0.000
 -14517989.489 9 -11293532.99448  20737210.867    20737210.3984   20737215.5404
        -0.000          -0.000
  -9389429.771 9  -7298973.01646  23189486.801    23189485.8634   23189493.2014
        -0.000          -0.000
  -6898741.400 9  -5365432.27049  19870526.362    19870525.9814   19870531.1024
        -0.000          -0.000
 97  3  6 18  7 29.9970000  0  7 18  2  3 31 27 10 19               -0.002360109
   -857006.748 9   -662509.16748  20194243.758    20194243.3364   20194248.6314
        -0.000          -0.000
 -17190705.639 9 -13381336.56847  22018155.822    22018155.0394   22018162.3444
        -0.000          -0.000
    108676.307 8     95495.79245  23333266.058    23333265.5674   23333271.4134
        -0.000          -0.000
  -9544690.957 9  -7419854.51048  20884796.049    20884795.4674   20884800.3304
        -0.000          -0.000
 -14608418.854 9 -11363997.42648  20720002.729    20720002.2914   20720007.4434
        -0.000          -0.000
  -9427442.137 9  -7328593.10046  23182253.295    23182252.4004   23182259.7124
        -0.000          -0.000
  -6931124.371 9  -5390665.76249  19864364.101    19864363.7274   19864368.8274
        -0.000          -0.000
 97  3  6 18  7 59.9970000  0  7 18  2  3 31 27 10 19               -0.002383019
   -826330.927 9   -638605.97148  20200081.194    20200080.7654   20200086.0844
        -0.000          -0.000
 -17288121.839 9 -13457245.23247  21999618.111    21999617.3524   21999624.5834
        -0.000          -0.000
    144529.947 8    123433.66045  23340088.844    23340088.2934   23340094.1514
        -0.000          -0.000
  -9563709.471 9  -7434674.13148  20881177.019    20881176.4324   20881181.2414
        -0.000          -0.000
 -14698624.948 9 -11434287.88048  20702837.069    20702836.6254   20702841.7724
        -0.000          -0.000
  -9464827.462 9  -7357724.57646  23175139.330    23175138.3754   23175145.6614
        -0.000          -0.000
  -6963169.712 9  -5415636.16749  19858266.096    19858265.7194   19858270.8304
        -0.000          -0.000
 97  3  6 18  8 29.9970000  0  7 18  2  3 31 27 10 19               -0.002405862
   -795117.111 9   -614283.55448  20206020.988    20206020.5734   20206025.9354
        -0.000          -0.000
 -17385191.560 9 -13532883.91047  21981146.421    21981145.6004   21981152.7464
        -0.000          -0.000
    180891.641 8    151767.43145  23347008.112    23347007.6444   23347013.5534
        -0.000          -0.000
  -9582025.660 9  -7448946.48248  20877691.615    20877691.0154   20877695.8404
        -0.000          -0.000
 -14788617.638 9 -11504412.04448  20685712.099    20685711.6004   20685716.7184
        -0.000          -0.000
  -9501586.469 9  -7386368.00646  23168144.287    23168143.3284   23168150.8114
        -0.000          -0.000
  -6994886.029 9  -5440350.18549  19852230.708    19852230.3174   19852235.4694
        -0.000          -0.000
 97  3  6 18  8 59.9970000  0  7 18  2  3 31 27 10 19               -0.002428634
   -763356.456 9   -589535.02948  20212064.885    20212064.4294   20212069.8204
        -0.000          -0.000
 -17481892.678 9 -13608235.36647  21962744.742    21962743.8994   21962751.0564
        -0.000          -0.000
    217783.278 8    180514.13945  23354028.174    23354027.8834   23354033.7484
        -0.000          -0.000
  -9599596.098 9  -7462637.73348  20874348.085    20874347.4704   20874352.3064
        -0.000          -0.000
 -14878367.172 9 -11574346.73848  20668633.380    20668632.8234   20668637.9684
        -0.000          -0.000
  -9537695.159 9  -7414504.69446  23161273.028    23161272.0654   23161279.6594
        -0.000          -0.000
  -7026228.208 9  -5464772.67249  19846266.476    19846266.1064   19846271.2514
        -0.000          -0.000
 97  3  6 18  9 29.9970000  0  7 18  2  3 31 27 10 19               -0.002451321
   -731030.036 9   -564345.65048  20218216.416    20218215.9804   20218221.3984
        -0.000          -0.000
 -17578196.743 9 -13683277.44147  21944418.542    21944417.7464   21944424.9674
        -0.000          -0.000
    255218.530 8    209684.44045  23361151.749    23361151.5424   23361157.5474
        -0.000          -0.000
  -9616390.112 9  -7475723.97548  20871152.370    20871151.7324   20871156.5354
        -0.000          -0.000
 -14967862.872 9 -11644083.63748  20651602.863    20651602.3134   20651607.5204
        -0.000          -0.000
  -9573147.978 9  -7442130.34046  23154526.684    23154525.7064   23154533.3314
        -0.000          -0.000
  -7057172.048 9  -5488884.76149  19840378.101    19840377.7224   19840382.8404
        -0.000          -0.000
 97  3  6 18  9 59.9970000  0  7 18  2  3 31 27 10 19               -0.002473925
   -698127.845 9   -538707.61848  20224477.620    20224477.1464   20224482.5464
        -0.000          -0.000
 -17674100.866 9 -13758007.87047  21926168.487    21926167.7604   21926174.9654
        -0.000          -0.000
    293190.181 9    239272.70146  23368377.658    23368377.3994   23368383.4684
        -0.000          -0.000
  -9632399.654 9  -7488198.94148  20868105.847    20868105.1914   20868110.0174
        -0.000          -0.000
 -15057092.353 9 -11713613.09448  20634623.035    20634622.5284   20634627.6714
        -0.000          -0.000
  -9607943.159 9  -7469243.53746  23147905.439    23147904.4194   23147911.8964
        -0.000          -0.000
  -7087718.608 9  -5512687.28449  19834565.345    19834564.9464   19834570.0384
        -0.000          -0.000
 97  3  6 18 10 29.9970000  0  7 18  2  3 31 27 10 19               -0.002496452
   -664654.294 9   -512624.36948  20230847.456    20230847.0064   20230852.3594
        -0.000          -0.000
 -17769633.302 9 -13832448.66647  21907989.349    21907988.5454   21907995.6564
        -0.000          -0.000
    331679.321 8    269264.22146  23375702.106    23375701.6694   23375707.7094
        -0.000          -0.000
  -9647632.191 9  -7500068.44548  20865207.171    20865206.5284   20865211.3934
        -0.000          -0.000
 -15146065.167 9 -11782942.55048  20617692.019    20617691.4994   20617696.6694
        -0.000          -0.000
  -9642092.997 9  -7495853.86146  23141406.994    23141405.9484   23141413.4484
        -0.000          -0.000
  -7117896.346 9  -5536202.41449  19828822.654    19828822.2624   19828827.3574
        -0.000          -0.000
 97  3  6 18 10 59.9970000  0  7 18  2  3 31 27 10 19               -0.002518886
   -630564.688 9   -486061.08248  20237334.530    20237334.0954   20237339.4324
        -0.000          -0.000
 -17864782.247 9 -13906590.64447  21889883.149    21889882.2804   21889889.3564
        -0.000          -0.000
    370704.279 9    299673.24946  23383128.404    23383127.9874   23383133.9874
        -0.000          -0.000
  -9662094.734 9  -7511337.95748  20862455.022    20862454.3644   20862459.2624
        -0.000          -0.000
 -15234766.025 9 -11852060.09448  20600812.693    20600812.2444   20600817.4344
        -0.000          -0.000
  -9675598.459 9  -7521962.07046  23135031.035    23135030.1024   23135037.6624
        -0.000          -0.000
  -7147706.910 9  -5559431.43449  19823149.905    19823149.5294   19823154.6074
        -0.000          -0.000
 97  3  6 18 11 29.9970000  0  7 18  2  3 31 27 10 19               -0.002541218
   -595836.696 9   -459000.35448  20243943.102    20243942.6504   20243947.9854
        -0.000          -0.000
 -17959530.014 9 -13980420.01547  21871853.181    21871852.3224   21871859.4054
        -0.000          -0.000
    410260.146 9    330496.00546  23390655.626    23390655.2864   23390661.3224
        -0.000          -0.000
  -9675793.459 9  -7522012.28248  20859848.138    20859847.5284   20859852.4654
        -0.000          -0.000
 -15323185.944 9 -11920958.71848  20583987.097    20583986.5534   20583991.6734
        -0.000          -0.000
  -9708457.754 9  -7547566.77046  23128778.276    23128777.2914   23128784.8614
        -0.000          -0.000
  -7177160.728 9  -5582382.46449  19817545.065    19817544.6694   19817549.7424
        -0.000          -0.000
 97  3  6 18 11 59.9970000  0  7 18  2  3 31 27 10 19               -0.002563459
   -560495.993 9   -431462.17848  20250668.227    20250667.7844   20250673.1174
        -0.000          -0.000
 -18053906.771 9 -14053960.29247  21853893.762    21853892.9154   21853900.0714
        -0.000          -0.000
    450330.555 9    361719.68246  23398280.793    23398280.4074   23398286.4384
        -0.000          -0.000
  -9688750.067 9  -7532108.33748  20857382.597    20857381.9654   20857386.8594
        -0.000          -0.000
 -15411331.936 9 -11989643.90048  20567213.478    20567212.8854   20567218.0144
        -0.000          -0.000
  -9740678.831 9  -7572674.17446  23122647.055    23122645.9354   23122653.5544
        -0.000          -0.000
  -7206279.122 9  -5605072.13249  19812004.003    19812003.6054   19812008.6864
        -0.000          -0.000
 97  3  6 18 12 29.9970000  0  7 18  2  3 31 27 10 19               -0.002585622
   -524570.338 9   -403468.19848  20257504.689    20257504.2224   20257509.5954
        -0.000          -0.000
 -18147912.896 9 -14127211.76247  21836004.871    21836004.0994   21836011.2524
        -0.000          -0.000
    490909.150 9    393339.36646  23406002.957    23406002.4114   23406008.3294
        -0.000          -0.000
  -9700973.643 9  -7541633.19248  20855056.545    20855055.9054   20855060.7964
        -0.000          -0.000
 -15499210.880 9 -12058120.98448  20550490.617    20550490.0624   20550495.2334
        -0.000          -0.000
  -9772276.808 9  -7597296.04546  23116634.114    23116633.1184   23116640.6724
        -0.000          -0.000
  -7235049.068 9  -5627490.27649  19806529.315    19806528.9054   19806533.9794
        -0.000          -0.000
 97  3  6 18 12 59.9970000  0  7 18  2  3 31 27 10 19               -0.002607712
   -488068.711 9   -375025.41448  20264450.703    20264450.2434   20264455.6474
        -0.000          -0.000
 -18241519.369 9 -14200151.82147  21818192.175    21818191.3704   21818198.4604
        -0.000          -0.000
    532000.267 9    425358.39646  23413822.374    23413821.7984   23413827.6074
        -0.000          -0.000
  -9712457.994 9  -7550582.03348  20852871.131    20852870.5284   20852875.3754
        -0.000          -0.000
 -15586816.276 9 -12126384.92348  20533819.811    20533819.2734   20533824.4604
        -0.000          -0.000
  -9803252.456 9  -7621432.97546  23110739.588    23110738.6894   23110746.1804
        -0.000          -0.000
  -7263441.678 9  -5649614.39549  19801126.410    19801125.9764   19801131.0394
        -0.000          -0.000
 97  3  6 18 13 29.9970000  0  7 18  2  3 31 27 10 19               -0.002629753
   -451055.916 9   -346184.31148  20271494.035    20271493.5974   20271499.0454
        -0.000          -0.000
 -18334763.379 9 -14272809.42947  21800448.375    21800447.5544   21800454.5874
        -0.000          -0.000
    573571.578 9    457751.59946  23421733.132    23421732.6814   23421738.3104
        -0.000          -0.000
  -9723229.583 9  -7558975.47448  20850821.458    20850820.8074   20850825.6154
        -0.000          -0.000
 -15674190.637 9 -12194468.83148  20517192.954    20517192.4734   20517197.6534
        -0.000          -0.000
  -9833641.715 9  -7645112.98046  23104956.676    23104955.8724   23104963.3304
        -0.000          -0.000
  -7291485.961 9  -5671467.09249  19795789.730    19795789.3204   19795794.3804
        -0.000          -0.000
 97  3  6 18 13 59.9970000  0  7 18  2  3 31 27 10 19               -0.002651729
   -413531.966 9   -316944.90948  20278634.654    20278634.1944   20278639.6814
        -0.000          -0.000
 -18427630.618 9 -14345173.45347  21782776.335    21782775.4684   21782782.4554
        -0.000          -0.000
    615652.164 9    490541.64946  23429740.807    23429740.3684   23429745.9424
        -0.000          -0.000
  -9733278.605 9  -7566805.87148  20848909.181    20848908.5614   20848913.3604
        -0.000          -0.000
 -15761327.536 9 -12262367.70148  20500611.402    20500610.9424   20500616.1104
        -0.000          -0.000
  -9863425.643 9  -7668321.28746  23099289.138    23099288.1754   23099295.8324
        -0.000          -0.000
  -7319154.628 9  -5693027.09449  19790524.572    19790524.1854   19790529.2544
        -0.000          -0.000
 97  3  6 18 14 29.9970000  0  7 18  2  3 31 27 10 19               -0.002673613
   -375458.784 9   -287277.53348  20285879.759    20285879.3484   20285884.8094
        -0.000          -0.000
 -18520076.258 9 -14417208.96647  21765184.427    21765183.5774   21765190.6024
        -0.000          -0.000
    658275.136 9    523754.33945  23437851.781    23437851.3134   23437856.7534
        -0.000          -0.000
  -9742576.583 9  -7574051.04148  20847139.786    20847139.1664   20847144.0034
        -0.000          -0.000
 -15848206.715 9 -12330065.75448  20484078.851    20484078.3784   20484083.5674
        -0.000          -0.000
  -9892579.856 9  -7691038.92646  23093741.234    23093740.3864   23093747.9164
        -0.000          -0.000
  -7346418.288 9  -5714271.51949  19785336.489    19785336.0774   19785341.1814
        -0.000          -0.000
 97  3  6 18 14 59.9970000  0  7 18  2  3 31 27 10 19               -0.002695417
   -336866.541 9   -257205.69048  20293223.719    20293223.2544   20293228.7144
        -0.000          -0.000
 -18612150.874 9 -14488955.36748  21747663.083    21747662.3274   21747669.3354
        -0.000          -0.000
    701396.604 9    557355.46845  23446057.547    23446057.1424   23446062.4324
        -0.000          -0.000
  -9751168.152 9  -7580745.76448  20845504.916    20845504.2784   20845509.1024
        -0.000          -0.000
 -15934871.846 9 -12397597.01148  20467587.052    20467586.5554   20467591.7014
        -0.000          -0.000
  -9921136.991 9  -7713291.30246  23088307.060    23088306.1184   23088313.6234
        -0.000          -0.000
  -7373340.224 9  -5735249.65749  19780213.472    19780213.0234   19780218.0854
        -0.000          -0.000
 97  3  6 18 15 29.9970000  0  7 18  2  3 31 27 10 19               -0.002717135
   -297746.571 9   -226722.63948  20300668.004    20300667.5504   20300673.0114
        -0.000          -0.000
 -18703862.951 9 -14560419.27248  21730210.819    21730210.0394   21730217.0464
        -0.000          -0.000
    745007.667 8    591338.08345  23454356.480    23454356.1474   23454361.4804
        -0.000          -0.000
  -9759054.721 9  -7586891.12948  20844004.086    20844003.4874   20844008.3604
        -0.000          -0.000
 -16021328.377 9 -12464965.72748  20451134.932    20451134.4044   20451139.5704
        -0.000          -0.000
  -9949086.695 9  -7735070.35446  23082988.441    23082987.5194   23082995.0284
        -0.000          -0.000
  -7399929.790 9  -5755968.80849  19775153.663    19775153.2264   19775158.2784
        -0.000          -0.000
 97  3  6 18 15 59.9970000  0  7 18  2  3 31 27 10 19               -0.002738786
   -258094.507 9   -195824.96448  20308213.506    20308213.0474   20308218.5804
        -0.000          -0.000
 -18795226.606 9 -14631611.68448  21712825.011    21712824.1154   21712831.0464
        -0.000          -0.000
    789079.631 8    625679.85445  23462742.957    23462742.7714   23462748.1994
        -0.000          -0.000
  -9766262.919 9  -7592507.90648  20842632.402    20842631.8064   20842636.7064
        -0.000          -0.000
 -16107572.856 9 -12532169.20948  20434723.126    20434722.6464   20434727.8134
        -0.000          -0.000
  -9976442.944 9  -7756386.99146  23077782.906    23077781.9344   23077789.3794
        -0.000          -0.000
  -7426196.785 9  -5776436.60549  19770155.211    19770154.7774   19770159.8124
        -0.000          -0.000
 97  3  6 18 16 29.9970000  0  7 18  2  3 31 27 10 19               -0.002760390
   -217916.736 9   -164517.64448  20315859.082    20315858.6534   20315864.1964
        -0.000          -0.000
 -18886259.034 9 -14702545.99048  21695502.107    21695501.1774   21695508.0894
        -0.000          -0.000
    833581.439 8    660356.58645  23471211.151    23471210.9994   23471216.6444
        -0.000          -0.000
  -9772798.155 9  -7597600.29348  20841388.785    20841388.1574   20841393.0524
        -0.000          -0.000
 -16193589.956 9 -12599195.51448  20418354.604    20418354.1384   20418359.3084
        -0.000          -0.000
 -10003230.763 9  -7777260.67846  23072685.568    23072684.4824   23072692.0144
        -0.000          -0.000
  -7452168.219 9  -5796674.09349  19765213.048    19765212.5884   19765217.6434
        -0.000          -0.000
 97  3  6 18 16 59.9970000  0  7 18  2  3 31 27 10 19               -0.002781961
   -177209.462 9   -132797.72548  20323605.523    20323605.0514   20323610.5744
        -0.000          -0.000
 -18976965.104 9 -14773225.99548  21678241.197    21678240.3664   21678247.1924
        -0.000          -0.000
    878502.629 8    695360.08945  23479758.985    23479759.0214   23479764.7654
        -0.000          -0.000
  -9778645.603 9  -7602156.74148  20840276.034    20840275.4774   20840280.3474
        -0.000          -0.000
 -16279358.450 9 -12666028.09948  20402033.414    20402032.9364   20402038.0824
        -0.000          -0.000
 -10029445.571 9  -7797687.86746  23067696.979    23067695.9774   23067703.6374
        -0.000          -0.000
  -7477828.203 9  -5816668.89449  19760330.101    19760329.6384   19760334.7254
        -0.000          -0.000
 97  3  6 18 17 29.9970000  0  7 18  2  3 31 27 10 19               -0.002803514
   -135999.802 9   -100686.33848  20331447.539    20331447.0624   20331452.5834
        -0.000          -0.000
 -19067362.678 9 -14843665.62148  21661039.158    21661038.3154   21661045.0554
        -0.000          -0.000
    923832.667 8    730682.20145  23488384.984    23488384.9794   23488390.8184
        -0.000          -0.000
  -9783815.094 9  -7606184.91648  20839292.390    20839291.7484   20839296.6004
        -0.000          -0.000
 -16364880.346 9 -12732668.53048  20385759.206    20385758.6934   20385763.8194
        -0.000          -0.000
 -10055112.322 9  -7817687.99746  23062812.492    23062811.6974   23062819.4794
        -0.000          -0.000
  -7503189.750 9  -5836431.15149  19755503.909    19755503.4704   19755508.5824
        -0.000          -0.000
 97  3  6 18 17 59.9970000  0  7 18  2  3 31 27 10 19               -0.002825082
    -94352.596 9    -68234.00848  20339372.844    20339372.3354   20339377.8454
        -0.000          -0.000
 -19157509.057 9 -14913909.50048  21643884.947    21643884.0114   21643890.7594
        -0.000          -0.000
    969528.265 8    766289.12745  23497080.836    23497080.6494   23497086.3614
        -0.000          -0.000
  -9788352.212 9  -7609720.33148  20838428.977    20838428.3564   20838433.2124
        -0.000          -0.000
 -16450199.467 9 -12799150.95748  20369523.493    20369523.0134   20369528.1354
        -0.000          -0.000
 -10080289.820 9  -7837306.88446  23058021.483    23058020.5754   23058028.4284
        -0.000          -0.000
  -7528310.385 9  -5856005.68449  19750723.600    19750723.1794   19750728.2734
        -0.000          -0.000
 97  3  6 18 18 29.9970000  0  7 18  2  3 31 27 10 19               -0.002846653
    -52275.476 9    -35446.68548  20347379.849    20347379.3824   20347384.9144
        -0.000          -0.000
 -19247409.112 9 -14983961.43848  21626777.535    21626776.5844   21626783.2834
        -0.000          -0.000
   1015593.248 8    802183.89645  23505846.937    23505846.6214   23505852.1584
        -0.000          -0.000
  -9792234.033 9  -7612745.12648  20837690.330    20837689.6884   20837694.5584
        -0.000          -0.000
 -16535337.871 9 -12865492.56248  20353322.135    20353321.6794   20353326.8204
        -0.000          -0.000
 -10104977.755 9  -7856544.31246  23053323.700    23053322.8064   23053330.4384
        -0.000          -0.000
  -7553187.285 9  -5875390.28949  19745989.716    19745989.2864   19745994.3524
        -0.000          -0.000
 97  3  6 18 18 59.9970000  0  7 18  2  3 31 27 10 19               -0.002868242
     -9810.618 9     -2357.23148  20355460.633    20355460.1784   20355465.7574
        -0.000          -0.000
 -19337103.935 9 -15053853.44648  21609709.011    21609708.1704   21609714.9074
        -0.000          -0.000
   1061992.558 8    838339.14245  23514676.247    23514676.0984   23514681.7054
        -0.000          -0.000
  -9795503.436 9  -7615292.71948  20837068.197    20837067.5284   20837072.4404
        -0.000          -0.000
 -16620367.362 9 -12931749.30448  20337141.572    20337141.1104   20337146.2244
        -0.000          -0.000
 -10129206.031 9  -7875423.55646  23048713.349    23048712.4294   23048719.9924
        -0.000          -0.000
  -7577847.469 9  -5894606.02049  19741297.018    19741296.5554   19741301.6564
        -0.000          -0.000
 97  3  6 18 19 29.9970000  0  7 18  2  3 31 27 10 19               -0.002889838
     33023.424 9     31019.90648  20363611.724    20363611.2254   20363616.8254
        -0.000          -0.000
 -19426605.456 9 -15123594.83948  21592677.314    21592676.5714   21592683.3174
        -0.000          -0.000
   1108717.019 8    874747.83445  23523567.655    23523567.6524   23523572.9294
        -0.000          -0.000
  -9798192.723 9  -7617388.26448  20836556.471    20836555.8224   20836560.7204
        -0.000          -0.000
 -16705325.318 9 -12997950.29848  20320974.688    20320974.1524   20320979.2534
        -0.000          -0.000
 -10152984.260 9  -7893952.11646  23044188.380    23044187.5314   23044195.2754
        -0.000          -0.000
  -7602319.174 9  -5913674.88949  19736640.188    19736639.7694   19736644.9064
        -0.000          -0.000
 97  3  6 18 19 59.9970000  0  7 18  2  3 31 27 10 19               -0.002911434
     76246.916 9     64700.50748  20371836.916    20371836.4314   20371842.0114
        -0.000          -0.000
 -19515898.028 9 -15193173.41748  21575685.448    21575684.7054   21575691.4774
        -0.000          -0.000
   1155753.844 8    911399.90645  23532518.585    23532518.4964   23532523.8764
        -0.000          -0.000
  -9800300.402 9  -7619030.62448  20836155.422    20836154.7904   20836159.6344
        -0.000          -0.000
 -16790219.062 9 -13064101.26248  20304819.925    20304819.3864   20304824.4784
        -0.000          -0.000
 -10176295.432 9  -7912116.74446  23039752.595    23039751.5924   23039759.2714
        -0.000          -0.000
  -7626582.844 9  -5932581.65749  19732022.997    19732022.5554   19732027.7214
        -0.000          -0.000
 97  3  6 18 20 29.9970000  0  7 18  2  3 31 27 10 19               -0.002933023
    119886.375 9     98705.23848  20380141.265    20380140.7624   20380146.3404
        -0.000          -0.000
 -19604950.274 9 -15262564.72248  21558739.436    21558738.5964   21558745.4134
        -0.000          -0.000
   1203109.362 8    948300.22845  23541530.440    23541529.9774   23541535.5064
        -0.000          -0.000
  -9801825.404 9  -7620218.93848  20835865.297    20835864.6214   20835869.4644
        -0.000          -0.000
 -16875021.117 9 -13130180.78148  20288682.631    20288682.1184   20288687.2284
        -0.000          -0.000
 -10199117.809 9  -7929900.49846  23035409.933    23035408.7384   23035416.3904
        -0.000          -0.000
  -7650608.926 9  -5951303.28649  19727451.015    19727450.5604   19727455.7334
        -0.000          -0.000
 97  3  6 18 20 59.9970000  0  7 18  2  3 31 27 10 19               -0.002954624
    163902.946 9    133003.81948  20388517.361    20388516.8534   20388522.4364
        -0.000          -0.000
 -19693772.284 9 -15331776.62648  21541837.203    21541836.3174   21541843.0914
        -0.000          -0.000
   1250754.360 9    985426.18645  23550597.243    23550596.6114   23550602.0764
        -0.000          -0.000
  -9802833.125 9  -7621004.18448  20835673.490    20835672.8444   20835677.6954
        -0.000          -0.000
 -16959747.471 9 -13196201.30948  20272559.683    20272559.2094   20272564.3164
        -0.000          -0.000
 -10221474.926 9  -7947321.69446  23031155.847    23031154.4044   23031162.0224
        -0.000          -0.000
  -7674435.228 9  -5969869.24249  19722917.023    19722916.5594   19722921.7004
        -0.000          -0.000
 97  3  6 18 21 29.9970000  0  7 18  2  3 31 27 10 19               -0.002976277
    208242.258 9    167553.88148  20396954.882    20396954.4024   20396959.9974
        -0.000          -0.000
 -19782405.123 9 -15400841.13148  21524970.877    21524970.0144   21524976.7794
        -0.000          -0.000
   1298644.352 9   1022743.03945  23559710.372    23559709.8324   23559715.2824
        -0.000          -0.000
  -9803377.047 9  -7621428.03248  20835569.966    20835569.3054   20835574.1814
        -0.000          -0.000
 -17044420.966 9 -13262180.65048  20256446.911    20256446.4044   20256451.4854
        -0.000          -0.000
 -10243420.418 9  -7964422.14446  23026979.663    23026978.3154   23026986.0094
        -0.000          -0.000
  -7698109.357 9  -5988316.62349  19718411.997    19718411.5584   19718416.6564
        -0.000          -0.000
 97  3  6 18 21 59.9970000  0  7 18  2  3 31 27 10 19               -0.002997985
    252911.607 9    202361.11748  20405455.284    20405454.7774   20405460.3504
        -0.000          -0.000
 -19870845.418 9 -15469755.58748  21508141.111    21508140.2944   21508147.1114
        -0.000          -0.000
   1346795.884 9   1060263.69645  23568873.402    23568872.7694   23568878.3594
        -0.000          -0.000
  -9803442.380 9  -7621478.94748  20835557.532    20835556.8644   20835561.8084
        -0.000          -0.000
 -17129010.557 9 -13328094.60848  20240350.162    20240349.5884   20240354.6374
        -0.000          -0.000
 -10264955.917 9  -7981203.12346  23022881.513    23022880.2524   23022888.0064
        -0.000          -0.000
  -7721610.351 9  -6006629.09049  19713939.981    19713939.5144   19713944.6114
        -0.000          -0.000
 97  3  6 18 22 29.9970000  0  7 18  2  3 31 27 10 19               -0.003019713
    297939.405 9    237447.66648  20414023.888    20414023.3764   20414028.8834
        -0.000          -0.000
 -19959048.587 9 -15538485.28948  21491356.590    21491355.7244   21491362.5674
        -0.000          -0.000
   1395274.166 9   1098039.00245  23578098.340    23578097.9034   23578103.5144
        -0.000          -0.000
  -9802991.306 9  -7621127.47048  20835643.397    20835642.7644   20835647.6414
        -0.000          -0.000
 -17213469.153 9 -13393906.49948  20224278.177    20224277.6244   20224282.7074
        -0.000          -0.000
 -10286047.671 9  -7997638.32846  23018867.909    23018866.6904   23018874.4104
        -0.000          -0.000
  -7744901.282 9  -6024777.87649  19709507.905    19709507.4224   19709512.5464
        -0.000          -0.000
 97  3  6 18 22 59.9960000  0  7 18  2  3 31 27 10 19               -0.003041487
    343275.764 9    272774.65148  20422651.181    20422650.6334   20422656.1164
        -0.000          -0.000
 -20047075.824 9 -15607077.89448  21474605.497    21474604.6514   21474611.5554
        -0.000          -0.000
   1444033.386 8   1136033.21845  23587376.924    23587376.3504   23587382.4014
        -0.000          -0.000
  -9802052.323 9  -7620395.80448  20835822.083    20835821.4214   20835826.2874
        -0.000          -0.000
 -17297854.635 9 -13459661.41148  20208220.157    20208219.6214   20208224.6884
        -0.000          -0.000
 -10306756.546 9  -8013775.19546  23014927.418    23014926.1584   23014933.8174
        -0.000          -0.000
  -7768034.734 9  -6042803.95649  19705105.718    19705105.2504   19705110.3954
        -0.000          -0.000
 97  3  6 18 23 29.9960000  0  7 18  2  3 31 27 10 19               -0.003063318
    388932.137 9    308350.99448  20431339.266    20431338.7294   20431344.2584
        -0.000          -0.000
 -20134951.468 9 -15675552.37548  21457883.310    21457882.4674   21457889.3484
        -0.000          -0.000
   1493074.745 9   1174247.24345  23596709.070    23596708.5584   23596714.6984
        -0.000          -0.000
  -9800591.103 9  -7619257.20648  20836100.214    20836099.5384   20836104.3894
        -0.000          -0.000
 -17382156.847 9 -13525351.44448  20192178.057    20192177.4364   20192182.4924
        -0.000          -0.000
 -10327096.364 9  -8029624.47046  23011057.027    23011055.7984   23011063.4074
        -0.000          -0.000
  -7790997.878 9  -6060697.32949  19700735.995    19700735.5254   19700740.6474
        -0.000          -0.000
 97  3  6 18 23 59.9960000  0  7 18  2  3 31 27 10 19               -0.003085232
    434860.188 9    344139.03048  20440079.117    20440078.5884   20440084.1454
        -0.000          -0.000
 -20222711.306 9 -15743936.61348  21441183.172    21441182.3284   21441189.1994
        -0.000          -0.000
   1542342.423 8   1212637.62345  23606084.586    23606084.0684   23606090.0424
        -0.000          -0.000
  -9798649.507 9  -7617744.28048  20836469.689    20836469.0424   20836473.8854
        -0.000          -0.000
 -17466427.315 9 -13591016.74048  20176141.849    20176141.2784   20176146.3204
        -0.000          -0.000
 -10347106.959 9  -8045217.21846  23007249.059    23007247.9344   23007255.5334
        -0.000          -0.000
  -7813832.596 9  -6078490.62749  19696390.675    19696390.2234   19696395.3324
        -0.000          -0.000
 97  3  6 18 24 29.9960000  0  7 18  2  3 31 27 10 19               -0.003107243
    481040.823 9    380123.89548  20448867.035    20448866.5244   20448872.0904
        -0.000          -0.000
 -20310363.775 9 -15812237.19548  21424503.497    21424502.5854   21424509.4454
        -0.000          -0.000
   1591795.283 8   1251172.29945  23615494.925    23615494.5344   23615500.5184
        -0.000          -0.000
  -9796231.077 9  -7615859.79848  20836929.975    20836929.2844   20836934.0364
        -0.000          -0.000
 -17550679.919 9 -13656668.10748  20160109.124    20160108.5874   20160113.6084
        -0.000          -0.000
 -10366793.932 9  -8060557.79646  23003502.648    23003501.6474   23003509.3424
        -0.000          -0.000
  -7836554.139 9  -6096195.73449  19692066.950    19692066.5064   19692071.5964
        -0.000          -0.000
 97  3  6 18 24 59.9960000  0  7 18  2  3 31 27 10 19               -0.003129342
    527506.414 9    416330.79248  20457709.195    20457708.6834   20457714.2744
        -0.000          -0.000
 -20397885.166 9 -15880435.62948  21407848.650    21407847.7654   21407854.5724
        -0.000          -0.000
   1641443.131 8   1289858.95645  23624942.172    23624942.1444   23624948.1984
        -0.000          -0.000
  -9793302.874 9  -7613578.08348  20837487.183    20837486.5184   20837491.2484
        -0.000          -0.000
 -17634872.183 9 -13722272.46148  20144087.960    20144087.3294   20144092.3644
        -0.000          -0.000
 -10386117.224 9  -8075614.98046  22999825.487    22999824.6124   22999832.2424
        -0.000          -0.000
  -7859122.680 9  -6113781.62149  19687772.311    19687771.8494   19687776.9554
        -0.000          -0.000
 97  3  6 18 25 29.9960000  0  7 18  2  3 31 27 10 19               -0.003151536
    574226.684 9    452736.14948  20466599.821    20466599.2984   20466604.9054
        -0.000          -0.000
 -20485275.529 9 -15948531.97148  21391218.827    21391217.9284   21391224.6234
        -0.000          -0.000
   1691265.458 8   1328681.49445  23634423.365    23634422.8004   23634428.9734
        -0.000          -0.000
  -9789898.645 9  -7610925.45048  20838135.040    20838134.3204   20838139.0484
        -0.000          -0.000
 -17719019.212 9 -13787841.56748  20128075.235    20128074.6444   20128079.6874
        -0.000          -0.000
 -10405086.762 9  -8090396.51846  22996215.631    22996214.7824   22996222.5624
        -0.000          -0.000
  -7881553.894 9  -6131260.50549  19683503.806    19683503.3444   19683508.4474
        -0.000          -0.000
 97  3  6 18 25 59.9960000  0  7 18  2  3 31 27 10 19               -0.003173809
    621207.221 9    489344.31348  20475539.947    20475539.4194   20475545.0734
        -0.000          -0.000
 -20572511.142 9 -16016507.71948  21374618.451    21374617.5504   21374624.1604
        -0.000          -0.000
   1741274.818 8   1367649.79045  23643940.213    23643939.4314   23643945.3384
        -0.000          -0.000
  -9786007.693 9  -7607893.53648  20838875.423    20838874.7474   20838879.5304
        -0.000          -0.000
 -17803126.456 9 -13853379.66848  20112070.148    20112069.5744   20112074.6064
        -0.000          -0.000
 -10423678.132 9  -8104883.35946  22992677.816    22992677.0314   22992684.7454
        -0.000          -0.000
  -7903836.368 9  -6148623.48749  19679263.616    19679263.1304   19679268.2694
        -0.000          -0.000
 97  3  6 18 26 29.9960000  0  7 18  2  3 31 27 10 19               -0.003196167
    668435.314 9    526145.37348  20484527.196    20484526.6974   20484532.3904
        -0.000          -0.000
 -20659611.752 9 -16084378.27848  21358043.744    21358042.8154   21358049.3704
        -0.000          -0.000
   1791458.654 8   1406754.07745  23653490.002    23653489.3894   23653494.9734
        -0.000          -0.000
  -9781641.374 9  -7604491.21747  20839706.276    20839705.6024   20839710.4214
        -0.000          -0.000
 -17887200.775 9 -13918892.12348  20096071.273    20096070.7104   20096075.7884
        -0.000          -0.000
 -10441908.380 9  -8119088.81946  22989208.984    22989207.9624   22989215.7004
        -0.000          -0.000
  -7925986.612 9  -6165883.43549  19675048.535    19675048.0884   19675053.2524
        -0.000          -0.000
 97  3  6 18 26 59.9960000  0  7 18  2  3 31 27 10 19               -0.003218591
    715928.380 9    563152.90448  20493564.864    20493564.3704   20493570.0444
        -0.000          -0.000
 -20746549.084 9 -16152121.61148  21341500.089    21341499.1184   21341505.7264
        -0.000          -0.000
   1841858.888 8   1446026.96745  23663080.930    23663080.2114   23663085.8824
        -0.000          -0.000
  -9776788.437 9  -7600709.71247  20840629.711    20840629.0134   20840633.8764
        -0.000          -0.000
 -17971230.100 9 -13984369.51248  20080081.055    20080080.4894   20080085.5354
        -0.000          -0.000
 -10459776.738 9  -8133012.30246  22985808.886    22985807.7464   22985815.5414
        -0.000          -0.000
  -7947987.763 9  -6183027.20149  19670861.878    19670861.4264   19670866.6004
        -0.000          -0.000
 97  3  6 18 27 29.9960000  0  6 18  2 31 27 10 19                  -0.003241135
    763643.174 9    600333.21648  20502644.728    20502644.2354   20502649.8744
        -0.000          -0.000
 -20833364.920 9 -16219770.27048  21324979.482    21324978.5344   21324985.1564
        -0.000          -0.000
  -9771474.346 9  -7596568.85947  20841640.906    20841640.2334   20841645.1304
        -0.000          -0.000
 -18055265.633 9 -14049851.73548  20064089.643    20064089.0404   20064094.0844
        -0.000          -0.000
 -10477339.935 9  -8146697.96946  22982466.682    22982465.6614   22982473.3644
        -0.000          -0.000
  -7969893.136 9  -6200096.33648  19666693.422    19666692.9624   19666698.1064
        -0.000          -0.000
 97  3  6 18 27 59.9960000  0  6 18  2 31 27 10 19                  -0.003263670
    811596.735 9    637699.57348  20511770.089    20511769.5574   20511775.1804
        -0.000          -0.000
 -20920078.659 9 -16287339.37648  21308478.406    21308477.4184   21308484.0404
        -0.000          -0.000
  -9765692.765 9  -7592063.73847  20842741.138    20842740.4314   20842745.3484
        -0.000          -0.000
 -18139292.913 9 -14115327.52948  20048099.737    20048099.1704   20048104.2444
        -0.000          -0.000
 -10494590.107 9  -8160139.73146  22979183.985    22979183.0434   22979190.8934
        -0.000          -0.000
  -7991701.991 9  -6217090.25948  19662543.359    19662542.8854   19662548.0024
        -0.000          -0.000
 97  3  6 18 28 29.9960000  0  6 18  2 31 27 10 19                  -0.003286297
    859799.319 9    675259.97548  20520942.754    20520942.2374   20520947.8004
        -0.000          -0.000
 -21006700.538 9 -16354836.90548  21291994.766    21291993.7894   21292000.4094
        -0.000          -0.000
  -9759470.781 9  -7587215.44948  20843925.123    20843924.4024   20843929.3564
        -0.000          -0.000
 -18223301.863 9 -14180789.04348  20032113.455    20032112.8174   20032117.8684
        -0.000          -0.000
 -10511543.630 9  -8173350.32846  22975957.972    22975956.8964   22975964.8144
        -0.000          -0.000
  -8013429.141 9  -6234020.52448  19658408.809    19658408.3474   19658413.4954
        -0.000          -0.000
 97  3  6 18 28 59.9960000  0  6 18  2 31 27 10 19                  -0.003308992
    908291.577 9    713046.10248  20530170.569    20530170.0394   20530175.6364
        -0.000          -0.000
 -21093201.740 9 -16422240.39148  21275534.053    21275533.1154   21275539.7604
        -0.000          -0.000
  -9752780.033 9  -7582001.87548  20845198.330    20845197.6204   20845202.5694
        -0.000          -0.000
 -18307254.241 9 -14246206.47148  20016137.778    20016137.1874   20016142.2434
        -0.000          -0.000
 -10528164.147 9  -8186301.45346  22972795.370    22972794.2554   22972802.1164
        -0.000          -0.000
  -8035035.137 9  -6250856.37749  19654297.324    19654296.8544   19654302.0454
        -0.000          -0.000
 97  3  6 18 29 29.9960000  0  6 18  2 31 27 10 19                  -0.003331750
    957077.132 9    751060.77148  20539454.123    20539453.5824   20539459.2434
        -0.000          -0.000
 -21179593.798 9 -16489558.84248  21259094.046    21259093.1564   21259099.8674
        -0.000          -0.000
  -9745632.700 9  -7576432.53148  20846558.426    20846557.7194   20846562.6774
        -0.000          -0.000
 -18391136.530 9 -14311569.28748  20000175.440    20000174.8974   20000179.9524
        -0.000          -0.000
 -10544431.532 9  -8198977.41046  22969700.074    22969698.7984   22969706.7024
        -0.000          -0.000
  -8056513.060 9  -6267592.43749  19650210.234    19650209.7834   19650214.9764
        -0.000          -0.000
 97  3  6 18 29 59.9960000  0  6 18  2 31 27 10 19                  -0.003354587
   1006167.269 9    789312.77048  20548795.672    20548795.1654   20548800.8654
        -0.000          -0.000
 -21265855.560 9 -16556775.76448  21242679.056    21242678.0704   21242684.8244
        -0.000          -0.000
  -9738045.043 9  -7570520.07748  20848002.326    20848001.6194   20848006.5774
        -0.000          -0.000
 -18474920.857 9 -14376855.77348  19984231.807    19984231.2654   19984236.3114
        -0.000          -0.000
 -10560325.522 9  -8211362.41346  22966675.494    22966674.3224   22966682.1084
        -0.000          -0.000
  -8077836.257 9  -6284207.93449  19646152.599    19646152.1224   19646157.3284
        -0.000          -0.000
 97  3  6 18 30 29.9960000  0  6 18  2 31 27 10 19                  -0.003377518
   1055539.947 9    827784.93148  20558191.008    20558190.4914   20558196.2334
        -0.000          -0.000
 -21351963.074 9 -16623872.49448  21226293.392    21226292.3834   21226299.0744
        -0.000          -0.000
  -9730023.712 9  -7564269.70148  20849528.779    20849528.0624   20849532.9974
        -0.000          -0.000
 -18558622.467 9 -14442077.80648  19968303.910    19968303.3914   19968308.4304
        -0.000          -0.000
 -10575862.587 9  -8223469.28446  22963718.996    22963717.7594   22963725.5424
        -0.000          -0.000
  -8099001.907 9  -6300700.66648  19642124.912    19642124.4404   19642129.6394
        -0.000          -0.000
 97  3  6 18 30 59.9960000  0  6 18  2 31 27 10 19                  -0.003400539
   1105169.647 9    866457.37048  20567635.214    20567634.7334   20567640.5344
        -0.000          -0.000
 -21437915.527 9 -16690848.38648  21209937.282    21209936.2274   21209942.8224
        -0.000          -0.000
  -9721560.469 9  -7557674.97348  20851139.242    20851138.5474   20851143.5224
        -0.000          -0.000
 -18642249.219 9 -14507241.49548  19952390.228    19952389.7084   19952394.7664
        -0.000          -0.000
 -10591042.430 9  -8235297.80246  22960830.216    22960829.1594   22960837.0334
        -0.000          -0.000
  -8119996.215 9  -6317059.87248  19638129.883    19638129.3964   19638134.5814
        -0.000          -0.000
 97  3  6 18 31 29.9960000  0  6 18  2 31 27 10 19                  -0.003423632
   1155083.322 9    905351.08048  20577133.547    20577133.0574   20577138.8824
        -0.000          -0.000
 -21523669.714 9 -16757669.79148  21193618.731    21193617.7444   21193624.2834
        -0.000          -0.000
  -9712623.918 9  -7550711.43548  20852839.877    20852839.1604   20852844.1184
        -0.000          -0.000
 -18725769.216 9 -14572322.00848  19936496.905    19936496.3914   19936501.4624
        -0.000          -0.000
 -10605836.495 9  -8246825.69646  22958015.093    22958014.0574   22958021.9094
        -0.000          -0.000
  -8140784.753 9  -6333258.74748  19634173.925    19634173.4254   19634178.6064
        -0.000          -0.000
 97  3  6 18 31 59.9960000  0  6 18  2 31 27 10 19                  -0.003446810
   1205248.971 9    944441.14748  20586679.822    20586679.3184   20586685.1374
        -0.000          -0.000
 -21609247.573 9 -16824353.79948  21177333.792    21177332.7884   21177339.3044
        -0.000          -0.000
  -9703235.298 9  -7543395.64048  20854626.493    20854625.8134   20854630.7504
        -0.000          -0.000
 -18809218.365 9 -14637347.31048  19920617.130    19920616.5644   19920621.6324
        -0.000          -0.000
 -10620278.376 9  -8258079.17946  22955266.995    22955265.9404   22955273.9924
        -0.000          -0.000
  -8161396.761 9  -6349320.06748  19630251.593    19630251.1304   19630256.3064
        -0.000          -0.000
 97  3  6 18 32 29.9960000  0  6 18  2 31 27 10 19                  -0.003470032
   1255690.570 9    983746.23048  20596278.627    20596278.1234   20596283.9494
        -0.000          -0.000
 -21694629.951 9 -16890885.49348  21161085.949    21161085.0264   21161091.5304
        -0.000          -0.000
  -9693348.379 9  -7535691.56047  20856507.891    20856507.2404   20856512.1714
        -0.000          -0.000
 -18892582.986 9 -14702306.75248  19904753.425    19904752.7964   19904757.8554
        -0.000          -0.000
 -10634340.352 9  -8269036.63946  22952591.159    22952590.1624   22952598.1944
        -0.000          -0.000
  -8181805.070 9  -6365222.66848  19626368.049    19626367.5884   19626372.7754
        -0.000          -0.000
 97  3  6 18 32 59.9960000  0  6 18  2 31 27 10 19                  -0.003493289
   1306414.833 9   1023271.57348  20605931.184    20605930.6614   20605936.5134
        -0.000          -0.000
 -21779837.083 9 -16957280.62448  21144871.557    21144870.6114   21144877.1064
        -0.000          -0.000
  -9682961.649 9  -7527598.02647  20858484.493    20858483.7824   20858488.6954
        -0.000          -0.000
 -18975841.955 9 -14767183.86048  19888909.756    19888909.1454   19888914.1834
        -0.000          -0.000
 -10648011.310 9  -8279689.39846  22949989.672    22949988.5844   22949996.7344
        -0.000          -0.000
  -8202012.934 9  -6380969.07149  19622522.681    19622522.2004   19622527.3774
        -0.000          -0.000
 97  3  6 18 33 29.9960000  0  6 18  2 31 27 10 19                  -0.003516585
   1357412.624 9   1063010.05548  20615635.771    20615635.2734   20615641.0734
        -0.000          -0.000
 -21864883.712 9 -17023550.69248  21128687.606    21128686.6954   21128693.1744
        -0.000          -0.000
  -9672094.177 9  -7519129.87747  20860552.476    20860551.8104   20860556.7184
        -0.000          -0.000
 -19059005.246 9 -14831986.41248  19873084.357    19873083.7204   19873088.7634
        -0.000          -0.000
 -10661298.183 9  -8290042.86846  22947461.147    22947460.2034   22947468.1864
        -0.000          -0.000
  -8222035.486 9  -6396571.07648  19618712.551    19618712.0584   19618717.2334
        -0.000          -0.000
 97  3  6 18 33 59.9960000  0  6 18  2 31 27 10 19                  -0.003539899
   1408700.479 9   1102974.55748  20625395.567    20625395.0764   20625400.8434
        -0.000          -0.000
 -21949755.786 9 -17089684.74248  21112536.962    21112536.0464   21112542.5444
        -0.000          -0.000
  -9660716.848 9  -7510264.44147  20862717.478    20862716.8324   20862721.7744
        -0.000          -0.000
 -19142052.984 9 -14896698.93148  19857280.874    19857280.2114   19857285.2864
        -0.000          -0.000
 -10674189.404 9  -8300088.03346  22945008.032    22945007.0424   22945015.1294
        -0.000          -0.000
  -8241866.446 9  -6412023.79048  19614938.820    19614938.3614   19614943.5374
        -0.000          -0.000
 97  3  6 18 34 29.9960000  0  6 18  2 31 27 10 19                  -0.003563257
   1460255.738 9   1143147.42448  20635206.307    20635205.8144   20635211.5914
        -0.000          -0.000
 -22034479.559 9 -17155703.23548  21096414.510    21096413.6174   21096420.1074
        -0.000          -0.000
  -9648856.133 9  -7501022.34047  20864974.562    20864973.8294   20864978.7564
        -0.000          -0.000
 -19225004.359 9 -14961336.35948  19841495.810    19841495.1494   19841500.1524
        -0.000          -0.000
 -10686726.249 9  -8309857.06546  22942622.296    22942621.3844   22942629.4794
        -0.000          -0.000
  -8261536.038 9  -6427350.76248  19611195.828    19611195.3624   19611200.5604
        -0.000          -0.000
 97  3  6 18 34 59.9960000  0  6 18  2 31 27 10 19                  -0.003586671
   1512087.019 9   1183535.37748  20645069.574    20645069.0464   20645074.8134
        -0.000          -0.000
 -22119034.090 9 -17221589.85048  21080324.360    21080323.4464   21080329.9094
        -0.000          -0.000
  -9636511.368 9  -7491403.05647  20867323.664    20867322.9334   20867327.9004
        -0.000          -0.000
 -19307832.597 9 -15025877.83648  19825734.149    19825733.4704   19825738.4484
        -0.000          -0.000
 -10698906.041 9  -8319347.87846  22940304.738    22940303.7184   22940311.8524
        -0.000          -0.000
  -8281038.912 9  -6442547.82448  19607484.601    19607484.1414   19607489.3464
        -0.000          -0.000
 97  3  6 18 35 29.9960000  0  6 18  2 31 27 10 19                  -0.003610148
   1564181.718 9   1224128.58448  20654982.909    20654982.3634   20654988.1434
        -0.000          -0.000
 -22203415.839 9 -17287341.82848  21064267.071    21064266.1424   21064272.5834
        -0.000          -0.000
  -9623681.215 9  -7481405.54847  20869765.066    20869764.3834   20869769.4594
        -0.000          -0.000
 -19390565.170 9 -15090344.77148  19809990.549    19809989.9494   19809994.9294
        -0.000          -0.000
 -10710760.333 9  -8328585.04546  22938049.115    22938048.0094   22938056.2304
        -0.000          -0.000
  -8300376.230 9  -6457615.87748  19603804.886    19603804.4094   19603809.5874
        -0.000          -0.000
 97  3  6 18 35 59.9960000  0  6 18  2 31 27 10 19                  -0.003633705
   1616527.112 9   1264917.14648  20664943.896    20664943.3674   20664949.1874
        -0.000          -0.000
 -22287627.173 9 -17352961.01448  21048242.198    21048241.2964   21048247.7014
        -0.000          -0.000
  -9610373.583 9  -7471035.98247  20872297.438    20872296.7404   20872301.8134
        -0.000          -0.000
 -19473211.799 9 -15154744.73048  19794263.445    19794262.8474   19794267.8474
        -0.000          -0.000
 -10722314.439 9  -8337588.28646  22935850.618    22935849.4224   22935857.5704
        -0.000          -0.000
  -8319561.843 9  -6472565.71448  19600153.964    19600153.5164   19600158.6654
        -0.000          -0.000
 97  3  6 18 36 29.9960000  0  7 18  2 31  7 27 10 19               -0.003657297
   1669165.454 9   1305933.98348  20674960.695    20674960.1534   20674966.0284
        -0.000          -0.000
 -22371627.416 9 -17418415.71448  21032257.368    21032256.5524   21032262.9514
        -0.000          -0.000
  -9596557.011 9  -7460269.83447  20874926.629    20874925.9304   20874930.9424
        -0.000          -0.000
  -4777452.59218  -3691705.47055  23397224.617    23397224.6205   23397236.3245
        -0.000          -0.000
 -19555727.530 9 -15219042.69648  19778561.198    19778560.6184   19778565.6384
        -0.000          -0.000
 -10733516.385 9  -8346317.15646  22933718.893    22933717.7284   22933726.0674
        -0.000          -0.000
  -8338533.451 9  -6487348.80148  19596543.799    19596543.3554   19596548.5294
        -0.000          -0.000
 97  3  6 18 36 59.9960000  0  7 18  2 31  7 27 10 19               -0.003680910
   1722091.153 9   1347174.73148  20685032.116    20685031.6004   20685037.5214
        -0.000          -0.000
 -22455402.833 9 -17483695.22148  21016315.374    21016314.5784   21016321.0174
        -0.000          -0.000
  -9582216.704 9  -7449095.57247  20877655.501    20877654.8404   20877659.8094
        -0.000          -0.000
  -4921896.377 8  -3804258.80345  23369737.753    23369737.4594   23369749.5524
        -0.000          -0.000
 -19638107.503 9 -15283234.87248  19762884.778    19762884.1904   19762889.2174
        -0.000          -0.000
 -10744344.070 9  -8354754.38946  22931658.601    22931657.3844   22931665.6414
        -0.000          -0.000
  -8357270.708 9  -6501949.28148  19592978.221    19592977.7844   19592982.9864
        -0.000          -0.000
 97  3  6 18 37 29.9960000  0  7 18  2 31  7 27 10 19               -0.003704532
   1775338.296 9   1388665.94948  20695164.743    20695164.2164   20695170.1934
        -0.000          -0.000
 -22538932.218 9 -17548783.03048  21000420.165    21000419.3824   21000425.8194
        -0.000          -0.000
  -9567326.750 9  -7437493.02647  20880489.108    20880488.3694   20880493.2954
        -0.000          -0.000
  -5066359.126 9  -3916826.90245  23342247.230    23342246.7894   23342259.0684
        -0.000          -0.000
 -19720334.203 9 -15347307.62148  19747237.625    19747236.9724   19747241.9914
        -0.000          -0.000
 -10754761.513 9  -8362871.95646  22929676.256    22929675.1564   22929683.2994
        -0.000          -0.000
  -8375738.796 9  -6516340.02448  19589463.888    19589463.4474   19589468.6634
        -0.000          -0.000
 97  3  6 18 37 59.9960000  0  7 18  2 31  7 27 10 19               -0.003728151
   1828922.842 9   1430420.08048  20705361.571    20705361.0674   20705367.0114
        -0.000          -0.000
 -22622215.966 9 -17613679.42248  20984571.717    20984570.9444   20984577.4434
        -0.000          -0.000
  -9551885.924 9  -7425461.22147  20883427.523    20883426.7744   20883431.5994
        -0.000          -0.000
  -5210846.551 8  -4029414.23645  23314752.185    23314751.7034   23314763.9374
        -0.000          -0.000
 -19802383.477 9 -15411242.11848  19731624.131    19731623.5114   19731628.5264
        -0.000          -0.000
 -10764728.121 9  -8370638.22546  22927779.725    22927778.5804   22927786.8624
        -0.000          -0.000
  -8393931.015 9  -6530515.79848  19586002.083    19586001.6134   19586006.8044
        -0.000          -0.000
 97  3  6 18 38 29.9960000  0  7 18  2 31  7 27 10 19               -0.003751788
   1882800.354 9   1472402.50248  20715614.142    20715613.6694   20715619.6274
        -0.000          -0.000
 -22705318.124 9 -17678434.33048  20968757.903    20968757.1414   20968763.5564
        -0.000          -0.000
  -9535941.721 9  -7413037.17247  20886461.651    20886460.9144   20886465.7154
        -0.000          -0.000
  -5355393.769 8  -4142048.20545  23287245.844    23287245.3454   23287257.0754
        -0.000          -0.000
 -19884300.826 9 -15475073.81048  19716035.762    19716035.1634   19716040.2034
        -0.000          -0.000
 -10774288.433 9  -8378087.89346  22925960.352    22925959.3384   22925967.6484
        -0.000          -0.000
  -8411890.771 9  -6544510.42348  19582584.464    19582583.9794   19582589.1354
        -0.000          -0.000
 97  3  6 18 38 59.9960000  0  7 18  2 31  7 27 10 19               -0.003775424
   1936991.736 9   1514629.49448  20725926.480    20725925.9804   20725931.9794
        -0.000          -0.000
 -22788211.788 9 -17743026.75448  20952983.837    20952982.9724   20952989.3184
        -0.000          -0.000
  -9519470.274 9  -7400202.29347  20889596.048    20889595.2944   20889600.0954
        -0.000          -0.000
  -5499958.082 8  -4254695.50745  23259735.683    23259735.4314   23259746.6584
        -0.000          -0.000
 -19966057.606 9 -15538780.38348  19700477.921    19700477.3434   19700482.3654
        -0.000          -0.000
 -10783422.212 9  -8385205.17946  22924222.418    22924221.3424   22924229.6214
        -0.000          -0.000
  -8429597.037 9  -6558307.52648  19579215.081    19579214.6124   19579219.7534
        -0.000          -0.000
 97  3  6 18 39 29.9960000  0  7 18  2 31  7 27 10 19               -0.003799058
   1991505.069 9   1557107.35348  20736300.091    20736299.6084   20736305.6094
        -0.000          -0.000
 -22870909.021 9 -17807466.12248  20937247.207    20937246.2564   20937252.5294
        -0.000          -0.000
  -9502478.288 9  -7386961.78647  20892829.516    20892828.7464   20892833.6254
        -0.000          -0.000
  -5644524.790 8  -4367344.68345  23232225.164    23232224.9264   23232235.8294
        -0.000          -0.000
 -20047640.788 9 -15602351.68948  19684953.185    19684952.6114   19684957.5934
        -0.000          -0.000
 -10792140.265 9  -8391998.56645  22922563.367    22922562.2794   22922570.6384
        -0.000          -0.000
  -8447056.280 9  -6571912.14748  19575892.711    19575892.2424   19575897.4074
        -0.000          -0.000
 97  3  6 18 39 59.9960000  0  7 18  2 31  7 27 10 19               -0.003822704
   2046310.321 9   1599812.69448  20746729.249    20746728.7484   20746734.7294
        -0.000          -0.000
 -22953434.980 9 -17871772.02548  20921543.071    20921542.0784   20921548.3434
        -0.000          -0.000
  -9484992.664 9  -7373336.64247  20896156.941    20896156.1724   20896161.0834
        -0.000          -0.000
  -5789104.072 8  -4480003.64045  23204712.471    23204712.1334   23204723.2214
        -0.000          -0.000
 -20129061.662 9 -15665796.51848  19669459.321    19669458.7374   19669463.7064
        -0.000          -0.000
 -10800474.396 9  -8398492.75946  22920977.710    22920976.5784   22920984.8064
        -0.000          -0.000
  -8464292.453 9  -6585342.95048  19572612.758    19572612.3124   19572617.5124
        -0.000          -0.000
 97  3  6 18 40 29.9960000  0  7 18  2 31  7 27 10 19               -0.003846370
   2101400.527 9   1642740.06748  20757212.633    20757212.1314   20757218.1484
        -0.000          -0.000
 -23035775.860 9 -17935933.71848  20905874.025    20905873.0854   20905879.4254
        -0.000          -0.000
  -9467023.943 9  -7359335.04547  20899576.174    20899575.4354   20899580.4114
        -0.000          -0.000
  -5933669.540 8  -4592651.86945  23177202.442    23177202.2874   23177213.2914
        -0.000          -0.000
 -20210319.456 9 -15729114.27248  19653996.563    19653995.9424   19654000.9004
        -0.000          -0.000
 -10808445.078 9  -8404703.78146  22919461.110    22919459.9774   22919468.1764
        -0.000          -0.000
  -8481297.414 9  -6598593.58348  19569376.862    19569376.4234   19569381.5814
        -0.000          -0.000
 97  3  6 18 40 59.9960000  0  7 18  2 31  7 27 10 19               -0.003870054
   2156795.341 9   1685904.79948  20767754.030    20767753.4834   20767759.5274
        -0.000          -0.000
 -23117893.783 9 -17999921.67548  20890247.400    20890246.4544   20890252.8934
        -0.000          -0.000
  -9448553.830 9  -7344942.76747  20903090.927    20903090.1724   20903095.1404
        -0.000          -0.000
  -6078217.043 9  -4705286.08345  23149696.272    23149695.7004   23149706.9814
        -0.000          -0.000
 -20291399.334 9 -15792293.38648  19638567.630    19638566.9534   19638571.8744
        -0.000          -0.000
 -10816035.014 9  -8410618.08945  22918016.911    22918015.6984   22918024.0104
        -0.000          -0.000
  -8498052.280 9  -6611649.33748  19566188.621    19566188.1304   19566193.2424
        -0.000          -0.000
 97  3  6 18 41 29.9960000  0  7 18  2 31  7 27 10 19               -0.003893790
   2212468.374 9   1729286.32048  20778348.323    20778347.7894   20778353.8344
        -0.000          -0.000
 -23199808.918 9 -18063751.62148  20874659.409    20874658.5254   20874664.9164
        -0.000          -0.000
  -9429613.728 9  -7330184.26047  20906695.132    20906694.3864   20906699.3344
        -0.000          -0.000
  -6222797.347 9  -4817945.88445  23122183.407    23122182.8664   23122194.2624
        -0.000          -0.000
 -20372334.334 9 -15855359.60948  19623166.228    19623165.5354   19623170.4484
        -0.000          -0.000
 -10823277.428 9  -8416261.62745  22916638.599    22916637.5424   22916645.7524
        -0.000          -0.000
  -8514577.905 9  -6624526.46548  19563043.887    19563043.4174   19563048.5104
        -0.000          -0.000
 97  3  6 18 41 59.9960000  0  7 18  2 31  7 27 10 19               -0.003917556
   2268449.589 9   1772907.99547  20789001.288    20789000.6944   20789006.7654
        -0.000          -0.000
 -23281471.911 9 -18127385.07848  20859119.377    20859118.4634   20859124.9364
        -0.000          -0.000
  -9410168.536 9  -7315032.17847  20910395.336    20910394.6654   20910399.6074
        -0.000          -0.000
  -6367388.133 9  -4930613.84646  23094668.782    23094668.1144   23094679.5034
        -0.000          -0.000
 -20453094.319 9 -15918289.46048  19607798.055    19607797.4144   19607802.3814
        -0.000          -0.000
 -10830128.831 9  -8421600.44445  22915334.777    22915333.7844   22915342.0004
        -0.000          -0.000
  -8530838.782 9  -6637197.30048  19559949.567    19559949.0894   19559954.2004
        -0.000          -0.000
 97  3  6 18 42 29.9960000  0  7 18  2 31  7 27 10 19               -0.003941334
   2324748.944 9   1816777.55547  20799714.665    20799714.1274   20799720.2184
        -0.000          -0.000
 -23362858.305 9 -18190803.01948  20843632.010    20843631.1344   20843637.5364
        -0.000          -0.000
  -9390184.564 9  -7299460.26447  20914198.249    20914197.5524   20914202.4924
        -0.000          -0.000
  -6511979.047 9  -5043281.91846  23067153.825    23067153.2534   23067164.5134
        -0.000          -0.000
 -20533667.133 9 -15981073.45848  19592465.545    19592464.9194   19592469.8954
        -0.000          -0.000
 -10836570.817 9  -8426620.26145  22914108.998    22914108.0744   22914116.1754
        -0.000          -0.000
  -8546818.672 9  -6649649.17748  19556908.699    19556908.1744   19556913.3204
        -0.000          -0.000
 97  3  6 18 42 59.9960000  0  7 18  2 31  7 27 10 19               -0.003965124
   2381338.543 9   1860873.29247  20810483.372    20810482.7924   20810488.8434
        -0.000          -0.000
 -23443991.030 9 -18254023.27848  20828192.925    20828192.0634   20828198.4634
        -0.000          -0.000
  -9369672.656 9  -7283476.97047  20918101.670    20918100.9204   20918105.8254
        -0.000          -0.000
  -6656590.929 8  -5155966.29346  23039634.882    23039634.3034   23039645.6344
        -0.000          -0.000
 -20614063.187 9 -16043719.71948  19577166.704    19577166.0604   19577170.9744
        -0.000          -0.000
 -10842606.249 9  -8431323.27545  22912960.644    22912959.4984   22912967.6194
        -0.000          -0.000
  -8562536.913 9  -6661897.17248  19553917.627    19553917.1254   19553922.2764
        -0.000          -0.000
 97  3  6 18 43 29.9960000  0  7 18  2 31  7 27 10 19               -0.003988906
   2438213.783 9   1905191.58947  20821306.448    20821305.8704   20821311.8984
        -0.000          -0.000
 -23524880.988 9 -18317054.37648  20812800.223    20812799.3194   20812805.6244
        -0.000          -0.000
  -9348629.720 9  -7267079.88747  20922105.972    20922105.2684   20922110.1184
        -0.000          -0.000
  -6801193.155 8  -5268643.13245  23012117.594    23012117.1334   23012128.4374
        -0.000          -0.000
 -20694253.005 9 -16106205.28048  19561907.028    19561906.4144   19561911.3404
        -0.000          -0.000
 -10848217.053 9  -8435695.40945  22911893.179    22911892.0074   22911900.0674
        -0.000          -0.000
  -8577992.638 9  -6673940.61048  19550976.485    19550976.0314   19550981.1844
        -0.000          -0.000
 97  3  6 18 43 59.9960000  0  7 18  2 31  7 27 10 19               -0.004012670
   2495367.436 9   1949726.84347  20832182.447    20832181.9114   20832187.9284
        -0.000          -0.000
 -23605547.257 9 -18379911.16548  20797449.878    20797448.9664   20797455.2854
        -0.000          -0.000
  -9327058.383 9  -7250271.06047  20926210.862    20926210.1564   20926215.0304
        -0.000          -0.000
  -6945768.747 8  -5381299.20945  22984605.687    22984605.2404   22984616.4904
        -0.000          -0.000
 -20774233.053 9 -16168527.38649  19546687.353    19546686.7204   19546691.6844
        -0.000          -0.000
 -10853409.254 9  -8439741.37745  22910905.148    22910903.8724   22910912.1144
        -0.000          -0.000
  -8593204.470 9  -6685794.00148  19548081.795    19548081.3254   19548086.5214
        -0.000          -0.000
 97  3  6 18 44 29.9950000  0  7 18  2 31  7 27 10 19               -0.004036419
   2552802.308 9   1994481.22847  20843111.970    20843111.4144   20843117.5004
        -0.000          -0.000
 -23685995.980 9 -18442598.45048  20782140.913    20782140.0444   20782146.3894
        -0.000          -0.000
  -9304971.978 9  -7233060.88247  20930413.777    20930413.0374   20930417.9744
        -0.000          -0.000
  -7090304.905 8  -5493924.52245  22957101.176    22957100.7404   22957112.0704
        -0.000          -0.000
 -20854003.304 9 -16230686.01149  19531507.609    19531506.9494   19531511.8754
        -0.000          -0.000
 -10858188.135 9  -8443465.25445  22909995.698    22909994.6504   22910002.9844
        -0.000          -0.000
  -8608169.861 9  -6697455.36148  19545233.961    19545233.5464   19545238.7404
        -0.000          -0.000
 97  3  6 18 44 59.9950000  0  7 18  2 31  7 27 10 19               -0.004060147
   2610562.217 9   2039488.89347  20854103.376    20854102.8054   20854108.8734
        -0.000          -0.000
 -23766205.505 9 -18505099.34248  20766877.480    20766876.5914   20766883.0134
        -0.000          -0.000
  -9282364.405 9  -7215444.59847  20934715.867    20934715.1184   20934720.1174
        -0.000          -0.000
  -7234775.246 8  -5606498.53045  22929609.625    22929608.7334   22929620.0164
        -0.000          -0.000
 -20933543.165 9 -16292665.11148  19516371.649    19516370.9984   19516375.8994
        -0.000          -0.000
 -10862529.778 8  -8446848.41645  22909169.400    22909168.4134   22909176.9624
        -0.000          -0.000
  -8622863.010 9  -6708904.57948  19542438.039    19542437.5724   19542442.7564
        -0.000          -0.000
 97  3  6 18 45 29.9950000  0  7 18  2 31  7 27 10 19               -0.004083857
   2668678.600 9   2084774.32947  20865162.612    20865162.0094   20865168.1024
        -0.000          -0.000
 -23846149.752 9 -18567393.53048  20751664.557    20751663.7224   20751670.1744
        -0.000          -0.000
  -9259220.116 9  -7197410.09647  20939120.038    20939119.3394   20939124.3724
        -0.000          -0.000
  -7379160.896 8  -5719006.55445  22902133.570    22902132.9834   22902144.0974
        -0.000          -0.000
 -21012833.299 9 -16354449.62249  19501283.200    19501282.5734   19501287.4974
        -0.000          -0.000
 -10866441.240 9  -8449896.40645  22908425.013    22908424.1484   22908432.7194
        -0.000          -0.000
  -8637268.658 9  -6720129.77848  19539696.756    19539696.2704   19539701.4714
        -0.000          -0.000
 97  3  6 18 45 59.9950000  0  7 18  2 31  7 27 10 19               -0.004107582
   2727122.663 9   2130315.09047  20876284.147    20876283.5704   20876289.6574
        -0.000          -0.000
 -23925839.490 9 -18629489.39348  20736500.132    20736499.2604   20736505.6394
        -0.000          -0.000
  -9235574.384 9  -7178984.86247  20943619.669    20943618.9644   20943624.0424
        -0.000          -0.000
  -7523508.895 8  -5831485.23445  22874665.077    22874664.1814   22874675.4084
        -0.000          -0.000
 -21091923.077 9 -16416078.01049  19486232.885    19486232.2624   19486237.2044
        -0.000          -0.000
 -10869970.166 9  -8452646.30645  22907753.743    22907752.7734   22907761.2344
        -0.000          -0.000
  -8651420.771 9  -6731157.41348  19537003.651    19537003.1744   19537008.3894
        -0.000          -0.000
 97  3  6 18 46 29.9950000  0  7 18  2 31  7 27 10 19               -0.004131313
   2785905.817 9   2176120.07247  20887470.257    20887469.7154   20887475.7234
        -0.000          -0.000
 -24005245.937 9 -18691364.51048  20721389.677    20721388.7714   20721395.0434
        -0.000          -0.000
  -9211411.066 9  -7160156.31547  20948217.887    20948217.1414   20948222.2314
        -0.000          -0.000
  -7667796.440 8  -5943916.82845  22847207.274    22847206.6984   22847217.6854
        -0.000          -0.000
 -21170785.937 9 -16477529.57649  19471225.786    19471225.1614   19471230.0824
        -0.000          -0.000
 -10873086.705 9  -8455074.85145  22907160.900    22907159.8024   22907168.1254
        -0.000          -0.000
  -8665284.615 9  -6741960.41848  19534365.507    19534365.0204   19534370.2274
        -0.000          -0.000
 97  3  6 18 46 59.9950000  0  7 18  2 31  7 27 10 19               -0.004155059
   2844998.345 9   2222166.13747  20898715.260    20898714.6914   20898720.6804
        -0.000          -0.000
 -24084385.402 9 -18753031.59448  20706329.969    20706329.0074   20706335.2354
        -0.000          -0.000
  -9186740.033 9  -7140932.14747  20952912.638    20952911.8914   20952916.9274
        -0.000          -0.000
  -7812043.309 9  -6056316.71545  22819758.222    22819757.2514   22819768.2864
        -0.000          -0.000
 -21249422.504 9 -16538804.81049  19456261.771    19456261.1314   19456265.9884
        -0.000          -0.000
 -10875821.798 9  -8457206.16945  22906640.773    22906639.5134   22906647.5874
        -0.000          -0.000
  -8678875.728 9  -6752550.90148  19531779.217    19531778.7314   19531783.9164
        -0.000          -0.000
 97  3  6 18 47 29.9950000  0  7 18  2 31  7 27 10 19               -0.004178814
   2904388.159 9   2268443.84347  20910016.806    20910016.2374   20910022.3194
        -0.000          -0.000
 -24163259.121 9 -18814491.60048  20691320.783    20691319.8274   20691326.0764
        -0.000          -0.000
  -9161540.428 9  -7121296.10447  20957707.943    20957707.2614   20957712.1994
        -0.000          -0.000
  -7956252.974 9  -6168687.59345  22792315.902    22792315.1294   22792325.9994
        -0.000          -0.000
 -21327809.139 9 -16599885.29049  19441345.316    19441344.6374   19441349.5224
        -0.000          -0.000
 -10878170.235 9  -8459036.20945  22906193.933    22906192.6624   22906200.8284
        -0.000          -0.000
  -8692180.418 9  -6762918.20148  19529247.454    19529246.9444   19529252.1614
        -0.000          -0.000
 97  3  6 18 47 59.9950000  0  7 18  2 31  7 27 10 19               -0.004202547
   2964088.001 9   2314963.14747  20921377.335    20921376.7624   20921382.9184
        -0.000          -0.000
 -24241851.578 9 -18875732.44448  20676364.954    20676364.0714   20676370.3604
        -0.000          -0.000
  -9135788.336 9  -7101229.55347  20962608.521    20962607.7684   20962612.6484
        -0.000          -0.000
  -8100391.059 9  -6281002.70746  22764887.225    22764886.4474   22764897.3314
        -0.000          -0.000
 -21405927.437 9 -16660756.68049  19426479.917    19426479.2084   19426484.0944
        -0.000          -0.000
 -10880089.191 9  -8460531.58745  22905828.704    22905827.5354   22905835.8584
        -0.000          -0.000
  -8705159.019 9  -6773031.40148  19526777.666    19526777.1834   19526782.3984
        -0.000          -0.000
 97  3  6 18 48 29.9950000  0  7 18  2 31  7 27 10 19               -0.004226270
   3024080.342 9   2361710.35847  20932793.561    20932793.0194   20932799.1744
        -0.000          -0.000
 -24320197.377 9 -18936781.08948  20661456.267    20661455.3724   20661461.6274
        -0.000          -0.000
  -9109504.769 9  -7080748.85747  20967610.106    20967609.3374   20967614.2164
        -0.000          -0.000
  -8244473.212 9  -6393274.25346  22737469.146    22737468.3494   22737479.1354
        -0.000          -0.000
 -21483797.087 9 -16721434.32549  19411661.740    19411661.0664   19411665.9624
        -0.000          -0.000
 -10881607.427 9  -8461714.71845  22905539.595    22905538.6164   22905547.0114
        -0.000          -0.000
  -8717813.663 9  -6782892.17348  19524369.588    19524369.1114   19524374.3404
        -0.000          -0.000
 97  3  6 18 48 59.9950000  0  7 18  2 31  7 27 10 19               -0.004249980
   3084381.651 9   2408698.31647  20944268.535    20944268.0054   20944274.2274
        -0.000          -0.000
 -24398283.709 9 -18997627.54448  20646596.910    20646596.0394   20646602.2314
        -0.000          -0.000
  -9082670.602 9  -7059839.13447  20972716.395    20972715.6714   20972720.6254
        -0.000          -0.000
  -8388501.812 9  -6505504.07446  22710061.183    22710060.3834   22710071.0654
        -0.000          -0.000
 -21561423.266 9 -16781922.24749  19396889.898    19396889.2734   19396894.1714
        -0.000          -0.000
 -10882733.638 8  -8462592.36045  22905325.263    22905324.3444   22905332.7054
        -0.000          -0.000
  -8730140.582 9  -6792497.57648  19522023.842    19522023.3554   19522028.5944
        -0.000          -0.000
 97  3  6 18 49 29.9950000  0  7 18  2 31  7 27 10 19               -0.004273670
   3144986.142 9   2455922.53247  20955801.242    20955800.7314   20955806.9364
        -0.000          -0.000
 -24476115.183 9 -19058275.41348  20631786.165    20631785.2234   20631791.3834
        -0.000          -0.000
  -9055295.463 9  -7038507.85547  20977925.661    20977924.9054   20977929.9504
        -0.000          -0.000
  -8532476.148 9  -6617691.63646  22682663.629    22682662.8704   22682673.2144
        -0.000          -0.000
 -21638832.245 9 -16842240.92249  19382159.403    19382158.8514   19382163.7714
        -0.000          -0.000
 -10883462.524 8  -8463160.40545  22905186.460    22905185.6004   22905194.0084
        -0.000          -0.000
  -8742144.460 9  -6801851.26248  19519739.546    19519739.0764   19519744.3454
        -0.000          -0.000
 97  3  6 18 49 59.9950000  0  7 18  2 31  7 27 10 19               -0.004297326
   3205923.895 9   2503406.42347  20967397.354    20967396.8234   20967402.9484
        -0.000          -0.000
 -24553659.952 9 -19118699.87448  20617029.818    20617028.9184   20617035.0894
        -0.000          -0.000
  -9027363.285 9  -7016742.54147  20983240.939    20983240.2254   20983245.3354
        -0.000          -0.000
  -8676350.141 8  -6729800.98746  22655284.985    22655284.3334   22655294.5634
        -0.000          -0.000
 -21716008.394 9 -16902378.17749  19367473.243    19367472.6684   19367477.6244
        -0.000          -0.000
 -10883775.625 8  -8463404.47045  22905126.913    22905126.1514   22905134.5644
        -0.000          -0.000
  -8753792.263 9  -6810927.48348  19517523.044    19517522.5304   19517527.8084
        -0.000          -0.000
 97  3  6 18 50 29.9950000  0  7 18  2 31  7 27 10 19               -0.004321004
   3267107.482 9   2551081.88547  20979040.356    20979039.7734   20979045.8854
        -0.000          -0.000
 -24630990.562 9 -19178957.45448  20602314.275    20602313.3354   20602319.5314
        -0.000          -0.000
  -8998955.948 9  -6994606.96147  20988646.705    20988645.9924   20988651.1504
        -0.000          -0.000
  -8820197.323 8  -6841889.45645  22627911.510    22627910.9244   22627921.1494
        -0.000          -0.000
 -21793018.427 9 -16962385.98249  19352818.650    19352818.1534   19352823.1154
        -0.000          -0.000
 -10883765.635 9  -8463396.75145  22905128.955    22905128.0604   22905136.5584
        -0.000          -0.000
  -8765171.661 9  -6819794.55048  19515357.711    19515357.1794   19515362.4074
        -0.000          -0.000
 97  3  6 18 50 59.9950000  0  7 18  2 31  7 27 10 19               -0.004344655
   3328581.296 9   2598983.48447  20990738.457    20990737.9054   20990744.0154
        -0.000          -0.000
 -24708052.132 9 -19239005.38948  20587649.869    20587648.9574   20587655.1364
        -0.000          -0.000
  -8970019.442 9  -6972059.03947  20994153.230    20994152.5214   20994157.5734
        -0.000          -0.000
  -8963935.499 8  -6953892.94645  22600559.091    22600558.2114   22600568.5664
        -0.000          -0.000
 -21869783.885 9 -17022203.21449  19338210.646    19338210.1764   19338215.1234
        -0.000          -0.000
 -10883355.590 9  -8463077.33545  22905207.027    22905206.0564   22905214.8154
        -0.000          -0.000
  -8776223.882 9  -6828406.67548  19513254.550    19513253.9854   19513259.2424
        -0.000          -0.000
 97  3  6 18 51 29.9950000  0  7 18  2 31  7 27 10 19               -0.004368279
   3390337.579 9   2647105.18347  21002490.236    21002489.7294   21002495.9764
        -0.000          -0.000
 -24784848.070 9 -19298846.34548  20573036.111    20573035.1644   20573041.2694
        -0.000          -0.000
  -8940570.578 9  -6949111.88247  20999757.201    20999756.4914   20999761.4994
        -0.000          -0.000
  -9107532.412 8  -7065786.41545  22573232.888    22573232.2574   22573242.7344
        -0.000          -0.000
 -21946276.960 9 -17081808.19849  19323654.465    19323653.9834   19323658.9914
        -0.000          -0.000
 -10882536.954 8  -8462439.53145  22905363.023    22905361.9784   22905370.6674
        -0.000          -0.000
  -8786949.649 9  -6836764.42348  19511213.496    19511212.9384   19511218.2544
        -0.000          -0.000
 97  3  6 18 51 59.9950000  0  7 18  2 31  7 27 10 19               -0.004391869
   3452400.497 9   2695465.83447  21014300.522    21014300.0234   21014306.2784
        -0.000          -0.000
 -24861354.249 9 -19358461.51248  20558477.432    20558476.5034   20558482.5954
        -0.000          -0.000
  -8910596.168 9  -6925755.20947  21005461.164    21005460.4334   21005465.4394
        -0.000          -0.000
  -9250960.584 8  -7177548.40945  22545938.965    22545938.4334   22545948.8324
        -0.000          -0.000
 -22022455.775 9 -17141168.30549  19309158.150    19309157.6584   19309162.6514
        -0.000          -0.000
 -10881291.090 8  -8461468.82445  22905600.089    22905599.0144   22905607.8174
        -0.000          -0.000
  -8797336.687 9  -6844858.22748  19509236.892    19509236.3874   19509241.6904
        -0.000          -0.000
 97  3  6 18 52 29.9950000  0  7 18  2 31  7 27 10 19               -0.004415435
   3514753.936 9   2744052.85347  21026166.046    21026165.5484   21026171.8134
        -0.000          -0.000
 -24937590.328 9 -19417866.21648  20543970.194    20543969.2264   20543975.3284
        -0.000          -0.000
  -8880119.852 9  -6902007.45847  21011260.619    21011259.8774   21011264.8664
        -0.000          -0.000
  -9394245.091 9  -7289198.50145  22518672.749    22518672.2684   22518682.3214
        -0.000          -0.000
 -22098338.992 9 -17200298.07849  19294718.164    19294717.5754   19294722.5114
        -0.000          -0.000
 -10879631.724 8  -8460175.89845  22905915.826    22905914.8764   22905923.7444
        -0.000          -0.000
  -8807425.912 9  -6852719.96948  19507316.972    19507316.4664   19507321.7324
        -0.000          -0.000
 97  3  6 18 52 59.9950000  0  7 18  2 31  7 27 10 19               -0.004438979
   3577404.721 9   2792871.56647  21038088.256    21038087.7154   21038093.9204
        -0.000          -0.000
 -25013568.236 9 -19477069.74048  20529511.978    20529511.0154   20529517.1634
        -0.000          -0.000
  -8849142.589 9  -6877869.33947  21017155.221    21017154.5864   21017159.5794
        -0.000          -0.000
  -9537401.186 9  -7400748.50845  22491430.988    22491430.5874   22491440.4304
        -0.000          -0.000
 -22173927.880 9 -17259198.49949  19280334.143    19280333.5034   19280338.4174
        -0.000          -0.000
 -10877559.181 9  -8458561.03245  22906310.186    22906309.2724   22906318.2254
        -0.000          -0.000
  -8817231.996 9  -6860361.07748  19505450.969    19505450.4284   19505455.7304
        -0.000          -0.000
 97  3  6 18 53 29.9950000  0  7 18  2 31  7 27 10 19               -0.004462517
   3640345.114 9   2841915.95947  21050065.451    21050064.9234   21050071.1054
        -0.000          -0.000
 -25089293.247 9 -19536076.21548  20515101.917    20515100.9714   20515107.1014
        -0.000          -0.000
  -8817676.793 9  -6853350.54547  21023142.979    21023142.3024   21023147.3244
        -0.000          -0.000
  -9680474.384 9  -7512233.91745  22464204.916    22464204.3554   22464214.3714
        -0.000          -0.000
 -22249262.302 9 -17317900.63749  19265998.512    19265997.8174   19266002.7524
        -0.000          -0.000
 -10875106.410 9  -8456649.86345  22906777.084    22906776.1194   22906785.0094
        -0.000          -0.000
  -8826781.193 9  -6867802.01948  19503633.800    19503633.2664   19503638.6104
        -0.000          -0.000
 97  3  6 18 53 59.9950000  0  7 18  2 31  7 27 10 19               -0.004486039
   3703599.258 9   2891204.82247  21062102.343    21062101.8504   21062108.0534
        -0.000          -0.000
 -25164757.859 9 -19594879.77348  20500741.415    20500740.5024   20500746.6674
        -0.000          -0.000
  -8785705.661 9  -6828437.97547  21029226.957    21029226.2304   21029231.2554
        -0.000          -0.000
  -9823470.564 9  -7623659.34245  22436993.621    22436993.0934   22437002.9454
        -0.000          -0.000
 -22324347.751 9 -17376408.76649  19251710.230    19251709.5494   19251714.4614
        -0.000          -0.000
 -10872260.100 8  -8454432.06245  22907318.794    22907317.8144   22907326.7504
        -0.000          -0.000
  -8836043.523 9  -6875019.42548  19501871.251    19501870.7464   19501876.0734
        -0.000          -0.000
 97  3  6 18 54 29.9950000  0  7 18  2 31  7 27 10 19               -0.004509523
   3767199.252 9   2940763.19547  21074205.108    21074204.5424   21074210.8264
        -0.000          -0.000
 -25239936.905 9 -19653460.81948  20486435.399    20486434.4574   20486440.5294
        -0.000          -0.000
  -8753193.528 9  -6803103.86147  21035413.806    21035413.1064   21035418.1084
        -0.000          -0.000
  -9966361.509 9  -7735002.75046  22409802.218    22409801.6684   22409811.4214
        -0.000          -0.000
 -22399158.063 9 -17434702.50649  19237474.213    19237473.6044   19237478.5104
        -0.000          -0.000
 -10868994.876 8  -8451887.83245  22907939.945    22907939.2344   22907948.2094
        -0.000          -0.000
  -8844973.133 9  -6881977.56548  19500171.972    19500171.5024   19500176.8054
        -0.000          -0.000
 97  3  6 18 54 59.9950000  0  7 18  2 31  7 27 10 19               -0.004532991
   3831105.029 9   2990559.81947  21086365.919    21086365.3834   21086371.7734
        -0.000          -0.000
 -25314855.218 9 -19711838.68348  20472178.842    20472177.8964   20472184.0264
        -0.000          -0.000
  -8720172.098 9  -6777372.87847  21041697.609    21041696.9264   21041701.9284
        -0.000          -0.000
 -10109175.404 9  -7846286.11646  22382625.665    22382624.9914   22382634.6804
        -0.000          -0.000
 -22473707.543 9 -17492793.00149  19223287.843    19223287.2954   19223292.1944
        -0.000          -0.000
 -10865341.927 9  -8449041.46745  22908635.189    22908634.3824   22908643.3814
        -0.000          -0.000
  -8853572.667 9  -6888678.50948  19498535.486    19498535.0654   19498540.3524
        -0.000          -0.000
 97  3  6 18 55 29.9950000  0  7 18  2 31  7 27 10 19               -0.004556452
   3895301.212 9   3040582.74347  21098582.149    21098581.6254   21098588.0214
        -0.000          -0.000
 -25389505.401 9 -19770007.63048  20457973.384    20457972.4414   20457978.5934
        -0.000          -0.000
  -8686661.072 9  -6751260.39747  21048074.681    21048073.9414   21048078.9414
        -0.000          -0.000
 -10251897.365 9  -7957497.83846  22355466.573    22355465.8144   22355475.4424
        -0.000          -0.000
 -22548002.172 9 -17550684.91649  19209149.967    19209149.4824   19209154.3944
        -0.000          -0.000
 -10861305.837 9  -8445896.56545  22909403.638    22909402.4414   22909411.6874
        -0.000          -0.000
  -8861824.549 9  -6895108.55848  19496965.235    19496964.7624   19496970.0834
        -0.000          -0.000
 97  3  6 18 55 59.9950000  0  7 18  2 31  7 27 10 19               -0.004579900
   3959779.746 9   3090825.68647  21110852.165    21110851.5914   21110857.9174
        -0.000          -0.000
 -25463876.597 9 -19827959.17948  20443820.890    20443820.0284   20443826.1804
        -0.000          -0.000
  -8652654.901 9  -6724762.09947  21054545.876    21054545.1624   21054550.1694
        -0.000          -0.000
 -10394495.856 9  -8068613.35246  22328330.710    22328329.9994   22328339.7124
        -0.000          -0.000
 -22622010.843 9 -17608354.00349  19195066.591    19195066.0924   19195070.9844
        -0.000          -0.000
 -10856878.881 9  -8442447.07045  22910246.271    22910245.1174   22910254.0554
        -0.000          -0.000
  -8869716.986 9  -6901258.51848  19495463.350    19495462.9024   19495468.2134
        -0.000          -0.000
 97  3  6 18 56 29.9950000  0  7 18  2 31  7 27 10 19               -0.004603332
   4024530.249 9   3141280.54247  21123173.800    21123173.2324   21123179.6384
        -0.000          -0.000
 -25537950.223 9 -19885678.86248  20429725.128    20429724.2764   20429730.4224
        -0.000          -0.000
  -8618137.441 9  -6697865.39047  21061114.371    21061113.6044   21061118.6394
        -0.000          -0.000
 -10536960.795 8  -8179624.79946  22301220.392    22301219.6584   22301229.4094
        -0.000          -0.000
 -22695712.745 9 -17665784.04349  19181041.688    19181041.1224   19181045.9464
        -0.000          -0.000
 -10852059.262 8  -8438691.61645  22911163.462    22911162.3324   22911171.4404
        -0.000          -0.000
  -8877249.692 9  -6907128.16948  19494029.989    19494029.5144   19494034.8274
        -0.000          -0.000
 97  3  6 18 56 59.9950000  0  7 18  2 31  7 27 10 19               -0.004626762
   4089517.195 9   3191919.64647  21135540.291    21135539.8004   21135546.3404
        -0.000          -0.000
 -25611746.794 9 -19943182.65448  20415682.042    20415681.2384   20415687.3724
        -0.000          -0.000
  -8583130.379 9  -6670587.16747  21067775.910    21067775.1734   21067780.3134
        -0.000          -0.000
 -10679316.600 9  -8290551.19546  22274130.715    22274129.9514   22274140.0124
        -0.000          -0.000
 -22769120.822 9 -17722985.13849  19167072.622    19167072.0224   19167076.8794
        -0.000          -0.000
 -10846869.962 9  -8434648.10645  22912150.902    22912149.8994   22912159.1494
        -0.000          -0.000
  -8884447.804 9  -6912737.10248  19492660.218    19492659.7524   19492665.0764
        -0.000          -0.000
 97  3  6 18 57 29.9950000  0  7 18  2 31  7 27 10 19               -0.004650160
   4154762.166 9   3242759.80547  21147956.099    21147955.5554   21147962.2114
        -0.000          -0.000
 -25685264.824 9 -20000469.40248  20401692.042    20401691.2234   20401697.2874
        -0.000          -0.000
  -8547604.171 9  -6642904.41147  21074536.282    21074535.5434   21074540.6754
        -0.000          -0.000
 -10821535.848 9  -8401371.19346  22247067.074    22247066.4674   22247076.4524
        -0.000          -0.000
 -22842230.856 9 -17779953.99049  19153160.247    19153159.6344   19153164.5604
        -0.000          -0.000
 -10841296.068 9  -8430304.89445  22913211.722    22913210.5144   22913219.7774
        -0.000          -0.000
  -8891315.626 9  -6918088.66048  19491353.276    19491352.8574   19491358.1904
        -0.000          -0.000
 97  3  6 18 57 59.9950000  0  7 18  2 31  7 27 10 19               -0.004673554
   4220229.560 9   3293773.27547  21160414.263    21160413.7504   21160420.3524
        -0.000          -0.000
 -25758567.355 9 -20057588.22448  20387743.051    20387742.2104   20387748.2354
        -0.000          -0.000
  -8511603.092 9  -6614851.63047  21081386.974    21081386.2504   21081391.3074
        -0.000          -0.000
 -10963665.742 9  -8512121.57846  22220020.332    22220019.7614   22220029.7484
        -0.000          -0.000
 -22915085.195 9 -17836723.59849  19139296.528    19139295.9414   19139300.8434
        -0.000          -0.000
 -10835396.080 9  -8425707.60145  22914334.510    22914333.5364   22914342.7344
        -0.000          -0.000
  -8897914.413 9  -6923230.58648  19490097.631    19490097.1964   19490102.5244
        -0.000          -0.000
 97  3  6 18 58 29.9950000  0  7 18  2 31  7 27 10 19               -0.004696925
   4285962.701 9   3344993.82047  21172923.004    21172922.4614   21172928.9814
        -0.000          -0.000
 -25831637.742 9 -20114526.15348  20373838.177    20373837.3164   20373843.3904
        -0.000          -0.000
  -8475104.409 9  -6586411.11747  21088332.459    21088331.7514   21088336.7114
        -0.000          -0.000
 -11105679.834 9  -8622781.74246  22192995.786    22192995.2004   22193005.1314
        -0.000          -0.000
 -22987659.100 9 -17893274.68349  19125486.116    19125485.5624   19125490.4364
        -0.000          -0.000
 -10829144.384 9  -8420836.25745  22915524.353    22915523.3534   22915532.4884
        -0.000          -0.000
  -8904214.844 9  -6928140.02248  19488898.737    19488898.2764   19488903.5994
        -0.000          -0.000
 97  3  6 18 58 59.9950000  0  7 18  2 31  7 27 10 19               -0.004720266
   4351973.199 9   3396430.49647  21185484.397    21185483.8954   21185490.3194
        -0.000          -0.000
 -25904480.817 9 -20171286.96448  20359976.600    20359975.7124   20359981.8054
        -0.000          -0.000
  -8438118.092 9  -6557590.62947  21095370.744    21095370.0294   21095374.9824
        -0.000          -0.000
 -11247551.943 9  -8733331.26546  22165998.278    22165997.7894   22166007.5964
        -0.000          -0.000
 -23059960.456 9 -17949613.39149  19111727.623    19111727.0674   19111731.9194
        -0.000          -0.000
 -10822537.262 9  -8415687.93445  22916781.741    22916780.6434   22916789.9144
        -0.000          -0.000
  -8910217.609 9  -6932817.51248  19487756.484    19487756.0174   19487761.3184
        -0.000          -0.000
 97  3  6 18 59 29.9950000  0  7 18  2 31  7 27 10 19               -0.004743580
   4418262.428 9   3448084.36347  21198098.787    21198098.3024   21198104.8154
        -0.000          -0.000
 -25977097.091 9 -20227871.03648  20346158.191    20346157.2884   20346163.4144
        -0.000          -0.000
  -8400663.263 9  -6528405.06447  21102498.281    21102497.5854   21102502.5364
        -0.000          -0.000
 -11389263.002 9  -8843755.31446  22139031.681    22139031.0884   22139040.7444
        -0.000          -0.000
 -23132012.503 9 -18005757.83749  19098016.620    19098016.0294   19098020.8624
        -0.000          -0.000
 -10815585.968 8  -8410271.43245  22918104.676    22918103.3784   22918112.7784
        -0.000          -0.000
  -8915927.015 9  -6937266.41148  19486670.036    19486669.5294   19486674.8744
        -0.000          -0.000
 97  3  6 18 59 59.9950000  0  7 18  2 31  7 27 10 19               -0.004766869
   4484848.825 9   3499969.78647  21210769.767    21210769.2804   21210775.9094
        -0.000          -0.000
 -26049444.753 9 -20284245.80748  20332390.929    20332390.0294   20332396.0734
        -0.000          -0.000
  -8362728.443 9  -6498845.47447  21109717.100    21109716.3874   21109721.3074
        -0.000          -0.000
 -11530787.153 9  -8954033.74546  22112100.570    22112099.9424   22112109.2774
        -0.000          -0.000
 -23203787.229 9 -18061686.19049  19084358.339    19084357.7444   19084362.5834
        -0.000          -0.000
 -10808276.490 9  -8404575.82745  22919495.528    22919494.3744   22919503.6574
        -0.000          -0.000
  -8921296.659 9  -6941450.56448  19485648.212    19485647.7474   19485653.0964
        -0.000          -0.000
 97  3  6 19  0 29.9950000  0  7 18  2 31  7 27 10 19               -0.004790121
   4551726.866 9   3552082.45547  21223496.408    21223495.8694   21223502.5184
        -0.000          -0.000
 -26121512.556 9 -20340402.50348  20318676.768    20318675.8744   20318681.9134
        -0.000          -0.000
  -8324306.105 9  -6468906.00547  21117028.678    21117027.9364   21117032.9624
        -0.000          -0.000
 -11672125.044 9  -9064167.05446  22085204.669    22085204.0914   22085213.1774
        -0.000          -0.000
 -23275284.317 9 -18117398.19849  19070752.807    19070752.2834   19070757.1394
        -0.000          -0.000
 -10800589.325 8  -8398585.91045  22920958.355    22920957.2814   22920966.5954
        -0.000          -0.000
  -8926314.480 9  -6945360.57148  19484693.356    19484692.9184   19484698.2204
        -0.000          -0.000
 97  3  6 19  0 59.9950000  0  7 18  2 31  7 27 10 19               -0.004813336
   4618892.728 9   3604419.40247  21236277.812    21236277.2014   21236283.8864
        -0.000          -0.000
 -26193287.434 9 -20396330.95048  20305018.410    20305017.5594   20305023.5804
        -0.000          -0.000
  -8285395.708 9  -6438586.21247  21124433.081    21124432.3504   21124437.4494
        -0.000          -0.000
 -11813265.977 9  -9174146.87746  22058346.405    22058345.8064   22058354.7594
        -0.000          -0.000
 -23346498.180 9 -18172889.51949  19057201.284    19057200.7644   19057205.6144
        -0.000          -0.000
 -10792520.907 9  -8392298.94845  22922493.806    22922492.8174   22922502.0524
        -0.000          -0.000
  -8930968.754 9  -6948987.28748  19483807.720    19483807.2714   19483812.5444
        -0.000          -0.000
 97  3  6 19  1 29.9950000  0  7 18  2 31  7 27 10 19               -0.004836520
   4686350.340 9   3656983.70947  21249114.567    21249114.0244   21249120.6304
        -0.000          -0.000
 -26264763.545 9 -20452026.58548  20291416.941    20291416.0854   20291422.1044
        -0.000          -0.000
  -8245993.110 9  -6407882.90147  21131931.199    21131930.3994   21131935.5494
        -0.000          -0.000
 -11954228.472 9  -9283987.65846  22031522.173    22031521.5154   22031530.3124
        -0.000          -0.000
 -23417411.443 9 -18228146.59549  19043706.967    19043706.4064   19043711.2554
        -0.000          -0.000
 -10784075.683 8  -8385718.31945  22924101.144    22924099.9164   22924109.0884
        -0.000          -0.000
  -8935243.493 9  -6952318.26148  19482994.259    19482993.7944   19482999.1074
        -0.000          -0.000
 97  3  6 19  1 59.9950000  0  7 18  2 31  7 27 10 19               -0.004859662
   4754091.376 9   3709768.85147  21262005.260    21262004.7204   21262011.3724
        -0.000          -0.000
 -26335947.007 9 -20507494.18548  20277871.252    20277870.3334   20277876.3704
        -0.000          -0.000
  -8206080.057 9  -6376781.81547  21139526.269    21139525.5414   21139530.7694
        -0.000          -0.000
 -12095028.618 9  -9393701.90646  22004728.749    22004728.0554   22004736.8724
        -0.000          -0.000
 -23488007.674 9 -18283156.63949  19030272.987    19030272.3874   19030277.2534
        -0.000          -0.000
 -10775238.330 8  -8378832.17345  22925782.845    22925781.7024   22925790.6764
        -0.000          -0.000
  -8939135.324 9  -6955350.87448  19482253.675    19482253.1974   19482258.5504
        -0.000          -0.000
 97  3  6 19  2 29.9950000  0  7 18  2 31  7 27 10 19               -0.004882776
   4822073.175 9   3762741.59847  21274941.870    21274941.2944   21274947.9854
        -0.000          -0.000
 -26406867.027 9 -20562756.50248  20264375.532    20264374.6554   20264380.7084
        -0.000          -0.000
  -8165688.898 9  -6345308.18247  21147212.307    21147211.6404   21147216.9144
        -0.000          -0.000
 -12235697.759 9  -9503314.07846  21977959.934    21977959.3754   21977968.3004
        -0.000          -0.000
 -23558309.323 9 -18337937.13849  19016894.966    19016894.3884   19016899.2484
        -0.000          -0.000
 -10766031.364 8  -8371658.00545  22927534.778    22927533.6884   22927542.7644
        -0.000          -0.000
  -8942689.666 9  -6958120.49348  19481577.330    19481576.8554   19481582.1674
        -0.000          -0.000
 97  3  6 19  2 59.9950000  0  7 18  2 31  7 27 10 19               -0.004905873
   4890281.601 9   3815890.93847  21287921.451    21287921.0084   21287927.7054
        -0.000          -0.000
 -26477517.824 9 -20617809.04048  20250931.172    20250930.2834   20250936.2744
        -0.000          -0.000
  -8124826.031 9  -6313466.99847  21154988.415    21154987.6174   21154992.7964
        -0.000          -0.000
 -12376229.996 9  -9612819.55546  21951217.341    21951216.7894   21951225.7844
        -0.000          -0.000
 -23628305.709 9 -18392479.76649  19003575.051    19003574.5194   19003579.3484
        -0.000          -0.000
 -10756470.259 8  -8364207.88245  22929354.087    22929353.1194   22929362.2904
        -0.000          -0.000
  -8945907.977 9  -6960628.27248  19480964.949    19480964.4394   19480969.7664
        -0.000          -0.000
 97  3  6 19  3 29.9950000  0  7 18  2 31  7 27 10 19               -0.004928918
   4958738.741 9   3869234.08047  21300948.609    21300948.0704   21300954.8054
        -0.000          -0.000
 -26547878.698 9 -20672635.65948  20237541.883    20237541.0124   20237546.9894
        -0.000          -0.000
  -8083450.922 9  -6281226.67747  21162861.798    21162861.0364   21162866.2124
        -0.000          -0.000
 -12516594.652 9  -9722194.45546  21924506.847    21924506.2104   21924515.1604
        -0.000          -0.000
 -23697965.277 9 -18446759.94449  18990319.274    18990318.7464   18990323.5804
        -0.000          -0.000
 -10746513.023 8  -8356449.09145  22931248.908    22931247.9474   22931257.0894
        -0.000          -0.000
  -8948771.758 9  -6962859.79548  19480419.956    19480419.4764   19480424.8074
        -0.000          -0.000
 97  3  6 19  3 59.9950000  0  7 18  2 31  7 27 10 19               -0.004951907
   5027432.579 9   3922761.67047  21314020.664    21314020.1204   21314026.8174
        -0.000          -0.000
 -26617953.589 9 -20727239.43548  20224207.088    20224206.2044   20224212.1704
        -0.000          -0.000
  -8041570.808 9  -6248592.84947  21170831.353    21170830.5894   21170835.7494
        -0.000          -0.000
 -12656772.419 9  -9831423.71746  21897831.795    21897831.1674   21897840.0944
        -0.000          -0.000
 -23767285.240 9 -18500775.49449  18977128.177    18977127.5884   18977132.4424
        -0.000          -0.000
 -10736154.248 8  -8348377.39445  22933220.180    22933219.2834   22933228.5444
        -0.000          -0.000
  -8951302.680 9  -6964831.95048  19479938.326    19479937.8504   19479943.1904
        -0.000          -0.000
 97  3  6 19  4 29.9950000  0  7 18  2 31  7 27 10 19               -0.004974877
   5096336.342 9   3976452.84247  21327132.559    21327132.0444   21327138.8464
        -0.000          -0.000
 -26687769.444 9 -20781641.36748  20210921.541    20210920.7114   20210926.6754
        -0.000          -0.000
  -7999235.041 9  -6215603.96347  21178887.580    21178886.8724   21178891.9684
        -0.000          -0.000
 -12796787.323 9  -9940526.07046  21871187.685    21871187.0824   21871196.0744
        -0.000          -0.000
 -23836285.703 9 -18554542.07949  18963997.833    18963997.2484   18964002.1154
        -0.000          -0.000
 -10725446.421 8  -8340033.71345  22935257.913    22935257.0624   22935266.3444
        -0.000          -0.000
  -8953533.808 9  -6966570.49648  19479513.807    19479513.3144   19479518.6584
        -0.000          -0.000
 97  3  6 19  4 59.9950000  0  7 18  2 31  7 27 10 19               -0.004997829
   5165459.866 9   4030315.24347  21340286.370    21340285.8474   21340292.7594
        -0.000          -0.000
 -26757344.668 9 -20835855.79048  20197681.796    20197680.9874   20197686.9184
        -0.000          -0.000
  -7956450.734 9  -6182265.55447  21187029.286    21187028.5354   21187033.6214
        -0.000          -0.000
 -12936636.724 9 -10049499.48246  21844575.181    21844574.5364   21844583.4974
        -0.000          -0.000
 -23904982.115 9 -18608071.74949  18950925.270    18950924.7284   18950929.6054
        -0.000          -0.000
 -10714405.974 8  -8331430.88245  22937358.852    22937358.1074   22937367.4744
        -0.000          -0.000
  -8955456.174 9  -6968068.45048  19479148.012    19479147.5274   19479152.8874
        -0.000          -0.000
 97  3  6 19  5 29.9950000  0  7 18  2 31  7 27 10 19               -0.005020762
   5234821.200 9   4084362.95347  21353485.468    21353485.0294   21353491.9174
        -0.000          -0.000
 -26826676.256 9 -20889880.36848  20184488.393    20184487.5904   20184493.5574
        -0.000          -0.000
  -7913222.315 9  -6148581.08647  21195255.393    21195254.6114   21195259.7514
        -0.000          -0.000
 -13076313.125 9 -10158338.06646  21817995.512    21817994.9174   21818003.7944
        -0.000          -0.000
 -23973377.317 9 -18661366.71249  18937910.089    18937909.5584   18937914.4184
        -0.000          -0.000
 -10703032.348 8  -8322568.38945  22939523.220    22939522.3904   22939531.8034
        -0.000          -0.000
  -8957061.533 9  -6969319.39148  19478842.489    19478842.0184   19478847.3714
        -0.000          -0.000
 97  3  6 19  5 59.9940000  0  7 18  2 31  7 27 10 19               -0.005043684
   5304440.314 9   4138611.51547  21366733.795    21366733.2684   21366740.0874
        -0.000          -0.000
 -26895730.924 9 -20943689.16848  20171347.696    20171346.8774   20171352.8044
        -0.000          -0.000
  -7869557.757 9  -6114556.75747  21203564.400    21203563.6594   21203568.8894
        -0.000          -0.000
 -13215794.898 9 -10267024.99546  21791452.924    21791452.2624   21791461.1234
        -0.000          -0.000
 -24041454.468 9 -18714413.83549  18924955.491    18924954.9364   18924959.7674
        -0.000          -0.000
 -10691327.094 8  -8313447.49145  22941750.542    22941749.8274   22941759.3484
        -0.000          -0.000
  -8958315.077 9  -6970296.18248  19478603.954    19478603.5134   19478608.8264
        -0.000          -0.000
 97  3  6 19  6 29.9940000  0  7 18  2 31  7 27 10 19               -0.005066642
   5374257.935 9   4193014.76647  21380019.766    21380019.2414   21380026.0004
        -0.000          -0.000
 -26964565.492 9 -20997326.45948  20158248.937    20158248.0854   20158253.9754
        -0.000          -0.000
  -7825512.883 9  -6080236.07447  21211945.746    21211945.0664   21211950.4184
        -0.000          -0.000
 -13355162.364 9 -10375622.86546  21764932.105    21764931.4514   21764940.2784
        -0.000          -0.000
 -24109290.034 9 -18767272.71449  18912046.837    18912046.2334   18912051.1054
        -0.000          -0.000
 -10679370.616 8  -8304130.86045  22944025.791    22944025.1014   22944034.8594
        -0.000          -0.000
  -8959265.260 9  -6971036.59348  19478423.120    19478422.6894   19478428.0144
        -0.000          -0.000
 97  3  6 19  6 59.9940000  0  7 18  2 31  7 27 10 19               -0.005089599
   5444312.309 9   4247602.51147  21393350.643    21393350.1224   21393356.9254
        -0.000          -0.000
 -27033135.852 9 -21050757.87348  20145200.388    20145199.5394   20145205.4114
        -0.000          -0.000
  -7781049.343 9  -6045589.16147  21220406.807    21220406.1994   21220411.5764
        -0.000          -0.000
 -13494355.428 9 -10484084.83346  21738444.526    21738443.7694   21738452.6034
        -0.000          -0.000
 -24176839.290 9 -18819908.49549  18899192.542    18899191.9924   18899196.9004
        -0.000          -0.000
 -10667112.284 8  -8294579.01845  22946358.722    22946357.9074   22946367.6824
        -0.000          -0.000
  -8959865.315 9  -6971504.17848  19478308.931    19478308.4884   19478313.8124
        -0.000          -0.000
 97  3  6 19  7 29.9940000  0  7 18  2 31  7 27 10 19               -0.005112539
   5514620.406 9   4302387.96747  21406729.793    21406729.3104   21406736.1874
        -0.000          -0.000
 -27101415.766 9 -21103962.97248  20132207.100    20132206.2744   20132212.1844
        -0.000          -0.000
  -7736142.720 9  -6010597.00947  21228952.351    21228951.6434   21228957.0014
        -0.000          -0.000
 -13633347.830 9 -10592390.45346  21711995.079    21711994.3594   21712003.0314
        -0.000          -0.000
 -24244051.893 9 -18872281.94649  18886402.401    18886401.8864   18886406.7724
        -0.000          -0.000
 -10654514.487 9  -8284762.67145  22948756.180    22948755.3964   22948765.1664
        -0.000          -0.000
  -8960102.534 9  -6971689.03448  19478263.884    19478263.3994   19478268.7154
        -0.000          -0.000
 97  3  6 19  7 59.9940000  0  7 18  2 31  7 27 10 19               -0.005135469
   5585141.475 9   4357339.36847  21420149.549    21420148.9804   21420155.9564
        -0.000          -0.000
 -27169443.202 9 -21156971.33248  20119261.885    20119261.0254   20119266.9584
        -0.000          -0.000
  -7690806.453 9  -5975270.07147  21237579.613    21237578.9604   21237584.1444
        -0.000          -0.000
 -13772162.105 9 -10700557.28046  21685579.540    21685578.7774   21685587.3134
        -0.000          -0.000
 -24310939.879 9 -18924402.44649  18873674.099    18873673.5384   18873678.4434
        -0.000          -0.000
 -10641604.126 9  -8274702.72945  22951213.301    22951212.2464   22951222.0814
        -0.000          -0.000
  -8960016.188 9  -6971621.76448  19478280.310    19478279.8284   19478285.1504
        -0.000          -0.000
 97  3  6 19  8 29.9940000  0  7 18  2 31  7 27 10 19               -0.005158379
   5655876.716 9   4412457.64747  21433610.170    21433609.6004   21433616.6794
        -0.000          -0.000
 -27237220.710 9 -21209784.94248  20106364.272    20106363.3844   20106369.2584
        -0.000          -0.000
  -7645022.083 9  -5939593.96147  21246292.165    21246291.5094   21246296.6014
        -0.000          -0.000
 -13910787.466 9 -10808576.87846  21659199.688    21659198.9494   21659207.5334
        -0.000          -0.000
 -24377478.076 9 -18976250.38749  18861012.259    18861011.6934   18861016.6324
        -0.000          -0.000
 -10628374.501 9  -8264394.00545  22953731.117    22953729.9034   22953739.6784
        -0.000          -0.000
  -8959611.899 9  -6971306.74648  19478357.179    19478356.7544   19478362.0934
        -0.000          -0.000
 97  3  6 19  8 59.9940000  0  7 18  2 31  7 27 10 19               -0.005181260
   5726820.854 9   4467738.70547  21447110.575    21447110.0244   21447117.1574
        -0.000          -0.000
 -27304767.374 9 -21262418.67048  20093510.482    20093509.6234   20093515.4724
        -0.000          -0.000
  -7598797.729 9  -5903575.00846  21255088.331    21255087.7184   21255092.7444
        -0.000          -0.000
 -14049223.414 9 -10916448.88646  21632855.951    21632855.2064   21632863.7464
        -0.000          -0.000
 -24443666.058 9 -19027825.43149  18848417.067    18848416.5334   18848421.4554
        -0.000          -0.000
 -10614812.716 9  -8253826.46146  22956312.044    22956310.8264   22956320.3694
        -0.000          -0.000
  -8958886.345 9  -6970741.38848  19478495.290    19478494.8594   19478500.1894
        -0.000          -0.000
 97  3  6 19  9 29.9940000  0  7 18  2 31  7 27 10 19               -0.005204124
   5797943.290 9   4523158.69647  21460644.795    21460644.2864   21460651.3564
        -0.000          -0.000
 -27372105.275 9 -21314889.73448  20080696.467    20080695.5944   20080701.4474
        -0.000          -0.000
  -7552140.929 9  -5867219.08146  21263966.963    21263966.2824   21263971.2164
        -0.000          -0.000
 -14187503.737 9 -11024199.64846  21606541.971    21606541.1734   21606549.7174
        -0.000          -0.000
 -24509536.987 9 -19079153.41649  18835882.302    18835881.7404   18835886.6274
        -0.000          -0.000
 -10600954.681 9  -8243028.09446  22958949.166    22958948.1314   22958957.5434
        -0.000          -0.000
  -8957856.097 9  -6969938.61148  19478691.360    19478690.9234   19478696.2274
        -0.000          -0.000
 97  3  6 19  9 59.9940000  0  7 18  2 31  7 27 10 19               -0.005226966
   5869259.454 9   4578729.63547  21474215.673    21474215.2304   21474222.2934
        -0.000          -0.000
 -27439208.730 9 -21367178.11348  20067927.065    20067926.1944   20067932.1054
        -0.000          -0.000
  -7505038.364 9  -5830515.78846  21272930.289    21272929.6074   21272934.5764
        -0.000          -0.000
 -14325607.264 9 -11131812.61846  21580261.574    21580260.8374   21580269.3734
        -0.000          -0.000
 -24575102.804 9 -19130243.65249  18823405.592    18823404.9884   18823409.8674
        -0.000          -0.000
 -10586809.372 9  -8232005.85846  22961641.114    22961640.0174   22961649.3234
        -0.000          -0.000
  -8956492.041 9  -6968875.71948  19478950.946    19478950.5034   19478955.8234
        -0.000          -0.000
 97  3  6 19 10 29.9940000  0  7 18  2 31  7 27 10 19               -0.005249766
   5940803.525 9   4634478.18047  21487830.183    21487829.6854   21487836.6694
        -0.000          -0.000
 -27506045.448 9 -21419258.64248  20055208.403    20055207.5494   20055213.4764
        -0.000          -0.000
  -7457470.749 9  -5793450.12746  21281982.177    21281981.4214   21281986.4254
        -0.000          -0.000
 -14463508.568 9 -11239268.01346  21554019.609    21554018.9534   21554027.5394
        -0.000          -0.000
 -24640358.626 9 -19181092.33249  18810987.774    18810987.1854   18810992.0744
        -0.000          -0.000
 -10572350.057 9  -8220738.96046  22964392.950    22964391.5734   22964400.9434
        -0.000          -0.000
  -8954752.702 9  -6967520.39948  19479281.910    19479281.4744   19479286.8284
        -0.000          -0.000
 97  3  6 19 10 59.9940000  0  7 18  2 31  7 27 10 19               -0.005272519
   6012565.169 9   4690396.24946  21501485.984    21501485.4814   21501492.4604
        -0.000          -0.000
 -27572622.407 9 -21471136.77548  20042539.267    20042538.4094   20042544.2544
        -0.000          -0.000
  -7409437.422 9  -5756021.55846  21291122.559    21291121.8434   21291126.8794
        -0.000          -0.000
 -14601195.727 9 -11346556.55746  21527818.486    21527817.8234   21527826.3514
        -0.000          -0.000
 -24705323.922 9 -19231714.63249  18798625.281    18798624.7134   18798629.5674
        -0.000          -0.000
 -10557578.281 9  -8209228.57746  22967203.985    22967202.6864   22967211.9854
        -0.000          -0.000
  -8952633.727 9  -6965869.25848  19479685.173    19479684.7254   19479690.0824
        -0.000          -0.000
 97  3  6 19 11 29.9940000  0  7 18  2 31  7 27 10 19               -0.005295220
   6084556.901 9   4746493.61447  21515185.569    21515185.0974   21515192.1214
        -0.000          -0.000
 -27638917.400 9 -21522795.17948  20029923.768    20029922.8534   20029928.6934
        -0.000          -0.000
  -7360932.713 9  -5718225.69146  21300352.718    21300351.9634   21300357.0724
        -0.000          -0.000
 -14738645.398 9 -11453660.03646  21501662.723    21501662.0204   21501670.4884
        -0.000          -0.000
 -24769984.427 9 -19282099.42949  18786320.841    18786320.2514   18786325.0514
        -0.000          -0.000
 -10542492.126 9  -8197473.19246  22970074.851    22970073.6484   22970082.8814
        -0.000          -0.000
  -8950139.367 9  -6963925.61448  19480159.872    19480159.4064   19480164.7354
        -0.000          -0.000
 97  3  6 19 11 59.9940000  0  7 18  2 31  7 27 10 19               -0.005317868
   6156788.564 9   4802777.92347  21528931.001    21528930.4114   21528937.5974
        -0.000          -0.000
 -27704924.421 9 -21574229.19648  20017363.031    20017362.1294   20017367.9314
        -0.000          -0.000
  -7311968.543 9  -5680071.77746  21309670.411    21309669.5834   21309674.7024
        -0.000          -0.000
 -14875838.036 9 -11560563.24646  21475555.749    21475555.0334   21475563.3554
        -0.000          -0.000
 -24834320.598 9 -19332231.49449  18774078.108    18774077.4774   18774082.2894
        -0.000          -0.000
 -10527070.233 9  -8185456.22646  22973009.403    22973008.4174   22973017.6884
        -0.000          -0.000
  -8947275.646 9  -6961694.15248  19480704.831    19480704.3894   19480709.7014
        -0.000          -0.000
 97  3  6 19 12 29.9940000  0  7 18  2 31  7 27 10 19               -0.005340458
   6229256.621 9   4859246.47147  21542721.342    21542720.7154   21542727.9914
        -0.000          -0.000
 -27770649.848 9 -21625443.79148  20004855.882    20004854.9874   20004860.8364
        -0.000          -0.000
  -7262545.113 9  -5641560.03046  21319075.262    21319074.5214   21319079.7094
        -0.000          -0.000
 -15012779.938 9 -11667271.07146  21449496.451    21449495.6444   21449503.9344
        -0.000          -0.000
 -24898297.240 9 -19382083.41349  18761903.739    18761903.1154   18761907.9764
        -0.000          -0.000
 -10511295.666 9  -8173164.42946  22976011.331    22976010.3194   22976019.5684
        -0.000          -0.000
  -8944044.218 9  -6959176.17148  19481319.794    19481319.3334   19481324.6424
        -0.000          -0.000
 97  3  6 19 12 59.9940000  0  7 18  2 31  7 27 10 19               -0.005363028
   6301915.065 9   4915863.33746  21556547.783    21556547.2034   21556554.5304
        -0.000          -0.000
 -27836135.723 9 -21676471.71948  19992394.348    19992393.4344   19992399.2714
        -0.000          -0.000
  -7212718.581 9  -5602734.17346  21328556.940    21328556.2294   21328561.4214
        -0.000          -0.000
 -15149511.176 9 -11773814.73346  21423477.155    21423476.4464   21423484.7514
        -0.000          -0.000
 -24961935.383 9 -19431671.56749  18749793.738    18749793.1484   18749798.0214
        -0.000          -0.000
 -10495215.866 9  -8160634.80146  22979071.394    22979070.3214   22979079.5594
        -0.000          -0.000
  -8940495.568 9  -6956410.99748  19481995.055    19481994.5764   19481999.9134
        -0.000          -0.000
 97  3  6 19 13 29.9940000  0  7 18  2 31  7 27 10 19               -0.005385565
   6374798.032 9   4972655.16146  21570416.967    21570416.3824   21570423.6554
        -0.000          -0.000
 -27901348.394 9 -21727286.76048  19979984.833    19979983.8654   19979989.6654
        -0.000          -0.000
  -7162471.346 9  -5563580.50146  21338118.802    21338117.9894   21338123.1564
        -0.000          -0.000
 -15286024.293 9 -11880188.43346  21397499.501    21397498.7714   21397507.0894
        -0.000          -0.000
 -25025194.924 9 -19480964.70249  18737755.834    18737755.2724   18737760.1094
        -0.000          -0.000
 -10478799.674 9  -8147843.00846  22982195.439    22982194.1884   22982203.3744
        -0.000          -0.000
  -8936607.172 9  -6953381.08848  19482734.958    19482734.5134   19482739.8644
        -0.000          -0.000
 97  3  6 19 13 59.9940000  0  7 18  2 31  7 27 10 19               -0.005408076
   6447892.469 9   5029611.77546  21584326.390    21584325.8624   21584333.0494
        -0.000          -0.000
 -27966311.047 9 -21777906.98548  19967622.729    19967621.8134   19967627.6144
        -0.000          -0.000
  -7111814.111 9  -5524107.34646  21347758.612    21347757.8254   21347762.9284
        -0.000          -0.000
 -15422345.103 9 -11986412.29546  21371558.466    21371557.6994   21371565.9514
        -0.000          -0.000
 -25088090.111 9 -19529973.92449  18725787.264    18725786.6784   18725791.5124
        -0.000          -0.000
 -10462069.472 8  -8134806.56145  22985379.094    22985377.9144   22985387.1094
        -0.000          -0.000
  -8932392.803 9  -6950097.18048  19483537.006    19483536.5384   19483541.9074
        -0.000          -0.000
 97  3  6 19 14 29.9940000  0  7 18  2 31  7 27 10 19               -0.005430540
   6521229.384 9   5086757.31546  21598282.023    21598281.4214   21598288.6154
        -0.000          -0.000
 -28030984.864 9 -21828302.14148  19955315.722    19955314.7834   19955320.5834
        -0.000          -0.000
  -7060709.532 9  -5484285.59946  21357483.417    21357482.6734   21357487.8234
        -0.000          -0.000
 -15558438.165 9 -12092458.68246  21345660.771    21345659.9684   21345668.2124
        -0.000          -0.000
 -25150593.668 9 -19578677.98449  18713893.164    18713892.6024   18713897.4534
        -0.000          -0.000
 -10445001.994 8  -8121507.29245  22988626.846    22988625.7864   22988635.1354
        -0.000          -0.000
  -8927810.587 9  -6946526.63648  19484409.024    19484408.4954   19484413.8764
        -0.000          -0.000
 97  3  6 19 14 59.9940000  0  7 18  2 31  7 27 10 19               -0.005452949
   6594813.407 9   5144095.41046  21612284.735    21612284.1464   21612291.3074
        -0.000          -0.000
 -28095363.235 9 -21878467.07648  19943064.970    19943064.0244   19943069.7934
        -0.000          -0.000
  -7009156.843 9  -5444114.69146  21367293.472    21367292.7824   21367298.0054
        -0.000          -0.000
 -15694275.010 9 -12198305.42746  21319811.737    21319810.8734   21319819.1854
        -0.000          -0.000
 -25212710.447 9 -19627080.65849  18702072.776    18702072.2154   18702077.0534
        -0.000          -0.000
 -10427594.579 8  -8107943.15145  22991939.389    22991938.3514   22991947.6994
        -0.000          -0.000
  -8922857.057 9  -6942666.75448  19485351.653    19485351.1224   19485356.4964
        -0.000          -0.000
 97  3  6 19 15 29.9940000  0  7 18  2 31  7 27 10 19               -0.005475314
   6668620.977 9   5201607.69946  21626330.060    21626329.3944   21626336.6214
        -0.000          -0.000
 -28159457.130 9 -21928410.35449  19930868.273    19930867.3384   19930873.1314
        -0.000          -0.000
  -6957169.155 9  -5403604.81046  21377186.418    21377185.6834   21377190.8924
        -0.000          -0.000
 -15829861.854 9 -12303957.37646  21294010.267    21294009.4354   21294017.7364
        -0.000          -0.000
 -25274456.415 9 -19675194.39149  18690322.943    18690322.3294   18690327.1774
        -0.000          -0.000
 -10409869.557 8  -8094131.53145  22995312.205    22995311.2284   22995320.8994
        -0.000          -0.000
  -8917541.254 9  -6938524.58348  19486363.253    19486362.7024   19486368.0704
        -0.000          -0.000
 97  3  6 19 15 59.9940000  0  7 18  2 31  7 27 10 19               -0.005497634
   6742653.050 9   5259294.92746  21640417.926    21640417.3014   21640424.7394
        -0.000          -0.000
 -28223247.979 9 -21978117.48649  19918729.196    19918728.3114   19918734.1114
        -0.000          -0.000
  -6904747.339 9  -5362756.66346  21387161.940    21387161.2064   21387166.4244
        -0.000          -0.000
 -15965158.184 9 -12409382.93146  21268264.075    21268263.2784   21268271.5444
        -0.000          -0.000
 -25335809.281 9 -19723001.81549  18678647.867    18678647.2814   18678652.1444
        -0.000          -0.000
 -10391816.354 8  -8080064.17345  22998747.510    22998746.5694   22998756.4034
        -0.000          -0.000
  -8911832.898 9  -6934076.52648  19487449.507    19487448.9904   19487454.3564
        -0.000          -0.000
 97  3  6 19 16 29.9940000  0  7 18  2 31  7 27 10 19               -0.005519919
   6816883.099 9   5317136.42346  21654543.445    21654542.8214   21654550.4074
        -0.000          -0.000
 -28286740.251 9 -22027591.95949  19906647.108    19906646.1364   19906651.8774
        -0.000          -0.000
  -6851911.536 9  -5321585.92246  21397216.379    21397215.5664   21397220.6804
        -0.000          -0.000
 -16100157.563 9 -12514577.10846  21242574.442    21242573.6334   21242581.8274
        -0.000          -0.000
 -25396767.404 9 -19770501.63849  18667047.924    18667047.3624   18667052.2194
        -0.000          -0.000
 -10373435.427 8  -8065741.46545  23002245.415    23002244.4064   23002254.1204
        -0.000          -0.000
  -8905719.069 9  -6929312.51948  19488612.858    19488612.3944   19488617.8274
        -0.000          -0.000
 97  3  6 19 16 59.9940000  0  7 18  2 31  7 27 10 19               -0.005542167
   6891308.681 9   5375130.28346  21668706.157    21668705.6174   21668713.2794
        -0.000          -0.000
 -28349934.119 9 -22076833.90149  19894621.642    19894620.7014   19894626.4444
        -0.000          -0.000
  -6798662.669 9  -5280093.31246  21407349.268    21407348.4414   21407353.5594
        -0.000          -0.000
 -16234859.481 9 -12619539.51146  21216941.469    21216940.5974   21216948.6594
        -0.000          -0.000
 -25457320.762 9 -19817686.05849  18655525.056    18655524.4394   18655529.2694
        -0.000          -0.000
 -10354721.718 8  -8051159.44645  23005806.590    23005805.3924   23005814.9724
        -0.000          -0.000
  -8899190.463 9  -6924225.30548  19489855.177    19489854.7244   19489860.1684
        -0.000          -0.000
 97  3  6 19 17 29.9940000  0  7 18  2 31  7 27 10 19               -0.005564370
   6965936.720 9   5433281.92046  21682907.516    21682907.0054   21682914.5564
        -0.000          -0.000
 -28412820.539 9 -22125836.28649  19882654.737    19882653.7854   19882659.5474
        -0.000          -0.000
  -6744984.755 9  -5238266.37846  21417563.744    21417563.0294   21417568.1314
        -0.000          -0.000
 -16369270.449 9 -12724275.19046  21191363.935    21191363.0344   21191370.9594
        -0.000          -0.000
 -25517459.473 9 -19864547.38549  18644081.013    18644080.4024   18644085.2564
        -0.000          -0.000
 -10335669.975 8  -8036314.03245  23009432.223    23009431.0524   23009440.9534
        -0.000          -0.000
  -8892222.630 9  -6918795.84048  19491181.200    19491180.7174   19491186.0994
        -0.000          -0.000
 97  3  6 19 17 59.9940000  0  7 18  2 31  7 27 10 19               -0.005586529
   7040756.440 9   5491582.87746  21697145.484    21697144.9784   21697152.3184
        -0.000          -0.000
 -28475417.742 9 -22174613.29649  19870742.844    19870741.8824   19870747.6734
        -0.000          -0.000
  -6690882.124 9  -5196108.49746  21427859.143    21427858.3924   21427863.6134
        -0.000          -0.000
 -16503410.154 9 -12828799.50546  21165837.904    21165837.0654   21165844.9014
        -0.000          -0.000
 -25577196.146 9 -19911095.43549  18632713.480    18632712.8614   18632717.7544
        -0.000          -0.000
 -10316293.072 8  -8021215.23545  23013119.182    23013118.3414   23013128.4134
        -0.000          -0.000
  -8884831.075 9  -6913036.20148  19492587.802    19492587.2634   19492592.6334
        -0.000          -0.000
 97  3  6 19 18 29.9940000  0  7 18  2 31  7 27 10 19               -0.005608615
   7115811.828 9   5550067.48446  21711428.233    21711427.6504   21711434.8084
        -0.000          -0.000
 -28537704.870 9 -22223148.69749  19858890.068    19858889.0874   19858894.8244
        -0.000          -0.000
  -6636305.003 9  -5153580.88546  21438244.872    21438244.0934   21438249.4204
        -0.000          -0.000
 -16637267.044 9 -12933103.45046  21140365.658    21140364.8204   21140372.6964
        -0.000          -0.000
 -25636506.583 9 -19957311.34849  18621427.085    18621426.4654   18621431.3364
        -0.000          -0.000
 -10296578.709 7  -8005853.46045  23016870.549    23016869.4834   23016879.9154
        -0.000          -0.000
  -8876989.142 9  -6906925.62348  19494080.093    19494079.5604   19494084.9314
        -0.000          -0.000
 97  3  6 19 18 59.9940000  0  8 18  2 31  7 27 26 10 19            -0.005630648
   7191105.984 9   5608738.14646  21725756.283    21725755.7134   21725762.7794
        -0.000          -0.000
 -28599694.277 9 -22271452.09749  19847093.798    19847092.8444   19847098.5744
        -0.000          -0.000
  -6581256.689 9  -5110686.10746  21448720.404    21448719.5504   21448724.8554
        -0.000          -0.000
 -16770852.936 9 -13037196.21846  21114944.894    21114944.1584   21114952.0154
        -0.000          -0.000
 -25695403.604 9 -20003205.12049  18610219.322    18610218.7244   18610223.5704
        -0.000          -0.000
  -3630351.58418  -2809170.38255  23139204.020    23139203.7735   23139209.8305
        -0.000          -0.000
 -10276550.490 8  -7990247.13445  23020681.480    23020680.5954   23020691.2144
        -0.000          -0.000
  -8868722.996 9  -6900484.48048  19495653.094    19495652.6014   19495657.9444
        -0.000          -0.000
 97  3  6 19 19 29.9940000  0  8 18  2 31  7 27 26 10 19            -0.005652611
   7266638.872 9   5667594.83446  21740129.613    21740129.1524   21740136.1944
        -0.000          -0.000
 -28661397.716 9 -22319532.67949  19835351.980    19835351.0524   19835356.7634
        -0.000          -0.000
  -6525747.817 9  -5067432.45346  21459283.475    21459282.6084   21459287.9044
        -0.000          -0.000
 -16904168.837 9 -13141078.63847  21089575.780    21089575.0214   21089582.6374
        -0.000          -0.000
 -25753898.031 9 -20048785.18649  18599088.188    18599087.6004   18599092.4184
        -0.000          -0.000
  -3755877.888 8  -2906983.02545  23115317.340    23115316.9494   23115323.1044
        -0.000          -0.000
 -10256230.152 8  -7974413.15745  23024548.345    23024547.4284   23024557.5524
        -0.000          -0.000
  -8860047.583 9  -6893724.43548  19497303.902    19497303.4584   19497308.8564
        -0.000          -0.000
 97  3  6 19 19 59.9940000  0  8 18  2 31  7 27 26 10 19            -0.005674525
   7342395.341 9   5726625.76946  21754545.654    21754545.1824   21754552.3024
        -0.000          -0.000
 -28722825.071 9 -22367398.12049  19823662.703    19823661.7844   19823667.5324
        -0.000          -0.000
  -6469810.988 9  -5023845.32146  21469927.695    21469927.0294   21469932.2544
        -0.000          -0.000
 -17037226.562 9 -13244759.85947  21064255.843    21064254.9904   21064262.3744
        -0.000          -0.000
 -25812017.680 9 -20094073.20949  18588028.423    18588027.8064   18588032.6074
        -0.000          -0.000
  -3881116.913 8  -3004571.85145  23091484.995    23091484.5294   23091490.7064
        -0.000          -0.000
 -10235649.496 8  -7958376.36245  23028464.786    23028463.8354   23028474.3204
        -0.000          -0.000
  -8851004.667 9  -6886678.01848  19499024.691    19499024.2464   19499029.6414
        -0.000          -0.000
 97  3  6 19 20 29.9940000  0  8 18  2 31  7 27 26 10 19            -0.005696364
   7418399.878 9   5785849.99746  21769008.889    21769008.4094   21769015.7834
        -0.000          -0.000
 -28783960.341 9 -22415035.96849  19812029.139    19812028.1684   19812033.8924
        -0.000          -0.000
  -6413430.641 9  -4979912.60146  21480656.438    21480655.8814   21480661.0874
        -0.000          -0.000
 -17169987.600 9 -13348209.89047  21038992.104    21038991.2504   21038998.6864
        -0.000          -0.000
 -25869747.525 9 -20139057.49749  18577042.806    18577042.1914   18577046.9814
        -0.000          -0.000
  -4006019.483 8  -3101898.56745  23067716.626    23067716.3124   23067722.2724
        -0.000          -0.000
 -10214783.940 8  -7942117.53545  23032435.825    23032434.5774   23032445.2634
        -0.000          -0.000
  -8841581.590 9  -6879335.36648  19500817.941    19500817.4154   19500822.7884
        -0.000          -0.000
 97  3  6 19 20 59.9940000  0  8 18  2 31  7 27 26 10 19            -0.005718123
   7494655.361 9   5845269.73746  21783519.963    21783519.4634   21783527.0564
        -0.000          -0.000
 -28844793.245 9 -22462438.19749  19800452.986    19800451.9724   19800457.7554
        -0.000          -0.000
  -6356609.418 9  -4935636.34446  21491469.144    21491468.5464   21491473.8324
        -0.000          -0.000
 -17302423.144 9 -13451406.30247  21013790.251    21013789.4474   21013797.0134
        -0.000          -0.000
 -25927081.001 9 -20183732.92449  18566132.640    18566132.0044   18566136.7744
        -0.000          -0.000
  -4130574.976 8  -3198954.74945  23044014.250    23044014.0714   23044020.2694
        -0.000          -0.000
 -10193614.257 8  -7925621.75845  23036464.451    23036462.9604   23036473.7624
        -0.000          -0.000
  -8831782.657 9  -6871699.84548  19502682.674    19502682.1144   19502687.4824
        -0.000          -0.000
 97  3  6 19 21 29.9940000  0  7 18  2 31  7 27 26 19               -0.005739832
   7571180.333 9   5904899.48046  21798082.297    21798081.7724   21798089.5024
        -0.000          -0.000
 -28905285.205 9 -22509574.75649  19788941.717    19788940.7514   19788946.4784
        -0.000          -0.000
  -6299314.199 9  -4890990.73046  21502372.291    21502371.5484   21502376.7054
        -0.000          -0.000
 -17434509.043 9 -13554330.25947  20988655.012    20988654.2074   20988661.8754
        -0.000          -0.000
 -25983990.830 9 -20228078.23149  18555303.059    18555302.4114   18555307.1664
        -0.000          -0.000
  -4254754.764 9  -3295718.20645  23020384.013    23020383.8494   23020389.6384
        -0.000          -0.000
  -8821579.242 9  -6863749.13648  19504624.276    19504623.7704   19504629.1884
        -0.000          -0.000
 97  3  6 19 21 59.9940000  0  8 18  2 31  7 15 27 26 19            -0.005761405
   7647951.186 9   5964720.82146  21812691.509    21812690.8784   21812698.5694
        -0.000          -0.000
 -28965443.985 9 -22556451.69449  19777493.818    19777492.8774   19777498.6334
        -0.000          -0.000
  -6241560.593 9  -4845987.93946  21513362.517    21513361.7304   21513366.7664
        -0.000          -0.000
 -17566246.117 9 -13656982.40147  20963586.257    20963585.3224   20963593.0354
        -0.000          -0.000
  -3839203.37118  -2972060.33455  22841549.389    22841548.4855   22841556.8285
        -0.000          -0.000
 -26040480.317 9 -20272096.00349  18544553.426    18544552.8034   18544557.5574
        -0.000          -0.000
  -4378569.157 8  -3392196.93945  22996823.238    22996822.8214   22996828.7044
        -0.000          -0.000
  -8810983.455 9  -6855492.68848  19506640.569    19506640.0744   19506645.5034
        -0.000          -0.000
 97  3  6 19 22 29.9940000  0  8 18  2 31  7 15 27 26 19            -0.005782893
   7724953.837 9   6024722.78146  21827344.778    21827344.1944   21827351.6584
        -0.000          -0.000
 -29025281.233 9 -22603078.09149  19766107.171    19766106.2694   19766112.0104
        -0.000          -0.000
  -6183356.334 9  -4800634.01046  21524438.343    21524437.6724   21524442.6784
        -0.000          -0.000
 -17697627.459 9 -13759357.35747  20938585.229    20938584.2304   20938591.8564
        -0.000          -0.000
  -3938058.788 8  -3049090.42845  22822737.944    22822736.8484   22822745.1214
        -0.000          -0.000
 -26096536.717 9 -20315776.31249  18533886.290    18533885.6484   18533890.4234
        -0.000          -0.000
  -4502032.581 8  -3488402.19745  22973328.959    22973328.4864   22973334.6024
        -0.000          -0.000
  -8799976.078 9  -6846915.52348  19508735.219    19508734.7444   19508740.1944
        -0.000          -0.000
 97  3  6 19 22 59.9940000  0  8 18  2 31  7 15 27 26 19            -0.005804328
   7802145.022 9   6084871.62446  21842033.767    21842033.2064   21842040.6764
        -0.000          -0.000
 -29084799.653 9 -22649456.04749  19754781.146    19754780.2104   19754785.9724
        -0.000          -0.000
  -6124731.843 9  -4754952.58446  21535594.071    21535593.4994   21535598.5104
        -0.000          -0.000
 -17828689.952 9 -13861483.86147  20913644.823    20913643.8164   20913651.3854
        -0.000          -0.000
  -4036620.255 8  -3125891.40545  22803982.223    22803981.0134   22803989.5924
        -0.000          -0.000
 -26152164.617 9 -20359122.71949  18523300.631    18523299.9964   18523304.7784
        -0.000          -0.000
  -4625174.904 9  -3584357.25145  22949895.575    22949895.2284   22949901.4684
        -0.000          -0.000
  -8788554.692 9  -6838015.74748  19510908.724    19510908.1394   19510913.5984
        -0.000          -0.000
 97  3  6 19 23 29.9940000  0  8 18  2 31  7 15 27 26 19            -0.005825703
   7879528.612 9   6145170.41346  21856759.388    21856758.8424   21856766.3054
        -0.000          -0.000
 -29143975.160 9 -22695566.80249  19743520.423    19743519.5064   19743525.2064
        -0.000          -0.000
  -6065674.786 9  -4708934.12146  21546832.179    21546831.6284   21546836.6624
        -0.000          -0.000
 -17959413.885 9 -13963346.54747  20888768.689    20888767.7684   20888775.3134
        -0.000          -0.000
  -4134862.567 8  -3202443.73245  22785287.264    22785286.2854   22785294.5514
        -0.000          -0.000
 -26207321.098 9 -20402101.78849  18512804.713    18512804.0724   18512808.8244
        -0.000          -0.000
  -4747966.775 9  -3680039.21145  22926529.001    22926528.7254   22926535.0914
        -0.000          -0.000
  -8776687.573 9  -6828768.65248  19513166.975    19513166.3964   19513171.8464
        -0.000          -0.000
 97  3  6 19 23 59.9940000  0  8 18  2 31  7 15 27 26 19            -0.005847014
   7957104.914 9   6205619.37246  21871521.540    21871520.9724   21871528.6444
        -0.000          -0.000
 -29202805.624 9 -22741408.68449  19732325.335    19732324.3964   19732330.1164
        -0.000          -0.000
  -6006197.598 9  -4662588.29046  21558150.601    21558149.7744   21558154.8494
        -0.000          -0.000
 -18089767.124 9 -14064920.38347  20863963.254    20863962.3304   20863969.8044
        -0.000          -0.000
  -4232773.802 8  -3278738.07945  22766655.286    22766654.2834   22766662.4464
        -0.000          -0.000
 -26261986.791 9 -20444698.42449  18502402.141    18502401.5244   18502406.2634
        -0.000          -0.000
  -4870399.014 9  -3775440.95545  22903230.926    22903230.6744   22903236.9674
        -0.000          -0.000
  -8764360.007 9  -6819162.76248  19515512.800    19515512.2524   19515517.6684
        -0.000          -0.000
 97  3  6 19 24 29.9940000  0  8 18  2 31  7 15 27 26 19            -0.005868267
   8034862.886 9   6266209.89146  21886318.363    21886317.7274   21886325.5764
        -0.000          -0.000
 -29261297.855 9 -22786987.02149  19721194.608    19721193.6924   19721199.3724
        -0.000          -0.000
  -5946301.519 9  -4615916.04246  21569548.627    21569547.7334   21569552.8094
        -0.000          -0.000
 -18219767.124 9 -14166218.97547  20839225.071    20839224.1154   20839231.5154
        -0.000          -0.000
  -4330354.002 8  -3354774.48745  22748086.361    22748085.4094   22748093.7244
        -0.000          -0.000
 -26316164.633 9 -20486914.92449  18492092.409    18492091.8014   18492096.5474
        -0.000          -0.000
  -4992473.377 9  -3870563.82945  22880001.299    22880000.8054   22880006.7594
        -0.000          -0.000
  -8751572.771 9  -6809198.69648  19517946.154    19517945.6174   19517951.0284
        -0.000          -0.000
 97  3  6 19 24 59.9940000  0  8 18  2 31  7 15 27 26 19            -0.005889445
   8112828.570 9   6326962.24446  21901154.787    21901154.2364   21901162.0364
        -0.000          -0.000
 -29319442.071 9 -22832294.16949  19710130.092    19710129.1524   19710134.8624
        -0.000          -0.000
  -5885964.283 9  -4568900.04146  21581030.363    21581029.5244   21581034.6644
        -0.000          -0.000
 -18349397.769 9 -14267229.76847  20814557.165    20814556.1834   20814563.5134
        -0.000          -0.000
  -4427577.560 8  -3430533.06145  22729585.055    22729584.0074   22729592.5874
        -0.000          -0.000
 -26369836.934 9 -20528737.48649  18481878.935    18481878.3224   18481883.0764
        -0.000          -0.000
  -5114159.584 8  -3965384.20745  22856845.240    22856844.5564   22856850.5824
        -0.000          -0.000
  -8738320.056 9  -6798871.91248  19520468.077    19520467.5414   19520472.9354
        -0.000          -0.000
 97  3  6 19 25 29.9940000  0  8 18  2 31  7 15 27 26 19            -0.005910516
   8191048.053 9   6387912.37446  21916039.906    21916039.3014   21916046.8894
        -0.000          -0.000
 -29377226.749 9 -22877321.16149  19699133.990    19699133.1144   19699138.7484
        -0.000          -0.000
  -5825163.065 9  -4521522.48346  21592600.340    21592599.6544   21592604.7654
        -0.000          -0.000
 -18478612.455 9 -14367916.42947  20789968.237    20789967.2164   20789974.5854
        -0.000          -0.000
  -4524405.298 8  -3505983.14045  22711159.252    22711158.3114   22711166.5774
        -0.000          -0.000
 -26422982.480 9 -20570149.59149  18471765.651    18471765.0334   18471769.8044
        -0.000          -0.000
  -5235424.765 8  -4059876.53545  22833768.771    22833768.4314   22833774.7714
        -0.000          -0.000
  -8724592.060 9  -6788174.78248  19523080.444    19523079.8834   19523085.2854
        -0.000          -0.000
 97  3  6 19 25 59.9940000  0  8 18  2 31  7 15 27 26 19            -0.005931478
   8269532.781 9   6449069.20346  21930975.499    21930974.7624   21930982.1054
        -0.000          -0.000
 -29434666.668 9 -22922079.51449  19688203.513    19688202.6214   19688208.2324
        -0.000          -0.000
  -5763901.215 9  -4473785.99746  21604257.805    21604257.2744   21604262.5164
        -0.000          -0.000
 -18607422.351 9 -14468287.67247  20765456.264    20765455.3144   20765462.7144
        -0.000          -0.000
  -4620844.450 8  -3581130.41245  22692807.550    22692806.4974   22692814.8634
        -0.000          -0.000
 -26475637.882 9 -20611179.77349  18461745.660    18461745.0204   18461749.7704
        -0.000          -0.000
  -5356275.535 8  -4154045.98945  22810771.744    22810771.3414   22810777.5794
        -0.000          -0.000
  -8710396.516 9  -6777113.33848  19525781.766    19525781.2234   19525786.5994
        -0.000          -0.000
 97  3  6 19 26 29.9940000  0  8 18  2 31  7 15 27 26 19            -0.005952344
   8348264.612 9   6510418.57246  21945957.866    21945957.1204   21945964.4274
        -0.000          -0.000
 -29491810.948 9 -22966607.50149  19677329.353    19677328.4394   19677334.0754
        -0.000          -0.000
  -5702196.430 9  -4425704.35946  21615999.960    21615999.3544   21616004.5984
        -0.000          -0.000
 -18735876.958 9 -14568382.06247  20741012.177    20741011.2174   20741018.5194
        -0.000          -0.000
  -4716921.021 8  -3655995.17245  22674524.707    22674523.6144   22674531.8514
        -0.000          -0.000
 -26527831.830 9 -20651850.37349  18451813.483    18451812.8564   18451817.5974
        -0.000          -0.000
  -5476737.582 8  -4247912.43045  22787848.561    22787847.8924   22787854.3684
        -0.000          -0.000
  -8695768.461 9  -6765714.86648  19528565.400    19528564.8364   19528570.2174
        -0.000          -0.000
 97  3  6 19 26 59.9940000  0  8 18  2 31  7 15 27 26 19            -0.005973128
   8427222.851 9   6571944.36646  21960982.946    21960982.3284   21960989.8104
        -0.000          -0.000
 -29548687.639 9 -23010926.97849  19666506.034    19666505.1124   19666510.7644
        -0.000          -0.000
  -5640079.252 9  -4377301.37846  21627820.562    21627819.8024   21627825.1784
        -0.000          -0.000
 -18863990.135 9 -14668210.41047  20716633.097    20716632.0744   20716639.2934
        -0.000          -0.000
  -4812657.006 9  -3730594.51645  22656306.776    22656305.6354   22656313.8144
        -0.000          -0.000
 -26579590.859 9 -20692182.07449  18441964.074    18441963.4544   18441968.1714
        -0.000          -0.000
  -5596829.083 8  -4341490.18245  22764995.352    22764995.0224   22765001.7744
        -0.000          -0.000
  -8680744.696 9  -6754008.05348  19531424.325    19531423.7864   19531429.1684
        -0.000          -0.000
 97  3  6 19 27 29.9940000  0  8 18  2 31  7 15 27 26 19            -0.005993829
   8506404.842 9   6633644.53646  21976050.437    21976049.9884   21976057.6484
        -0.000          -0.000
 -29605276.347 9 -23055022.04749  19655737.630    19655736.6574   19655742.2564
        -0.000          -0.000
  -5577546.077 9  -4328574.23046  21639720.174    21639719.4144   21639724.9224
        -0.000          -0.000
 -18991755.589 9 -14767767.79647  20692320.050    20692319.0364   20692326.3114
        -0.000          -0.000
  -4908050.196 9  -3804926.74345  22638153.989    22638152.8034   22638161.0034
        -0.000          -0.000
 -26630914.082 9 -20732174.19049  18432197.538    18432196.9064   18432201.6554
        -0.000          -0.000
  -5716555.677 8  -4434783.65245  22742211.832    22742211.7954   22742218.4484
        -0.000          -0.000
  -8665322.129 9  -6741990.48148  19534359.149    19534358.6254   19534363.9984
        -0.000          -0.000
 97  3  6 19 27 59.9940000  0  8 18  2 31  7 15 27 26 19            -0.006014441
   8585821.749 9   6695527.75346  21991162.928    21991162.5754   21991170.1974
        -0.000          -0.000
 -29661540.130 9 -23098863.93549  19645030.848    19645029.9394   19645035.5504
        -0.000          -0.000
  -5514567.075 9  -4279499.71446  21651704.893    21651703.9564   21651709.3854
        -0.000          -0.000
 -19119153.249 9 -14867038.61047  20668076.885    20668075.9094   20668083.2524
        -0.000          -0.000
  -5003078.189 9  -3878974.40345  22620070.812    22620069.7324   22620077.5204
        -0.000          -0.000
 -26681778.591 9 -20771808.86949  18422518.307    18422517.7064   18422522.4804
        -0.000          -0.000
  -5835904.655 8  -4527782.80945  22719500.302    22719500.1574   22719506.9144
        -0.000          -0.000
  -8649463.439 9  -6729633.07348  19537377.000    19537376.4564   19537381.8074
        -0.000          -0.000
 97  3  6 19 28 29.9930000  0  8 18  2 31  7 15 27 26 19            -0.006034981
   8665437.897 9   6757566.21446  22006313.542    22006313.1264   22006320.7154
        -0.000          -0.000
 -29717478.688 9 -23142452.39449  19634386.058    19634385.1484   19634390.7784
        -0.000          -0.000
  -5451164.929 9  -4230095.46746  21663769.662    21663769.0154   21663774.5054
        -0.000          -0.000
 -19246187.220 9 -14966026.03047  20643903.073    20643902.1144   20643909.3294
        -0.000          -0.000
  -5097748.195 9  -3952743.11145  22602055.649    22602054.5444   22602062.3474
        -0.000          -0.000
 -26732186.433 9 -20811087.69649  18412926.061    18412925.4474   18412930.2064
        -0.000          -0.000
  -5954894.679 9  -4620502.29845  22696857.400    22696857.4224   22696863.6704
        -0.000          -0.000
  -8633176.867 9  -6716942.24848  19540476.237    19540475.6904   19540481.0554
        -0.000          -0.000
 97  3  6 19 28 59.9930000  0  8 18  2 31  7 15 27 26 19            -0.006055426
   8745295.177 9   6819792.56346  22021510.256    22021509.6664   22021517.2504
        -0.000          -0.000
 -29773010.296 9 -23185723.75849  19623818.783    19623817.8834   19623823.5094
        -0.000          -0.000
  -5387298.118 9  -4180329.16346  21675923.112    21675922.5114   21675927.9804
        -0.000          -0.000
 -19372799.113 9 -15064684.55047  20619809.550    20619808.5744   20619815.7494
        -0.000          -0.000
  -5192012.913 9  -4026196.01045  22584117.491    22584116.4114   22584124.2664
        -0.000          -0.000
 -26782095.105 9 -20849977.55749  18403428.777    18403428.1424   18403432.8824
        -0.000          -0.000
  -6073488.806 9  -4712913.27545  22674289.916    22674289.8654   22674295.8424
        -0.000          -0.000
  -8616390.559 9  -6703862.02048  19543670.550    19543670.0394   19543675.3924
        -0.000          -0.000
 97  3  6 19 29 29.9930000  0  8 18  2 31  7 15 27 26 19            -0.006075766
   8825400.889 9   6882212.47546  22036754.210    22036753.5334   22036761.0414
        -0.000          -0.000
 -29828118.609 9 -23228665.27849  19613332.065    19613331.1234   19613336.6844
        -0.000          -0.000
  -5322958.405 9  -4130194.34846  21688166.697    21688166.0254   21688171.3314
        -0.000          -0.000
 -19498956.918 9 -15162989.23447  20595802.395    20595801.4244   20595808.6294
        -0.000          -0.000
  -5285848.809 9  -4099314.79545  22566261.251    22566260.2134   22566267.8394
        -0.000          -0.000
 -26831487.444 9 -20888465.08249  18394029.740    18394029.0994   18394033.8234
        -0.000          -0.000
  -6191660.440 9  -4804995.03745  22651802.784    22651802.6334   22651808.5764
        -0.000          -0.000
  -8599061.549 9  -6690358.90248  19546968.170    19546967.6764   19546973.0534
        -0.000          -0.000
 97  3  6 19 29 59.9930000  0  8 18  2 31  7 15 27 26 19            -0.006095991
   8905759.360 9   6944829.35046  22052046.044    22052045.4074   22052053.0464
        -0.000          -0.000
 -29882820.624 9 -23271290.20949  19602922.588    19602921.6504   19602927.1764
        -0.000          -0.000
  -5258141.169 9  -4079687.42146  21700500.881    21700500.1674   21700505.5744
        -0.000          -0.000
 -19624649.023 9 -15260931.03847  20571883.902    20571882.9624   20571890.1834
        -0.000          -0.000
  -5379241.819 9  -4172088.44745  22548488.956    22548487.8984   22548495.7154
        -0.000          -0.000
 -26880350.887 9 -20926540.48749  18384731.327    18384730.6964   18384735.4064
        -0.000          -0.000
  -6309377.690 8  -4896722.73345  22629401.896    22629401.7414   22629407.7794
        -0.000          -0.000
  -8581168.991 9  -6676416.66348  19550372.977    19550372.4794   19550377.8774
        -0.000          -0.000
 97  3  6 19 30 29.9930000  0  8 18  2 31  7 15 27 26 19            -0.006116111
   8986345.861 9   7007623.89246  22067381.039    22067380.4514   22067388.4574
        -0.000          -0.000
 -29937167.859 9 -23313638.67949  19592580.663    19592579.7194   19592585.2524
        -0.000          -0.000
  -5192883.319 9  -4028837.18046  21712919.350    21712918.3804   21712923.7294
        -0.000          -0.000
 -19749904.880 9 -15358532.91847  20548048.447    20548047.4534   20548054.6854
        -0.000          -0.000
  -5472222.235 9  -4244540.57846  22530795.197    22530794.2164   22530802.0454
        -0.000          -0.000
 -26928700.022 9 -20964215.13049  18375530.793    18375530.1654   18375534.8774
        -0.000          -0.000
  -6426648.926 9  -4988102.90146  22607085.858    22607085.8104   22607091.7384
        -0.000          -0.000
  -8562752.907 9  -6662066.48048  19553877.399    19553876.9424   19553882.3404
        -0.000          -0.000
 97  3  6 19 30 59.9930000  0  8 18  2 31  7 15 27 26 19            -0.006136131
   9067139.181 9   7070579.59446  22082755.446    22082754.7874   22082763.1154
        -0.000          -0.000
 -29991199.088 9 -23355740.92149  19582298.853    19582297.8774   19582303.4134
        -0.000          -0.000
  -5127211.289 9  -3977664.19746  21725416.370    21725415.4084   21725420.6804
        -0.000          -0.000
 -19874745.399 9 -15455811.13847  20524291.970    20524290.9694   20524298.2894
        -0.000          -0.000
  -5564808.640 9  -4316685.72146  22513176.674    22513175.6434   22513183.3544
        -0.000          -0.000
 -26976542.163 9 -21001494.70849  18366426.744    18366426.1184   18366430.8294
        -0.000          -0.000
  -6543464.803 9  -5079128.21546  22584856.932    22584856.6494   22584862.5294
        -0.000          -0.000
  -8543854.429 9  -6647340.40848  19557473.770    19557473.2534   19557478.6294
        -0.000          -0.000
 97  3  6 19 31 29.9930000  0  8 18  2 31  7 15 27 26 19            -0.006156050
   9148129.713 9   7133688.96246  22098167.294    22098166.7774   22098175.1804
        -0.000          -0.000
 -30044951.222 9 -23397625.67949  19572070.029    19572069.1094   19572074.6674
        -0.000          -0.000
  -5061133.715 9  -3926175.20346  21737990.510    21737989.7024   21737994.8914
        -0.000          -0.000
 -19999186.782 9 -15552778.35847  20500611.456    20500610.5224   20500617.7934
        -0.000          -0.000
  -5657008.911 9  -4388529.93746  22495631.409    22495630.3894   22495638.1524
        -0.000          -0.000
 -27023882.106 9 -21038382.96349  18357418.251    18357417.6044   18357422.3154
        -0.000          -0.000
  -6659823.884 9  -5169797.55446  22562714.750    22562714.2884   22562720.1994
        -0.000          -0.000
  -8524511.794 9  -6632268.23748  19561154.562    19561154.0254   19561159.3884
        -0.000          -0.000
 97  3  6 19 31 59.9930000  0  8 18  2 31  7 15 27 26 19            -0.006175882
   9229298.544 9   7196937.28746  22113613.252    22113612.7844   22113621.0474
        -0.000          -0.000
 -30098427.086 9 -23439295.16149  19561893.990    19561893.0334   19561898.5004
        -0.000          -0.000
  -4994666.990 9  -3874382.98146  21750638.681    21750637.9264   21750643.1494
        -0.000          -0.000
 -20123262.475 9 -15649460.61147  20477000.541    20476999.6094   20477006.8664
        -0.000          -0.000
  -5748838.941 9  -4460085.69046  22478156.727    22478155.7364   22478163.4594
        -0.000          -0.000
 -27070724.071 9 -21074883.18649  18348504.496    18348503.8554   18348508.5714
        -0.000          -0.000
  -6775743.149 9  -5260124.25146  22540655.985    22540655.6094   22540661.5584
        -0.000          -0.000
  -8504768.149 9  -6616883.59148  19564911.640    19564911.1244   19564916.5014
        -0.000          -0.000
 97  3  6 19 32 29.9930000  0  8 18  2 31  7 15 27 26 19            -0.006195626
   9310653.050 9   7260330.29646  22129094.539    22129094.0674   22129102.2384
        -0.000          -0.000
 -30151588.382 9 -23480719.52149  19551777.739    19551776.7574   19551782.2744
        -0.000          -0.000
  -4927806.691 9  -3822284.08446  21763361.711    21763361.1084   21763366.3054
        -0.000          -0.000
 -20246961.098 9 -15745849.05247  20453461.434    20453460.4844   20453467.7134
        -0.000          -0.000
  -5840284.466 9  -4531341.80946  22460755.091    22460754.0844   22460761.8694
        -0.000          -0.000
 -27117057.086 9 -21110986.82349  18339687.574    18339686.9294   18339691.6614
        -0.000          -0.000
  -6891223.988 9  -5350109.25846  22518680.520    22518680.2324   22518686.2964
        -0.000          -0.000
  -8484626.228 9  -6601188.59948  19568744.507    19568743.9914   19568749.3844
        -0.000          -0.000
 97  3  6 19 32 59.9930000  0  8 18  2 31  7 15 27 26 19            -0.006215269
   9392214.433 9   7323884.50446  22144615.231    22144614.8224   22144622.8154
        -0.000          -0.000
 -30204397.203 9 -23521869.23349  19541728.491    19541727.5344   19541733.1244
        -0.000          -0.000
  -4860528.554 9  -3769859.58146  21776164.388    21776163.7454   21776168.9124
        -0.000          -0.000
 -20370255.255 9 -15841922.32147  20429999.334    20429998.3374   20430005.5354
        -0.000          -0.000
  -5931313.984 8  -4602273.77945  22443432.501    22443431.4974   22443439.3824
        -0.000          -0.000
 -27162867.911 9 -21146683.55749  18330970.029    18330969.4144   18330974.1234
        -0.000          -0.000
  -7006259.344 9  -5439747.15746  22496789.976    22496789.6774   22496795.7164
        -0.000          -0.000
  -8464057.014 9  -6585160.65848  19572658.702    19572658.1914   19572663.5784
        -0.000          -0.000
